     2.11           OBSERVATION DATA    G (GPS)             RINEX VERSION / TYPE
teqc 2010Oct21 OPUS Account 20111025 20:36:02UTC            PGM / RUN BY / DATE
D 1522                                                      MARKER NAME
1159                                                        MARKER NUMBER
CSMIDDLETON NGS                                             OBSERVER / AGENCY
0220320152 TRIMBLE 5700 2.01                                REC # / TYPE / VERS
12214372 TRM41249.00 NONE                                   ANT # / TYPE
  -738588.7326 -5491027.7256  3149363.0418                  APPROX POSITION XYZ
        2.0000        0.0000        0.0000                  ANTENNA: DELTA H/E/N
     1     1                                                WAVELENGTH FACT L1/2
     5    L1    L2    C1    P1    P2                        # / TYPES OF OBSERV
    15                                                      LEAP SECONDS
  2011     7    29    15     2   30.0000000     GPS         TIME OF FIRST OBS
                                                            END OF HEADER
 11  7 29 15  2 30.0000000  0  6G13G16G20G23G31G32
    -74789.91056    -45804.10553  23730110.6564                   23730109.5594
    -34570.20757    -22758.46557  20235516.1254                   20235512.5664
     -7757.99658     -8816.91456  20919211.9144                   20919208.6174
    -66322.74258    -40864.46556  21656028.7814                   21656024.4384
     33058.70357     13421.70355  23425094.7424                   23425092.7664
     15868.94158      4314.19156  21100987.8754                   21100985.8794
 11  7 29 15  2 45.0000000  0  6G13G16G20G23G31G32
   -129938.97346    -88777.38743  23719616.8204                   23719615.8204
    -59178.78948    -41933.98846  20230832.8984                   20230829.8284
    -13552.97348    -13332.51246  20918109.2344                   20918106.2274
   -114317.36748    -78262.88746  21646895.8984                   21646891.1254
     56072.57847     31354.57445  23429473.7274                   23429472.3364
     26713.72748     12764.66046  21103051.4774                   21103049.3984
 11  7 29 15  3  0.0000000  0  7G06G13G16G20G23G31G32
   -156465.53156   -100665.30554  23520983.7974                   23520982.9924
   -185281.36746   -131901.28543  23709085.7504                   23709084.4224
    -83818.83647    -61134.03147  20226144.1644                   20226140.8054
    -19388.90648    -17880.01246  20916998.5944                   20916995.4734
   -162466.77048   -115781.88746  21637733.3444                   21637728.6604
     78893.13747     49136.78145  23433815.7274                   23433815.2624
     37490.92648     21162.46146  21105102.5234                   21105100.2114
 11  7 29 15  3 15.0000000  0  7G06G13G16G20G23G31G32
   -204775.46146   -138309.39843  23511789.9454                   23511789.8204
   -240723.89846   -175103.23843  23698534.4224                   23698533.6334
   -108397.33647    -80286.10947  20221467.0554                   20221463.9024
    -25172.69548    -22386.88746  20915898.2114                   20915894.9804
   -210677.65248   -153348.80545  21628558.8594                   21628554.4654
    101613.26247     66840.75445  23438140.3674                   23438137.9924
     48293.46948     29580.01246  21107157.9924                   21107156.2234
 11  7 29 15  3 30.0000000  0  8G06G13G16G20G23G31G32G03
   -253112.43746   -175974.55944  23502592.3054                   23502592.2544
   -296231.14846   -218355.60243  23687972.4304                   23687970.3984
   -132878.94547    -99362.68746  20216808.1644                   20216805.0124
    -30869.16848    -26825.71546  20914814.0474                   20914811.1844
   -258914.44148   -190935.91446  21619379.8594                   21619375.1764
    124268.26647     84493.99245  23442451.0634                   23442449.0594
     59156.39848     38044.61346  21109225.2344                   21109223.2194
   -168708.26256   -125519.25854  23546081.4614                   23546080.5474
 11  7 29 15  3 45.0000000  0  8G06G13G16G20G23G31G32G03
   -301460.77746   -213648.57444  23493391.4614                   23493391.5634
   -351788.11746   -261646.73843  23677399.6564                   23677397.5394
   -157248.44548   -118351.91447  20212170.8364                   20212167.8364
    -36463.50448    -31184.96546  20913749.3204                   20913746.3404
   -307162.05547   -228531.46146  21610198.7664                   21610194.5474
    146873.16447    102108.17245  23446752.5394                   23446750.7704
     70094.64547     46567.91446  21111306.8524                   21111304.8834
   -226854.46546   -170827.95744  23535015.7194                   23535016.1804
 11  7 29 15  4  0.0000000  0  8G06G13G16G20G23G31G32G03
   -349813.69146   -251326.15644  23484190.4694                   23484190.4104
   -407387.88346   -304971.18444  23666819.1174                   23666818.3634
   -181499.19948   -137248.60947  20207556.1334                   20207552.7894
    -41949.08648    -35459.45746  20912705.4224                   20912702.9384
   -355413.51247   -266129.98446  21601016.6254                   21601012.4304
    169434.53147    119688.41445  23451046.2274                   23451044.6134
     81114.69547     55154.94946  21113403.7664                   21113401.2774
   -285034.70346   -216163.19144  23523944.3444                   23523944.6644
 11  7 29 15  4 15.0000000  0  8G06G13G16G20G23G31G32G03
   -398166.43446   -289003.57844  23474989.3204                   23474988.9844
   -463026.16846   -348325.66443  23656231.4694                   23656230.0394
   -205626.77048   -156049.31247  20202964.5704                   20202961.4494
    -47321.71948    -39645.94946  20911683.5944                   20911680.4144
   -403664.31247   -303728.00445  21591834.5394                   21591830.3674
    191956.41447    137237.91845  23455332.0234                   23455330.5474
     92220.44947     63808.76246  21115517.1564                   21115515.3594
   -343244.37946   -261521.34044  23512867.6804                   23512868.0944
 11  7 29 15  4 30.0000000  0  8G06G13G16G20G23G31G32G03
   -446517.10946   -326679.42244  23465787.7894                   23465788.0394
   -518701.10246   -391708.69543  23645636.6484                   23645636.2774
   -229629.75447   -174752.93447  20198397.3284                   20198394.1564
    -52580.06648    -43743.37946  20910682.8984                   20910680.0904
   -451912.66048   -341324.12545  21582653.3984                   21582648.9494
    214440.35947    154757.84445  23459610.4774                   23459608.6134
    103413.32447     72530.46546  21117646.8284                   21117645.2074
   -401481.68446   -306901.02344  23501785.9144                   23501785.2774
 11  7 29 15  4 45.0000000  0  8G06G13G16G20G23G31G32G03
   -494862.70346   -364351.29344  23456588.0634                   23456588.1254
   -574410.07446   -435118.23043  23635035.6724                   23635035.0744
   -253505.58247   -193357.48447  20193853.8754                   20193850.7624
    -57721.46948    -47749.68046  20909704.3914                   20909701.4304
   -500155.77047   -378916.15246  21573473.0944                   21573468.8954
    236888.93847    172250.21545  23463882.1804                   23463880.7624
    114695.68848     81321.89546  21119794.1564                   21119792.3444
   -459743.50846   -352299.81644  23490698.2974                   23490698.5984
 11  7 29 15  5  0.0000000  0  8G06G13G16G20G23G31G32G03
   -543201.08646   -402017.55144  23447389.7194                   23447388.8834
   -630150.96146   -478552.68743  23624428.9534                   23624427.8834
   -277252.25047   -211861.38346  20189335.0864                   20189331.8484
    -62744.26648    -51663.57046  20908748.8444                   20908745.6334
   -548391.49648   -416502.43046  21564294.0394                   21564289.6454
    259303.83247    189716.32845  23468147.8364                   23468146.2974
    126069.33248     90184.45346  21121958.2034                   21121956.5354
   -518027.69546   -397716.03944  23479607.0314                   23479607.2194
 11  7 29 15  5 15.0000000  0  8G06G13G16G20G23G31G32G03
   -591530.39546   -439676.73844  23438192.8524                   23438192.4494
   -685922.38346   -522010.90243  23613815.4924                   23613814.3484
   -300868.28547   -230263.49646  20184841.0784                   20184837.8634
    -67647.09448    -55483.97346  20907815.6484                   20907812.8364
   -596618.16048   -454081.64846  21555116.9304                   21555112.4344
    281686.53147    207157.37545  23472406.9144                   23472405.1094
    137535.57448     99119.17246  21124140.3284                   21124138.6334
   -576332.50446   -443148.33644  23468512.6724                   23468512.6844
 11  7 29 15  5 30.0000000  0  8G06G13G16G20G23G31G32G03
   -639848.22746   -477326.98044  23428998.7034                   23428997.6954
   -741722.10946   -565491.19543  23603197.9774                   23603196.0394
   -324351.55147   -248562.14546  20180372.1804                   20180369.1254
    -72428.07448    -59209.42646  20906905.7664                   20906902.8714
   -644833.57848   -491652.10546  21545941.8284                   21545937.3404
    304038.98447    224574.84445  23476660.1334                   23476658.8554
    149096.10548    108127.36346  21126340.2664                   21126338.3834
   -634655.46946   -488594.78944  23457413.7734                   23457414.3444
 11  7 29 15  5 45.0000000  0  8G06G13G16G20G23G31G32G03
   -688153.18046   -514967.19144  23419806.3984                   23419805.9734
   -797548.84846   -608992.52043  23592574.0864                   23592572.9224
   -347700.93047   -266756.47347  20175928.7814                   20175925.5394
    -77086.14848    -62839.11346  20906019.3284                   20906016.2074
   -693036.41848   -529212.75846  21536768.9384                   21536764.8014
    326362.14547    241969.48044  23480908.4844                   23480906.7234
    160751.67648    117209.61746  21128558.1334                   21128556.2774
   -692995.22347   -534054.30144  23446312.2504                   23446312.7854
 11  7 29 15  6  0.0000000  0  8G06G13G16G20G23G31G32G03
   -736445.16046   -552597.27344  23410616.2814                   23410616.2734
   -853402.87946   -652515.11743  23581944.8444                   23581944.5044
   -370916.64847   -284846.64547  20171511.1564                   20171507.7544
    -81621.80548    -66373.40646  20905156.4454                   20905153.2304
   -741226.72348   -566763.64546  21527598.7424                   21527594.1054
    348655.75847    259341.12144  23485150.7504                   23485149.1174
    172501.88348    126365.59846  21130794.0084                   21130792.1334
   -751351.59846   -579526.77044  23435206.7424                   23435207.1684
 11  7 29 15  6 15.0000000  0  8G06G13G16G20G23G31G32G03
   -784722.18446   -590215.70744  23401429.9304                   23401429.7234
   -909282.60246   -696057.72343  23571311.2894                   23571311.0554
   -393997.14147   -302831.44946  20167119.1414                   20167115.8794
    -86033.45348    -69811.07046  20904317.0784                   20904313.8834
   -789402.67648   -604303.33245  21518431.2344                   21518426.7504
    370921.37947    276690.91045  23489388.2974                   23489386.2584
    184348.31348    135596.55546  21133048.3524                   21133046.3054
   -809722.53146   -625010.59044  23424099.8284                   23424099.5984
 11  7 29 15  6 30.0000000  0  8G06G13G16G20G23G31G32G03
   -832983.28146   -627821.73444  23392246.3444                   23392245.3954
   -965187.22746   -739619.73443  23560673.6334                   23560672.5164
   -416941.89148   -320710.48047  20162752.8134                   20162749.6844
    -90320.92248    -73151.97746  20903500.9144                   20903497.9454
   -837563.58648   -641831.32045  21509266.1644                   21509261.7344
    393159.19146    294019.05544  23493619.1954                   23493618.3134
    196291.14848    144902.64146  21135321.0704                   21135319.1334
   -868107.37546   -670505.23444  23412989.5314                   23412989.0204
 11  7 29 15  6 45.0000000  0  8G06G13G16G20G23G31G32G03
   -881226.84046   -665414.08244  23383065.7194                   23383065.4574
  -1021115.08646   -783199.88343  23550030.6954                   23550029.4804
   -439749.41847   -338482.58247  20158412.8284                   20158409.2114
    -94482.75448    -76394.98446  20902709.2424                   20902706.2734
   -885707.67248   -679346.18745  21500104.3754                   21500100.2584
    415371.06646    311326.96544  23497846.5634                   23497844.6214
    208331.50448    154284.71146  21137612.4144                   21137610.7894
   -926504.03946   -716009.12144  23401876.3754                   23401877.4534
 11  7 29 15  7  0.0000000  0  8G06G13G16G20G23G31G32G03
   -929452.15246   -702992.24644  23373888.4224                   23373888.5164
  -1077065.79746   -826797.79343  23539383.3834                   23539382.5204
   -462419.28948   -356147.42246  20154099.1024                   20154095.6024
    -98518.82048    -79539.98446  20901941.0704                   20901938.0514
   -933834.57047   -716847.66046  21490946.4534                   21490942.0274
    437556.75446    328614.47344  23502068.1724                   23502066.6334
    220469.68448    163743.00846  21139922.1954                   21139920.3794
   -984912.07446   -761521.85944  23390762.2344                   23390761.9804
 11  7 29 15  7 15.0000000  0  8G06G13G16G20G23G31G32G03
   -977657.31646   -740554.70744  23364715.0084                   23364715.4024
  -1133037.83247   -870412.33643  23528732.6564                   23528731.0634
   -484950.19147   -373703.97346  20149811.3284                   20149808.0234
   -102427.79747    -82585.96146  20901197.1414                   20901194.2774
   -981942.40247   -754334.27346  21481791.8054                   21481787.9024
    459717.78146    345882.78544  23506285.2344                   23506283.9024
    232706.80947    173278.40646  21142250.7424                   21142248.8634
  -1043329.59847   -807041.97344  23379645.6804                   23379645.0474
 11  7 29 15  7 30.0000000  0  8G06G13G16G20G23G31G32G03
  -1025841.84446   -778101.05944  23355545.9144                   23355546.5514
  -1189030.94547   -914043.31243  23518077.1954                   23518076.1644
   -507341.91447   -391152.07046  20145550.4304                   20145547.0704
   -106209.68748    -85532.89846  20900477.3284                   20900474.6644
  -1030031.01647   -791805.91446  21472641.2194                   21472636.6094
    481854.00447    363131.76244  23510497.8834                   23510496.1174
    245042.73447    182890.79746  21144597.9844                   21144596.7234
  -1101756.10547   -852569.09844  23368527.5084                   23368526.9104
 11  7 29 15  7 45.0000000  0  8G06G13G16G20G23G31G32G03
  -1074006.17646   -815631.68044  23346380.0784                   23346381.0634
  -1245045.66047   -957691.09443  23507417.6564                   23507417.5084
   -529595.20747   -408492.30147  20141315.9774                   20141312.5864
   -109865.20747    -88381.36746  20899781.9144                   20899778.8594
  -1078100.85947   -829262.93046  21463493.6724                   21463489.0004
    503964.82046    380360.94544  23514705.3444                   23514703.2344
    257476.57847    192579.48046  21146964.3134                   21146962.3164
  -1160191.93746   -898103.48444  23357407.3834                   23357406.7304
 11  7 29 15  8  0.0000000  0  8G06G13G16G20G23G31G32G03
  -1122149.47346   -853145.91844  23337219.5554                   23337219.1564
  -1301081.48447  -1001355.36743  23496754.6414                   23496753.5784
   -551709.59048   -425724.28947  20137107.3444                   20137104.4804
   -113394.11748    -91131.17246  20899110.2974                   20899107.5864
  -1126151.19547   -866704.75046  21454350.1564                   21454345.4454
    526050.73047    397570.71544  23518908.1884                   23518906.4264
    270008.54347    202344.62546  21149349.1644                   21149347.1524
  -1218636.48847   -943644.68044  23346285.9924                   23346285.0394
 11  7 29 15  8 15.0000000  0  8G06G13G16G20G23G31G32G03
  -1170269.91846   -890642.34844  23328062.2734                   23328061.9304
  -1357136.83646  -1045034.85243  23486087.4774                   23486086.6484
   -573683.53947   -442846.84846  20132926.1484                   20132922.7464
   -116795.18447    -93781.37146  20898463.1884                   20898460.5394
  -1174180.45347   -904130.14546  21445210.1954                   21445206.0904
    548113.00446    414762.08244  23523106.9064                   23523104.4264
    282639.98847    212187.28946  21151752.8284                   21151751.0784
  -1277087.96546   -989191.25044  23335162.6024                   23335162.3984
 11  7 29 15  8 30.0000000  0  8G06G13G16G20G23G31G32G03
  -1218367.02046   -928120.57044  23318909.9614                   23318909.4184
  -1413211.29346  -1088729.19143  23475417.0634                   23475416.1174
   -595516.78948   -459859.77347  20128771.2664                   20128767.8954
   -120068.27048    -96331.83646  20897840.0864                   20897837.3134
  -1222188.08648   -941538.68046  21436074.7114                   21436070.7034
    570151.71146    431935.09044  23527301.1954                   23527298.2624
    295370.82047    222107.39546  21154175.3524                   21154173.2664
  -1335545.54746  -1034742.60244  23324038.6254                   23324038.4844
 11  7 29 15  8 45.0000000  0  8G06G13G16G20G23G31G32G03
  -1266439.48846   -965579.62144  23309761.5554                   23309761.2584
  -1469304.12946  -1132437.84843  23464742.6484                   23464742.1054
   -617208.57448   -476762.46146  20124643.4144                   20124640.0864
   -123212.72347    -98782.07446  20897241.8834                   20897239.0514
  -1270172.96948   -978929.49646  21426943.1954                   21426938.8324
    592167.80947    449090.46945  23531490.0634                   23531488.0594
    308201.68847    232105.44946  21156617.0164                   21156615.5354
  -1394008.05946  -1080297.80144  23312913.6414                   23312912.9574
 11  7 29 15  9  0.0000000  0  8G06G13G16G20G23G31G32G03
  -1314487.56246  -1003019.66044  23300618.5164                   23300618.2774
  -1525415.60947  -1176161.03943  23454064.8984                   23454064.3754
   -638759.46148   -493555.36347  20120542.2504                   20120538.8244
   -126229.28948   -101132.65646  20896667.7894                   20896664.8404
  -1318135.57048  -1016302.95346  21417816.4694                   21417811.8404
    614160.44946    466227.55944  23535675.3444                   23535673.5784
    321131.68848    242180.75446  21159077.7344                   21159075.8094
  -1452475.95346  -1125857.17644  23301787.1024                   23301786.6604
 11  7 29 15  9 15.0000000  0  8G06G13G16G20G23G31G32G03
  -1362508.86346  -1040438.83244  23291480.3364                   23291480.4574
  -1581543.59047  -1219897.11743  23443384.0554                   23443382.4804
   -660167.41048   -510236.87947  20116468.6484                   20116465.3284
   -129115.94548   -103382.00446  20896118.7584                   20896115.4144
  -1366073.62548  -1053657.27745  21408694.0084                   21408689.9024
    636131.70347    483347.99645  23539856.2504                   23539854.1524
    334162.71548    252334.78546  21161557.3364                   21161555.3674
  -1510946.47746  -1171418.59844  23290660.7424                   23290659.5864
 11  7 29 15  9 30.0000000  0  8G06G13G16G20G23G31G32G03
  -1410503.66846  -1077837.35544  23282347.2274                   23282346.7584
  -1637688.62947  -1263646.47343  23432700.5394                   23432698.1994
   -681433.05148   -526807.51646  20112422.1484                   20112418.5124
   -131873.51248   -105530.77346  20895593.4774                   20895590.7774
  -1413987.55148  -1090992.79345  21399576.4614                   21399572.4304
    658080.80147    500451.15245  23544032.7274                   23544031.0904
    347293.87948    262566.84046  21164056.0394                   21164054.2774
  -1569420.03146  -1216982.38744  23279533.8754                   23279532.9654
 11  7 29 15  9 45.0000000  0  8G06G13G16G20G23G31G32G03
  -1458472.25047  -1115215.44544  23273219.0474                   23273218.7734
  -1693850.97347  -1307409.34043  23422013.5634                   23422011.3554
   -702557.05948   -543267.78546  20108402.0084                   20108399.0314
   -134502.78148   -107579.57446  20895093.2664                   20895090.7974
  -1461877.74648  -1128309.82046  21390463.2894                   21390458.7304
    680007.11747    517536.58245  23548205.5474                   23548203.9304
    360524.30548    272876.24246  21166573.8444                   21166572.0434
  -1627896.75846  -1262548.65244  23268405.9694                   23268405.7384
 11  7 29 15 10  0.0000000  0  8G06G13G16G20G23G31G32G03
  -1506413.30147  -1152572.08644  23264096.2274                   23264095.1134
  -1750029.85547  -1351185.06243  23411323.0474                   23411321.5434
   -723538.56648   -559617.01246  20104409.6174                   20104406.1914
   -137003.04347   -109527.85546  20894617.6644                   20894614.9734
  -1509743.12148  -1165607.52046  21381354.9224                   21381350.2664
    701911.41847    534604.83645  23552373.5004                   23552372.8634
    373854.69948    283263.54346  21169110.5314                   21169108.6134
  -1686375.58646  -1308116.53544  23257277.7344                   23257277.7934
 11  7 29 15 10 15.0000000  0  8G06G13G16G20G23G31G32G03
  -1554326.35246  -1189906.90244  23254977.9694                   23254977.6254
  -1806224.84447  -1394973.33243  23400629.1174                   23400627.5984
   -744377.23848   -575854.93447  20100444.1414                   20100440.6954
   -139374.23047   -111375.55146  20894166.5704                   20894163.8634
  -1557583.25848  -1202885.54746  21372250.7424                   21372246.4804
    723793.82047    551656.02345  23556537.6334                   23556536.3984
    387285.03147    293728.71946  21171666.1724                   21171664.6214
  -1744856.03546  -1353685.70744  23246149.6954                   23246148.7274
 11  7 29 15 10 30.0000000  0  8G06G13G16G20G23G31G32G03
  -1602210.86746  -1227219.49244  23245866.3914                   23245866.0594
  -1862435.83246  -1438774.07843  23389932.0394                   23389931.1174
   -765072.87948   -591981.41847  20096505.9694                   20096502.7114
   -141616.40247   -113122.71546  20893739.7734                   20893737.1724
  -1605397.75848  -1240143.59446  21363151.9774                   21363147.9694
    745654.47347    568690.27345  23560697.7734                   23560696.5664
    400815.16847    304271.65246  21174241.0004                   21174239.2974
  -1803337.48046  -1399255.66444  23235021.2974                   23235020.0474
 11  7 29 15 10 45.0000000  0  8G06G13G16G20G23G31G32G03
  -1650067.34847  -1264510.23444  23236759.5084                   23236759.2854
  -1918663.49647  -1482587.80543  23379232.4774                   23379231.5274
   -785626.44548   -607997.18446  20092594.6254                   20092591.5664
   -143730.37547   -114769.98446  20893337.2664                   20893335.1134
  -1653187.03148  -1277381.98046  21354058.1484                   21354053.8364
    767492.51647    585706.91045  23564853.6024                   23564852.0634
    414444.14148    314891.60546  21176834.4694                   21176832.9654
  -1861820.32046  -1444826.68044  23223892.0784                   23223891.0474
 11  7 29 15 11  0.0000000  0  8G06G13G16G20G23G31G32G03
  -1697893.68047  -1301777.50844  23227659.1804                   23227658.0204
  -1974905.77747  -1526412.92243  23368529.7034                   23368528.9804
   -806036.35948   -623901.01647  20088710.7664                   20088707.5474
   -145714.69147   -116316.22346  20892960.1644                   20892957.1994
  -1700949.34448  -1314599.37546  21344969.4774                   21344965.0164
    789309.52047    602707.14545  23569005.3834                   23569003.4064
    428173.35547    325589.66846  21179447.1644                   21179445.2774
  -1920302.36746  -1490397.08644  23212762.5394                   23212762.4024
 11  7 29 15 11 15.0000000  0  8G06G13G16G20G23G31G32G03
  -1745688.96547  -1339020.57044  23218563.5394                   23218562.9104
  -2031162.00047  -1570248.91044  23357824.5234                   23357823.9304
   -826302.00048   -639692.42646  20084854.3834                   20084850.7974
   -147569.05147   -117761.19946  20892607.0554                   20892604.2774
  -1748683.82848  -1351795.07046  21335885.6174                   21335881.3554
    811105.96547    619691.35545  23573152.6334                   23573151.4694
    442003.22748    336366.17246  21182078.6644                   21182076.9804
  -1978782.91447  -1535966.31244  23201635.1254                   23201633.7664
 11  7 29 15 11 30.0000000  0  8G06G13G16G20G23G31G32G03
   -218029.75847   -148636.76644  23509267.7664                   23509267.1334
   -512008.48447   -386492.88744  23646909.6254                   23646909.0274
    728997.86748    572229.53947  20380818.4534                   20380814.7894
   1426126.41847   1108494.99646  21192071.9454                   21192068.9184
   -220967.29748   -161366.60246  21626600.5234                   21626596.0634
   2408300.17247   1864258.23045  23877088.6024                   23877088.0234
   2031352.28147   1574819.96546  21484522.0704                   21484520.2664
   -461837.98846   -353931.28544  23490299.5864                   23490298.5044
 11  7 29 15 11 45.0000000  0  8G06G13G16G20G23G31G32G03
   -265761.66047   -185830.44144  23500184.6414                   23500184.1524
   -568292.12947   -430350.24644  23636199.5944                   23636198.7384
    709021.02048    556663.16046  20377016.5784                   20377013.3714
   1424531.84848   1107252.45346  21191768.1884                   21191765.4734
   -268645.34848   -198518.33246  21617527.8754                   21617523.3834
   2430055.53147   1881210.43045  23881228.7504                   23881227.8984
   2045382.73048   1585752.77046  21487191.7504                   21487190.1524
   -520314.26246   -399497.18744  23479171.1954                   23479170.9494
 11  7 29 15 12  0.0000000  0  8G06G13G16G20G23G31G32G03
   -313461.15247   -222998.86344  23491107.6644                   23491107.4844
   -624589.13347   -474218.00444  23625486.4774                   23625485.6214
    689188.57048    541209.30946  20373242.3204                   20373238.9964
   1423067.09047   1106111.06346  21191489.4534                   21191486.4924
   -316294.73448   -235647.72346  21608460.8204                   21608455.8444
   2451790.28147   1898146.56645  23885364.6954                   23885363.7854
   2059513.20347   1596763.50846  21489880.6884                   21489879.3714
   -578787.69546   -445060.85944  23468044.4224                   23468044.3754
 11  7 29 15 12 15.0000000  0  8G06G13G16G20G23G31G32G03
   -361128.01247   -260141.85244  23482036.5944                   23482035.9654
   -680899.39547   -518096.10544  23614771.2274                   23614770.5664
    669500.69148    525868.10246  20369496.1094                   20369492.5274
   1421731.94147   1105070.66846  21191235.2664                   21191232.6604
   -363915.17648   -272754.55546  21599398.4384                   21599393.8094
   2473504.53947   1915066.74645  23889496.3984                   23889495.4654
   2073743.54347   1607852.05946  21492588.7584                   21492587.2154
   -637257.89546   -490622.02044  23456917.8524                   23456917.9534
 11  7 29 15 12 30.0000000  0  8G06G13G16G20G23G31G32G03
   -408761.82847   -297259.11344  23472972.2424                   23472971.6884
   -737222.90646   -561984.50044  23604052.5864                   23604052.2774
    649957.32448    510639.49646  20365777.1254                   20365773.5434
   1420526.31348   1104131.19946  21191006.1254                   21191002.8714
   -411506.40248   -309838.62546  21590342.1884                   21590337.7584
   2495198.12547   1931970.81645  23893624.8134                   23893623.5944
   2088073.54348   1619018.27346  21495315.6024                   21495313.9804
   -695724.37546   -536180.29744  23445792.7504                   23445792.1214
 11  7 29 15 12 45.0000000  0  8G06G13G16G20G23G31G32G03
   -456362.30547   -334350.37944  23463914.3134                   23463913.6334
   -793559.39146   -605883.04744  23593332.3134                   23593332.1134
    630558.19548    495523.28946  20362085.5944                   20362082.2194
   1419449.94547   1103292.45346  21190800.9844                   21190798.1564
   -459068.26648   -346899.82046  21581291.5634                   21581287.2344
   2516870.99647   1948858.73045  23897749.3204                   23897748.1604
   2102502.94947   1630261.93846  21498061.5474                   21498060.1134
   -754186.92646   -581735.50844  23434667.4304                   23434667.0004
 11  7 29 15 13  0.0000000  0  8G06G13G16G20G23G31G32G03
   -503928.06247   -371414.58644  23454862.8754                   23454862.5084
   -849907.89547   -649790.93444  23582609.9304                   23582609.1884
    611304.40248    480520.34047  20358421.7894                   20358418.4694
   1418503.58648   1102555.01246  21190621.3134                   21190618.1724
   -506599.62948   -383937.24246  21572246.5004                   21572242.3714
   2538524.03147   1965731.19145  23901869.4224                   23901868.4384
   2117032.29347   1641583.48446  21500826.2734                   21500824.8404
   -812644.19946   -627286.61344  23423543.0474                   23423542.3674
 11  7 29 15 13 15.0000000  0  8G06G13G16G20G23G31G32G03
   -551459.68047   -408452.20744  23445817.9774                   23445817.1604
   -906269.05947   -693708.68744  23571884.4774                   23571883.8714
    592195.00448    465629.89146  20354785.4144                   20354781.8984
   1417686.22348   1101918.09046  21190465.5944                   21190462.8364
   -554101.20348   -420951.44946  21563207.2584                   21563203.1294
   2560156.16847   1982587.36745  23905986.0944                   23905984.7114
   2131660.60947   1652982.14546  21503610.1564                   21503608.7934
   -871096.87946   -672834.12944  23412419.7424                   23412419.0084
 11  7 29 15 13 30.0000000  0  8G06G13G16G20G23G31G32G03
   -598956.98047   -445463.06644  23436779.5164                   23436778.8094
   -962642.94947   -737636.35944  23561157.4614                   23561156.0084
    573229.75048    450851.77046  20351176.1644                   20351172.9104
   1416997.53948   1101381.42646  21190334.3134                   21190331.8754
   -601572.71548   -457942.24646  21554174.0234                   21554169.4144
   2581767.21147   1999427.11745  23910098.4614                   23910096.8984
   2146387.48448   1664457.60946  21506412.4844                   21506411.2934
   -929544.65246   -718377.81644  23401297.1804                   23401297.2774
 11  7 29 15 13 45.0000000  0  8G06G13G16G20G23G31G32G03
   -646419.10247   -482446.53144  23427747.4454                   23427746.6954
  -1019029.07046   -781573.57844  23550426.7274                   23550425.9454
    554409.13748    436186.35546  20347594.6804                   20347591.3794
   1416437.67647   1100945.14846  21190227.9844                   21190224.9344
   -649013.66448   -494909.21546  21545145.8204                   21545142.0554
   2603357.50047   2016250.67244  23914207.3364                   23914205.7624
   2161212.93447   1676009.87946  21509233.7664                   21509232.2344
   -987986.59446   -763916.95744  23390176.2424                   23390176.2664
 11  7 29 15 14  0.0000000  0  8G06G13G16G20G23G31G32G03
   -693846.06247   -519402.59044  23418722.2424                   23418722.1564
  -1075427.47746   -825520.37144  23539694.6644                   23539693.6484
    535732.82448    421633.38347  20344040.9064                   20344037.7074
   1416006.38748   1100609.06346  21190145.8754                   21190143.1094
   -696424.09448   -531852.39546  21536124.0634                   21536120.0634
   2624926.99647   2033058.06644  23918311.5704                   23918310.5944
   2176136.64147   1687638.72346  21512073.4844                   21512072.2624
  -1046422.64146   -809451.51644  23379055.7504                   23379056.3324
 11  7 29 15 14 15.0000000  0  8G06G13G16G20G23G31G32G03
   -741237.07846   -556330.64844  23409704.4694                   23409703.8634
  -1131837.59046   -869476.25844  23528960.3834                   23528959.1414
    517201.17248    407193.13746  20340514.4924                   20340511.1954
   1415703.63747   1100373.12946  21190088.1174                   21190085.4024
   -743803.15248   -568771.13746  21527108.3054                   21527103.7814
   2646475.94147   2049849.41845  23922411.6254                   23922410.7974
   2191158.74648   1699344.24246  21514932.0004                   21514930.4494
  -1104852.04346   -854980.89144  23367937.7734                   23367937.8634
 11  7 29 15 14 30.0000000  0  8G06G13G16G20G23G31G32G03
   -788592.31246   -593230.80544  23400692.6644                   23400691.9064
  -1188260.01646   -913441.73044  23518223.3364                   23518222.7424
    498813.49648    392865.07447  20337015.2664                   20337012.0594
   1415528.75848   1100236.85546  21190054.7734                   21190052.5124
   -791151.42248   -605665.89546  21518098.1254                   21518093.6724
   2668003.41047   2066624.04344  23926507.9384                   23926507.4924
   2206278.27047   1711125.66446  21517809.4064                   21517807.6134
  -1163275.07446   -900505.29744  23356819.9384                   23356820.3164
 11  7 29 15 14 45.0000000  0  8G06G13G16G20G23G31G32G03
   -835911.52346   -630102.91844  23391687.4304                   23391688.1294
  -1244694.53546   -957416.64844  23507484.1174                   23507482.9884
    480569.91447    378649.30146  20333543.7114                   20333540.4774
   1415481.68448   1100200.15646  21190046.0234                   21190043.1954
   -838468.70747   -642536.48846  21509093.8524                   21509089.4454
   2689509.49647   2083382.00044  23930600.9614                   23930599.9064
   2221494.91848   1722982.77346  21520705.1564                   21520703.2274
  -1221691.25846   -946024.37144  23345704.2344                   23345703.5044
 11  7 29 15 15  0.0000000  0  8G06G13G16G20G23G31G32G03
   -883195.26246   -666947.35244  23382690.5084                   23382689.9064
  -1301141.80146  -1001401.50844  23496742.4694                   23496741.8914
    462469.41448    364545.00446  20330099.4844                   20330096.3444
   1415561.32448   1100262.19946  21190061.4774                   21190058.5314
   -885755.53148   -679383.36346  21500095.9384                   21500091.3634
   2710993.26647   2100122.55944  23934689.6254                   23934688.1414
   2236807.68048   1734914.77746  21523619.1334                   21523617.8134
  -1280101.14147   -991538.54744  23334589.5784                   23334588.4694
 11  7 29 15 15 15.0000000  0  8G06G13G16G20G23G31G32G03
   -930442.48846   -703763.34244  23373699.4384                   23373699.1174
  -1357601.02346  -1045395.67644  23485998.5394                   23485997.5474
    444512.63748    350552.71146  20326682.2424                   20326678.8364
   1415768.02348   1100423.25046  21190100.7584                   21190098.0594
   -933011.07448   -716205.85946  21491102.8834                   21491098.9104
   2732455.35947   2116846.23444  23938773.2974                   23938772.7274
   2252216.98448   1746922.00846  21526551.5084                   21526549.9884
  -1338503.76647  -1037047.05544  23323475.4694                   23323475.7114
 11  7 29 15 15 30.0000000  0  8G06G13G16G20G23G31G32G03
   -977653.10946   -740550.87944  23364715.0784                   23364715.2974
  -1414072.40247  -1089399.32044  23475252.3524                   23475251.2344
    426699.03547    336671.98446  20323292.5004                   20323289.0634
   1416101.32048   1100682.94946  21190163.9534                   21190161.3444
   -980235.38748   -753004.02046  21482116.6724                   21482112.3554
   2753895.41047   2133552.72744  23942853.7194                   23942852.5984
   2267722.23047   1759003.99646  21529501.8834                   21529500.5234
  -1396899.04347  -1082549.85244  23312362.8914                   23312363.1174
 11  7 29 15 15 45.0000000  0  8G06G13G16G20G23G31G32G03
  -1024827.76646   -777310.33244  23355738.2664                   23355738.4224
  -1470556.91447  -1133413.18443  23464503.9924                   23464502.6334
    409027.69548    322902.11346  20319929.6094                   20319926.3834
   1416560.08648   1101040.42646  21190251.2424                   21190248.6214
  -1027429.23848   -789778.43446  21473136.0164                   21473131.5434
   2775312.18447   2150241.09044  23946928.9694                   23946927.0904
   2283322.18848   1771159.78146  21532470.3204                   21532469.0164
  -1455287.66046  -1128047.44544  23301252.3674                   23301252.2034
 11  7 29 15 16  0.0000000  0  8G06G13G16G20G23G31G32G03
  -1071965.07846   -814040.68744  23346768.3754                   23346768.3134
  -1527053.35247  -1177436.35944  23453752.9454                   23453751.6414
    391499.54348    309243.80946  20316594.2194                   20316590.8364
   1417145.11748   1101496.27746  21190362.8754                   21190359.8874
  -1074591.40248   -826528.16846  21464161.3914                   21464156.9804
   2796706.72347   2166912.13744  23951000.4064                   23950998.2384
   2299017.47348   1783389.84446  21535457.4144                   21535455.8984
  -1513668.22746  -1173538.77044  23290142.5004                   23290142.5394
 11  7 29 15 16 15.0000000  0  8G06G13G16G20G23G31G32G03
  -1119064.85546   -850741.79344  23337806.0864                   23337805.1914
  -1583561.54347  -1221468.68043  23442999.5554                   23442997.8484
    374114.63347    295697.12546  20313285.8364                   20313282.3284
   1417856.25048   1102050.39846  21190497.8594                   21190495.6214
  -1121721.64848   -863253.02346  21455192.8134                   21455188.6764
   2818078.99247   2183565.83244  23955067.3594                   23955066.1024
   2314807.92647   1795694.07846  21538462.1954                   21538460.4264
  -1572040.48446  -1219023.61344  23279034.5554                   23279034.8794
 11  7 29 15 16 30.0000000  0  8G06G13G16G20G23G31G32G03
  -1166128.02046   -887414.38344  23328850.3914                   23328848.3794
  -1640082.59047  -1265511.03544  23432244.0864                   23432242.6254
    356871.58248    282260.97347  20310004.5864                   20310001.3594
   1418692.04748   1102701.65646  21190656.9224                   21190654.2664
  -1168821.02348   -899953.83246  21446229.8134                   21446225.9384
   2839427.73047   2200201.18044  23959129.8754                   23959128.6094
   2330692.00447   1808071.25846  21541484.2344                   21541483.4104
  -1630405.32046  -1264502.68744  23267928.1804                   23267928.2544
 11  7 29 15 16 45.0000000  0  8G06G13G16G20G23G31G32G03
  -1213152.82846   -924057.07444  23319902.1484                   23319900.3794
  -1696615.31247  -1309562.47344  23421486.4224                   23421485.1134
    339771.35948    268936.12547  20306750.7194                   20306747.3524
   1419653.33247   1103450.70346  21190839.6024                   21190837.0514
  -1215888.27748   -936629.60946  21437273.2814                   21437269.1254
   2860753.78147   2216818.86344  23963188.2584                   23963186.5704
   2346670.57448   1820522.06646  21544525.5164                   21544523.7074
  -1688761.12946  -1309974.71944  23256823.9224                   23256823.2624
 11  7 29 15 17  0.0000000  0  8G06G13G16G20G23G31G32G03
  -1260140.57446   -960670.87544  23310959.8594                   23310959.4844
  -1753161.09447  -1353624.10544  23410725.8594                   23410724.3714
    322812.34048    255721.30147  20303523.5234                   20303519.9104
   1420738.28147   1104296.10246  21191046.4304                   21191043.7034
  -1262924.55948   -973281.25046  21428322.6564                   21428318.7544
   2882055.67647   2233417.72344  23967241.9064                   23967240.6724
   2362741.73447   1833045.03146  21547583.6334                   21547581.9614
  -1747109.07447  -1355440.62944  23245720.4614                   23245719.5704
 11  7 29 15 17 15.0000000  0  8G06G13G16G20G23G31G32G03
  -1307089.68747   -997254.59844  23302025.6804                   23302024.9734
  -1809718.60247  -1397694.86344  23399963.4614                   23399961.3524
    305995.79348    242617.49247  20300323.2504                   20300320.3554
   1421947.98447   1105238.71146  21191276.4774                   21191273.6174
  -1309928.30148  -1009907.53146  21419377.9454                   21419374.0824
   2903334.67247   2249998.72744  23971291.3054                   23971289.8914
   2378906.67247   1845641.05946  21550660.3444                   21550658.0594
  -1805447.51246  -1400899.13744  23234618.6724                   23234618.1054
 11  7 29 15 17 30.0000000  0  8G06G13G16G20G23G31G32G03
  -1353999.84446  -1033807.95344  23293098.9774                   23293098.8984
  -1866287.38347  -1441774.42244  23389198.1644                   23389196.6334
    289321.93048    229624.87146  20297150.6024                   20297147.1884
   1423282.52747   1106278.60546  21191530.5554                   21191527.9774
  -1356899.27748  -1046508.29746  21410439.8054                   21410435.7734
   2924590.71947   2266561.84444  23975336.4694                   23975334.5984
   2395165.04747   1858309.89546  21553753.6174                   21553751.9104
  -1863775.90646  -1446349.81244  23223519.0164                   23223518.8914
 11  7 29 15 17 45.0000000  0  8G06G13G16G20G23G31G32G03
  -1400871.56646  -1070331.33644  23284179.8284                   23284179.6914
  -1922868.48047  -1485863.59044  23378431.7974                   23378430.2344
    272789.60547    216742.53946  20294004.3594                   20294000.9774
   1424740.70748   1107414.84046  21191808.0864                   21191805.4964
  -1403838.25447  -1083084.11746  21401507.7194                   21401503.5124
   2945822.81347   2283106.32445  23979376.5164                   23979375.2774
   2411515.68848   1871050.63346  21556865.0234                   21556863.8244
  -1922095.06247  -1491793.27744  23212421.7344                   23212421.6644
 11  7 29 15 18  0.0000000  0  8G06G13G16G20G23G31G32G03
  -1447703.02346  -1106823.36744  23275268.5004                   23275267.6954
  -1979460.16847  -1529960.96543  23367662.6484                   23367661.3594
    256400.19147    203971.55947  20290885.5314                   20290882.3874
   1426323.75048   1108648.35246  21192109.1884                   21192106.6914
  -1450743.46548  -1119633.63746  21392582.1334                   21392577.5944
   2967032.35247   2299633.21145  23983412.3984                   23983410.6214
   2427959.85547   1883864.24646  21559994.4844                   21559992.7704
  -1980403.03946  -1537228.04344  23201325.4304                   23201325.3984
 11  7 29 15 18 15.0000000  0  8G06G13G16G20G23G31G32G03
  -1494495.20747  -1143284.78144  23266364.6174                   23266362.5704
  -2036063.37546  -1574067.33643  23356891.1254                   23356890.0084
    240152.46548    191310.99246  20287793.8364                   20287790.2854
   1428030.17647   1109978.02346  21192433.9454                   21192431.2584
  -1497615.98847  -1156157.67246  21383662.3284                   21383658.2384
   2988218.12547   2316141.59445  23987444.0394                   23987442.2544
   2444496.02348   1896749.55146  21563141.0704                   21563139.2894
  -2038700.55146  -1582654.66044  23190232.2034                   23190231.8054
 11  7 29 15 18 30.0000000  0  8G06G13G16G20G23G31G32G03
  -1541245.46947  -1179713.55144  23257467.4454                   23257466.8674
  -2092676.10547  -1618181.14844  23346118.3134                   23346116.6844
    224048.28147    178762.27046  20284729.3594                   20284726.1094
   1429861.85947   1111405.30146  21192783.0234                   21192779.8984
  -1544453.42647  -1192654.36746  21374749.4064                   21374744.9264
   3009382.14547   2332632.98845  23991471.8364                   23991470.3954
   2461125.94148   1909707.91446  21566305.6884                   21566304.1844
  -2096985.37947  -1628071.36744  23179140.8984                   23179139.6604
 11  7 29 15 18 45.0000000  0  8G06G13G16G20G23G31G32G03
  -1587954.92247  -1216110.50844  23248579.5864                   23248578.7664
  -2149299.50847  -1662303.24644  23335342.9924                   23335342.2894
    208086.33647    166324.39547  20281691.6484                   20281688.3554
   1431817.36748   1112929.05946  21193154.7664                   21193152.3524
  -1591256.93747  -1229124.64146  21365842.9694                   21365838.9614
   3030522.99647   2349106.36345  23995494.7114                   23995493.0234
   2477848.10248   1922738.15246  21569487.6024                   21569486.1604
  -2155258.13346  -1673478.69944  23168051.8284                   23168051.1954
 11  7 29 15 19  0.0000000  0  8G06G13G16G20G23G31G32G03
  -1634622.72747  -1252475.03544  23239698.5004                   23239698.0314
  -2205933.02047  -1706433.24644  23324565.7974                   23324564.3594
    192267.03548    153997.66446  20278681.5554                   20278677.9844
   1433896.79747   1114549.37146  21193550.4844                   21193547.9614
  -1638025.84447  -1265567.94546  21356943.0394                   21356939.0204
   3051641.08247   2365561.98444  23999513.1024                   23999511.1844
   2494662.62947   1935840.35546  21572687.4774                   21572685.8674
  -2213518.25446  -1718876.17244  23156965.1334                   23156964.5274
 11  7 29 15 19 15.0000000  0  8G06G13G16G20G23G31G32G03
  -1681247.59447  -1288806.04744  23230826.0234                   23230825.2814
  -2262575.36347  -1750570.13744  23313787.2814                   23313785.5704
    176591.31348    141782.80546  20275698.2894                   20275695.1024
   1436101.01247   1116266.93046  21193969.7664                   21193967.3054
  -1684758.89847  -1301983.30546  21348050.1644                   21348046.0944
   3072737.25847   2382000.53144  24003527.8674                   24003525.4924
   2511570.24647   1949015.10246  21575904.9224                   21575903.3794
  -2271764.27347  -1764262.65644  23145882.4304                   23145881.2854
 11  7 29 15 19 30.0000000  0  8G06G13G16G20G23G31G32G03
  -1727829.95747  -1325103.99644  23221961.2814                   23221960.8984
  -2319227.20747  -1794714.39844  23303007.0784                   23303005.8324
    161058.12948    129679.02746  20272742.2734                   20272739.2424
   1438428.86747   1118080.82846  21194412.6094                   21194410.3754
  -1731456.67248  -1338371.18446  21339163.7894                   21339159.6524
   3093810.75847   2398421.41045  24007538.3444                   24007536.3204
   2528569.83647   1962261.51246  21579139.7194                   21579137.9924
  -2329996.95746  -1809638.75844  23134800.5394                   23134800.0204
 11  7 29 15 19 45.0000000  0  8G06G13G16G20G23G31G32G03
  -1774368.05547  -1361367.43044  23213106.4614                   23213104.9774
  -2375887.05546  -1838864.91844  23292224.6414                   23292223.5744
    145668.95348    117687.45346  20269814.0554                   20269811.0634
   1440881.72747   1119992.14546  21194879.6954                   21194876.7664
  -1778117.39848  -1374730.19146  21330284.8204                   21330280.1414
   3114862.89547   2414825.66044  24011543.9924                   24011542.6094
   2545662.67647   1975580.57846  21582392.7814                   21582390.5634
  -2388214.34047  -1855002.91844  23123721.8284                   23123721.3874
 11  7 29 15 20  0.0000000  0  8G06G13G16G20G23G31G32G03
  -1820862.78947  -1397597.07044  23204258.4144                   23204257.4574
  -2432555.98847  -1883022.48044  23281441.0944                   23281440.3134
    130422.62948    105807.19946  20266913.0004                   20266909.8364
   1443458.06647   1121999.65646  21195369.7424                   21195367.3094
  -1824742.10547  -1411061.12146  21321412.3984                   21321407.9384
   3135892.54347   2431212.34844  24015545.7344                   24015544.8754
   2562847.16047   1988971.06646  21585662.7814                   21585660.7814
  -2446416.91446  -1900355.55944  23112645.7734                   23112645.8164
 11  7 29 15 20 15.0000000  0  8G06G13G16G20G23G31G32G03
  -1867313.89546  -1433792.70344  23195418.7034                   23195418.2464
  -2489233.98047  -1927187.14544  23270656.1564                   23270654.8054
    115318.58648     94037.81346  20264038.9614                   20264035.4884
   1446157.51247   1124103.10546  21195883.7114                   21195881.1094
  -1871330.70748  -1447363.92246  21312546.6254                   21312542.4184
   3156899.19947   2447581.14144  24019543.1724                   24019541.9184
   2580122.94147   2002432.68846  21588950.0474                   21588948.6054
  -2504604.77746  -1945696.71544  23101572.9844                   23101572.7194
 11  7 29 15 20 30.0000000  0  8G06G13G16G20G23G31G32G03
  -1913720.39547  -1469953.59444  23186588.3834                   23186586.8244
  -2545920.18446  -1971358.18744  23259869.1094                   23259867.4924
    100357.49248     82379.81646  20261191.7034                   20261188.4574
   1448980.60947   1126302.90246  21196421.1254                   21196418.1684
  -1917882.34048  -1483637.91846  21303688.5944                   21303683.6954
   3177883.56347   2463932.56344  24023536.6254                   24023534.3284
   2597490.34047   2015965.70746  21592254.9694                   21592253.3324
  -2562776.91447  -1991025.62544  23090503.4454                   23090502.9804
 11  7 29 15 20 45.0000000  0  8G06G13G16G20G23G31G32G03
  -1960082.60947  -1506079.97344  23177765.6564                   23177764.5164
  -2602615.20346  -2015536.08644  23249080.0554                   23249079.1884
     85538.72348     70832.71547  20258372.0704                   20258368.4494
   1451926.41847   1128598.32446  21196981.4694                   21196978.7664
  -1964397.48448  -1519883.49246  21294836.7274                   21294832.0394
   3198845.10547   2480266.21944  24027525.0554                   24027523.5744
   2614948.29747   2029569.27746  21595577.0944                   21595575.7734
  -2620933.56646  -2036342.47344  23079436.2664                   23079435.6174
 11  7 29 15 21  0.0000000  0  8G06G13G16G20G23G31G32G03
  -2006399.82447  -1542171.28144  23168951.6564                   23168950.8244
  -2659318.50846  -2059720.47744  23238289.9144                   23238288.1374
     70862.59848     59396.77746  20255578.8284                   20255575.8914
   1454995.16047   1130989.53546  21197565.6174                   21197562.8794
  -2010875.52048  -1556100.12946  21285992.2344                   21285988.3244
   3219784.06347   2496582.25044  24031509.1254                   24031508.7854
   2632497.05947   2043243.60946  21598916.5634                   21598915.1094
  -2679073.99646  -2081646.68444  23068372.5164                   23068372.4964
 11  7 29 15 21 15.0000000  0  8G06G13G16G20G23G31G32G03
  -2052672.09446  -1578227.57844  23160146.4304                   23160145.7344
  -2716030.23847  -2103911.39144  23227497.5704                   23227496.8324
     56328.68048     48071.64546  20252813.1484                   20252809.9384
   1458186.18847   1133476.03546  21198172.7664                   21198170.0474
  -2057316.51648  -1592287.91446  21277154.9224                   21277150.2344
   3240700.00847   2512880.33244  24035490.0944                   24035488.9924
   2650136.01647   2056988.23446  21602273.3364                   21602271.7734
  -2737198.14546  -2126938.19544  23057312.4144                   23057311.8204
 11  7 29 15 21 30.0000000  0  8G06G13G16G20G23G31G32G03
  -2098900.07046  -1614249.35944  23151349.5784                   23151348.0904
  -2772751.18047  -2148109.50844  23216703.8364                   23216703.6564
     41935.78948     36856.40246  20250074.0944                   20250071.0124
   1461498.31647   1136056.89146  21198802.8364                   21198800.0514
  -2103721.19548  -1628447.40246  21268324.3054                   21268319.7704
   3261591.81347   2529159.62544  24039465.9774                   24039463.9344
   2667863.81347   2070802.07046  21605646.4924                   21605645.3364
  -2795306.75846  -2172217.61744  23046254.5004                   23046253.4344
 11  7 29 15 21 45.0000000  0  8G06G13G16G20G23G31G32G03
  -2145082.54746  -1650235.68744  23142560.5234                   23142560.1134
  -2829480.42647  -2192314.09844  23205909.0784                   23205907.8204
     27684.54748     25751.53146  20247362.5634                   20247359.0354
   1464932.09847   1138732.55546  21199456.3524                   21199453.5554
  -2150088.54348  -1664577.79346  21259501.1484                   21259497.0744
   3282460.37947   2545420.82444  24043435.9064                   24043435.4454
   2685681.02047   2084685.58246  21609037.1024                   21609035.7504
  -2853398.58646  -2217483.95344  23035199.8914                   23035200.0204
 11  7 29 15 22  0.0000000  0  8G06G13G16G20G23G31G32G03
  -2191218.47346  -1686185.73844  23133781.5944                   23133780.2074
  -2886217.14847  -2236524.51244  23195112.4144                   23195110.6524
     13575.64548     14757.58646  20244677.7734                   20244674.8674
   1468487.92247   1141503.30946  21200132.8914                   21200130.4614
  -2196417.65648  -1700678.39846  21250684.7974                   21250680.2464
   3303306.38747   2561664.42244  24047403.9064                   24047402.4964
   2703587.96947   2098639.02346  21612444.6094                   21612443.3634
  -2911472.63746  -2262736.42644  23024148.2194                   23024147.8244
 11  7 29 15 22 15.0000000  0  8G06G13G16G20G23G31G32G03
  -2237307.73446  -1722099.42644  23125010.8754                   23125010.4924
  -2942961.43046  -2280740.81244  23184314.2584                   23184312.8204
      -391.16047      3874.35246  20242019.6174                   20242016.7974
   1472165.43847   1144368.88346  21200832.7344                   21200830.2194
  -2242708.49648  -1736749.17246  21241875.9694                   21241871.4534
   3324129.41447   2577890.12544  24051365.9064                   24051364.5984
   2721584.25047   2112662.07446  21615869.7344                   21615868.2114
  -2969528.55946  -2307974.78144  23013100.9144                   23013100.2234
 11  7 29 15 22 30.0000000  0  8G06G13G16G20G23G31G32G03
  -2283351.14546  -1757977.38344  23116248.9224                   23116248.6254
  -2999714.27746  -2324963.78144  23173514.2974                   23173512.8794
    -14217.25447     -6899.22747  20239389.0004                   20239385.6214
   1475963.27747   1147328.21946  21201555.6884                   21201553.0164
  -2288961.94547  -1772790.80946  21233074.4614                   21233069.6564
   3344928.19147   2594096.92244  24055324.2664                   24055322.5984
   2739668.47747   2126753.64846  21619311.0084                   21619309.6024
  -3027567.32446  -2353199.76644  23002056.4534                   23002056.4494
 11  7 29 15 22 45.0000000  0  8G06G13G16G20G23G31G32G03
  -2329348.60546  -1793819.54344  23107496.4774                   23107495.2774
  -3056475.80146  -2369193.52344  23162712.7814                   23162711.5314
    -27903.02347    -17563.47346  20236784.4534                   20236781.4734
   1479880.84848   1150380.85246  21202301.1804                   21202298.2934
  -2335178.13747  -1808803.42646  21224278.9614                   21224275.0434
   3365702.46147   2610284.62144  24059277.3674                   24059275.9574
   2757839.93047   2140913.19946  21622768.6174                   21622767.3324
  -3085588.68446  -2398411.19944  22991016.1644                   22991015.3554
 11  7 29 15 23  0.0000000  0  8G06G13G16G20G23G31G32G03
  -2375299.97746  -1829625.78544  23098752.1414                   23098751.2234
  -3113245.93047  -2413429.94544  23151910.4384                   23151909.0434
    -41448.64547    -28118.50446  20234207.1174                   20234203.6254
   1483917.90648   1153526.59846  21203069.7344                   21203066.7544
  -2381356.86747  -1844786.83646  21215492.1484                   21215487.7934
   3386452.08246   2626453.12544  24063224.9774                   24063224.8324
   2776098.11347   2155140.33246  21626243.1334                   21626241.6334
  -3143592.45346  -2443608.92644  22979978.2344                   22979977.4264
 11  7 29 15 23 15.0000000  0  8G06G13G16G20G23G31G32G03
  -2421203.58246  -1865394.80544  23090016.8524                   23090016.1254
  -3170023.44147  -2457672.12944  23141105.5634                   23141105.0514
    -54853.02747    -38563.47747  20231656.1724                   20231652.6644
   1488075.19148   1156766.01646  21203860.8204                   21203857.8914
  -2427496.71948  -1880739.95746  21206711.8914                   21206707.1804
   3407178.17247   2642603.30144  24067169.8204                   24067168.7814
   2794444.16447   2169435.93446  21629734.2424                   21629732.9924
  -3201577.15246  -2488791.78544  22968943.6724                   22968943.3094
 11  7 29 15 23 30.0000000  0  8G06G13G16G20G23G31G32G03
  -2467060.29346  -1901127.29344  23081290.3444                   23081290.2234
  -3226808.88747  -2501920.51644  23130299.7194                   23130298.6724
    -68117.09047    -48899.12146  20229132.1954                   20229128.8134
   1492351.75447   1160098.39146  21204674.4694                   21204671.5634
  -2473598.35947  -1916663.30946  21197938.7504                   21197934.5554
   3427879.84847   2658734.44544  24071109.4614                   24071108.1024
   2812876.76647   2183798.96946  21633241.7114                   21633240.0394
  -3259543.19147  -2533960.10244  22957913.2194                   22957912.5434
 11  7 29 15 23 45.0000000  0  8G06G13G16G20G23G31G32G03
  -2512868.69546  -1936822.13744  23072572.8594                   23072573.1724
  -3283601.46547  -2546174.43444  23119492.5084                   23119491.5474
    -81240.29747    -59125.00047  20226634.9224                   20226631.8284
   1496747.91448   1163523.94546  21205511.1804                   21205508.3874
  -2519660.81647  -1952556.11746  21189173.8134                   21189169.7584
   3448557.72747   2674847.05544  24075044.3524                   24075043.1484
   2831396.44148   2198229.85946  21636766.0554                   21636764.4224
  -3317489.53547  -2579113.08245  22946886.1804                   22946885.4104
 11  7 29 15 24  0.0000000  0  8G06G13G16G20G23G31G32G03
  -2558629.56646  -1972479.93444  23063864.8754                   23063864.7114
  -3340401.86347  -2590434.46144  23108683.3524                   23108682.5434
    -94223.65247    -69241.91846  20224164.4064                   20224161.2894
   1501262.73048   1167041.97346  21206370.0314                   21206367.4494
  -2565684.77348  -1988418.94146  21180415.3444                   21180410.9654
   3469210.80947   2690940.34044  24078974.1884                   24078973.1844
   2850002.02347   2212727.69146  21640306.5314                   21640305.4654
  -3375416.70746  -2624251.11744  22935863.2034                   22935862.2854
 11  7 29 15 24 15.0000000  0  8G06G13G16G20G23G31G32G03
  -2604341.91447  -2008099.93444  23055166.3524                   23055165.9694
  -3397209.41846  -2634700.05544  23097873.4304                   23097871.9964
   -107066.50847    -79249.34047  20221720.2424                   20221717.2234
   1505896.66048   1170652.79746  21207251.9304                   21207249.1844
  -2611669.24648  -2024250.99246  21171664.9304                   21171660.6454
   3489839.92647   2707014.92644  24082899.9774                   24082898.8284
   2868693.80147   2227292.69146  21643863.8134                   21643862.1764
  -3433323.53947  -2669373.29745  22924844.0234                   22924843.4224
 11  7 29 15 24 30.0000000  0  8G06G13G16G20G23G31G32G03
  -2650004.65246  -2043681.27044  23046477.3754                   23046476.4384
  -3454023.43047  -2678970.68044  23087062.4144                   23087060.4304
   -119768.43448    -89146.94946  20219303.1334                   20219300.0744
   1510649.82448   1174356.54346  21208156.2034                   21208153.7424
  -2657613.57848  -2060051.76646  21162922.0554                   21162917.4614
   3510445.65246   2723071.29744  24086821.1254                   24086819.7584
   2887471.96947   2241924.99646  21647437.5164                   21647435.5164
  -3491209.16446  -2714478.95744  22913828.5234                   22913828.2894
 11  7 29 15 24 45.0000000  0  8G06G13G16G20G23G31G32G03
  -2695617.87547  -2079224.01644  23037797.4774                   23037796.9804
  -3510843.78946  -2723246.26244  23076249.4304                   23076247.8914
   -132329.97748    -98935.17246  20216912.7194                   20216909.4144
   1515521.81348   1178152.87546  21209083.5394                   21209080.9454
  -2703517.77748  -2095821.26246  21154186.5314                   21154181.8284
   3531027.21947   2739108.85244  24090737.9224                   24090736.1994
   2906336.04747   2256624.25446  21651026.8204                   21651025.4024
  -3549073.56646  -2759568.07044  22902817.4304                   22902817.0164
 11  7 29 15 25  0.0000000  0  8G06G13G16G20G23G31G32G03
  -2741180.80946  -2114727.60244  23029127.1174                   23029125.9614
  -3567670.07446  -2767526.45744  23065435.7504                   23065433.5824
   -144750.91847   -108613.83246  20214549.1804                   20214545.9924
   1520512.69548   1182041.85246  21210033.2344                   21210030.9384
  -2749381.08648  -2131558.90646  21145459.1174                   21145454.7424
   3551585.21147   2755128.03144  24094649.3674                   24094648.1094
   2925286.11348   2271390.51646  21654632.7194                   21654631.3914
  -3606915.94947  -2804640.05145  22891810.2424                   22891809.5594
 11  7 29 15 25 15.0000000  0  8G06G13G16G20G23G31G32G03
  -2786693.83246  -2150192.27044  23020466.5084                   23020466.0594
  -3624502.78146  -2811811.67244  23054620.5474                   23054619.0704
   -157031.86348   -118183.41446  20212212.1094                   20212209.0474
   1525621.52348   1186022.73446  21211005.3134                   21211003.0354
  -2795204.16448  -2167265.19546  21136739.3914                   21136734.7894
   3572118.69947   2771128.12544  24098556.7424                   24098556.0824
   2944321.16447   2286222.99245  21658255.3594                   21658253.4774
  -3664736.74247  -2849695.17244  22880807.5084                   22880806.2624
 11  7 29 15 25 30.0000000  0  8G06G13G16G20G23G31G32G03
  -2832156.30147  -2185617.55944  23011814.1484                   23011813.9654
  -3681341.32846  -2856101.40244  23043805.1334                   23043803.3914
   -169172.59048   -127643.72346  20209901.6564                   20209898.7814
   1530848.60948   1190095.77046  21211999.9304                   21211997.4414
  -2840986.18748  -2202939.49646  21128027.2114                   21128022.9344
   3592628.28147   2787109.58244  24102460.0394                   24102458.7734
   2963441.40248   2301121.85246  21661893.8524                   21661892.3554
  -3722534.80146  -2894732.59444  22869808.5084                   22869807.7734
 11  7 29 15 25 45.0000000  0  8G06G13G16G20G23G31G32G03
  -2877565.63746  -2221001.44144  23003173.5004                   23003173.0784
  -3738183.63746  -2900394.08644  23032988.0474                   23032986.2934
   -181171.19547   -136993.28947  20207618.5554                   20207615.5784
   1536195.66448   1194262.28946  21213017.5234                   21213015.1644
  -2886724.90648  -2238580.05146  21119323.4614                   21119319.0004
   3613115.90647   2803073.91444  24106358.6414                   24106357.1914
   2982648.37147   2316088.29346  21665548.7664                   21665547.1564
  -3780307.87546  -2939750.55944  22858814.4224                   22858814.0474
 11  7 29 15 26  0.0000000  0  8G06G13G16G20G23G31G32G03
  -2922922.45346  -2256344.40644  22994542.6804                   22994541.9614
  -3795030.46146  -2944690.30944  23022170.1254                   23022168.9844
   -193028.91047   -146233.07047  20205362.2584                   20205358.9384
   1541661.39148   1198521.27746  21214057.7814                   21214055.4384
  -2932421.05548  -2274187.43746  21110627.8444                   21110623.1374
   3633580.52347   2819020.37144  24110253.2034                   24110251.8834
   3001940.93448   2331121.43446  21669219.8914                   21669218.3014
  -3838056.78147  -2984749.68744  22847825.4224                   22847825.1644
 11  7 29 15 26 15.0000000  0  8G06G13G16G20G23G31G32G03
  -2968225.24646  -2291645.27044  22985921.4304                   22985921.1844
  -3851880.30546  -2988988.85244  23011352.3364                   23011351.2344
   -204744.37947   -155362.01647  20203132.8444                   20203129.5554
   1547246.99248   1202873.68046  21215120.3914                   21215118.2704
  -2978073.01248  -2309760.39546  21101940.6414                   21101936.1994
   3654023.48846   2834949.92244  24114143.5554                   24114142.1954
   3021320.13747   2346222.09446  21672907.0474                   21672906.4264
  -3895779.64847  -3029728.51644  22836840.7034                   22836840.7584
 11  7 29 15 26 30.0000000  0  8G06G13G16G20G23G31G32G03
  -3013475.06646  -2326904.85944  22977310.9774                   22977309.9024
  -3908734.28947  -3033290.63344  23000533.6254                   23000531.3484
   -216318.97747   -164381.19146  20200930.2114                   20200926.7974
   1552950.78148   1207318.16846  21216205.9384                   21216203.5664
  -3023681.84048  -2345299.74246  21093261.4224                   21093257.1764
   3674443.40647   2850861.52344  24118029.3444                   24118027.5824
   3040784.34048   2361388.98046  21676611.7664                   21676609.9224
  -3953477.23847  -3074687.64544  22825860.8984                   22825861.5004
 11  7 29 15 26 45.0000000  0  8G06G13G16G20G23G31G32G03
  -3058670.10246  -2362121.75844  22968710.9614                   22968709.7074
  -3965591.35946  -3077594.83644  22989713.6954                   22989711.7814
   -227751.80947   -173289.89847  20198754.6954                   20198751.6684
   1558773.51648   1211855.35246  21217313.8524                   21217311.6094
  -3069246.36748  -2380804.55546  21084590.9144                   21084586.7734
   3694841.14546   2866755.83644  24121911.0634                   24121908.8914
   3060334.28947   2376622.67646  21680331.7424                   21680330.5664
  -4011148.51247  -3119626.27044  22814887.1414                   22814887.2814
 11  7 29 15 27  0.0000000  0  8G06G13G16G20G23G31G32G03
  -3103808.91447  -2397294.84844  22960120.9924                   22960120.5314
  -4022449.79346  -3121900.08244  22978894.0164                   22978893.0904
   -239041.76647   -182087.27346  20196606.0314                   20196602.9884
   1564716.52048   1216486.23446  21218445.2344                   21218442.5594
  -3114765.01248  -2416273.62946  21075928.9144                   21075924.4344
   3715218.14146   2882633.99644  24125788.2504                   24125787.0634
   3079971.04747   2391924.00846  21684068.6174                   21684066.9694
  -4068791.41446  -3164542.80144  22803917.9304                   22803917.8794
 11  7 29 15 27 15.0000000  0  8G06G13G16G20G23G31G32G03
  -3148892.51647  -2432424.91444  22951541.8204                   22951540.9264
  -4079310.62546  -3166207.19944  22968073.3444                   22968071.9654
   -250190.09048   -190774.28146  20194484.6884                   20194481.5944
   1570778.16848   1221209.58246  21219598.5474                   21219596.4104
  -3160238.60948  -2451707.59446  21067275.7664                   21067271.3594
   3735573.11747   2898494.99644  24129661.7734                   24129660.2854
   3099693.04347   2407291.77746  21687821.3754                   21687819.9264
  -4126406.80946  -3209437.89544  22792954.0554                   22792953.3674
 11  7 29 15 27 30.0000000  0  8G06G13G16G20G23G31G32G03
  -3193919.48447  -2467510.85244  22942973.4064                   22942973.2234
  -4136172.94147  -3210515.48844  22957253.1804                   22957251.8954
   -261196.18747   -199350.46946  20192390.5164                   20192387.0864
   1576958.96548   1226025.75846  21220774.7274                   21220772.2894
  -3205666.27748  -2487105.78546  21058631.1414                   21058626.8164
   3755906.84847   2914339.43844  24133531.4144                   24133529.6954
   3119500.81647   2422726.37946  21691591.1564                   21691589.4884
  -4183993.57047  -3254310.67244  22781995.2274                   22781995.0904
 11  7 29 15 27 45.0000000  0  8G06G13G16G20G23G31G32G03
  -3238890.55947  -2502553.22344  22934415.4614                   22934415.0634
  -4193037.04346  -3254825.13344  22946432.1954                   22946430.4384
   -272060.68048   -207816.30546  20190322.9304                   20190319.7854
   1583258.28548   1230934.30146  21221973.5234                   21221971.1564
  -3251047.94948  -2522468.12146  21049995.0084                   21049990.5474
   3776218.89546   2930166.98444  24137396.7974                   24137395.1644
   3139393.68447   2438227.28946  21695376.5234                   21695374.9104
  -4241551.96147  -3299161.32844  22771043.0704                   22771042.4264
 11  7 29 15 28  0.0000000  0  8G06G13G16G20G23G31G32G03
  -3283804.14847  -2537550.82444  22925868.8914                   22925868.7584
  -4249902.46946  -3299135.83644  22935610.8444                   22935609.6844
   -282783.27047   -216171.57447  20188282.2664                   20188278.9574
   1589676.16048   1235935.22746  21223194.4774                   21223192.4924
  -3296383.14548  -2557794.24646  21041368.3834                   21041363.7734
   3796509.52046   2945977.83644  24141257.6414                   24141256.6454
   3159371.67247   2453794.53146  21699178.3834                   21699176.8444
  -4299081.05146  -3343989.17244  22760095.3364                   22760095.2274
 11  7 29 15 28 15.0000000  0  8G06G13G16G20G23G31G32G03
  -3328659.13747  -2572502.74644  22917333.4454                   22917332.6804
  -4306767.71947  -3343446.40244  22924789.4614                   22924788.4454
   -293362.71947   -224415.30146  20186269.0164                   20186266.2074
   1596213.66848   1241029.37146  21224438.6414                   21224436.4144
  -3341670.45748  -2593083.05946  21032750.4144                   21032746.0434
   3816779.97346   2961772.98444  24145115.4774                   24145113.7114
   3179435.73047   2469428.83646  21702996.2584                   21702995.2384
  -4356579.27346  -3388792.96144  22749153.3754                   22749153.1724
 11  7 29 15 28 30.0000000  0  8G06G13G16G20G23G31G32G03
  -3373455.57047  -2607409.06244  22908809.2584                   22908808.4144
  -4363632.77047  -3387756.80144  22913968.9534                   22913967.5204
   -303799.41048   -232547.79346  20184283.0864                   20184280.1094
   1602870.25048   1246216.29746  21225705.5474                   21225702.9384
  -3386909.84048  -2628334.52346  21024141.5084                   21024137.1054
   3837029.88746   2977552.14144  24148968.1174                   24148967.1414
   3199585.19147   2485129.68446  21706830.4304                   21706829.2894
  -4414046.53147  -3433572.60944  22738217.5084                   22738217.9804
 11  7 29 15 28 45.0000000  0  8G06G13G16G20G23G31G32G03
  -3418191.75847  -2642268.41844  22900296.7814                   22900294.3984
  -4420496.41847  -3432066.11744  22903148.6414                   22903145.7734
   -314092.55547   -240568.42646  20182324.4774                   20182321.1954
   1609646.85548   1251496.75046  21226994.9774                   21226992.5944
  -3432099.78148  -2663547.46146  21015541.8674                   21015537.6884
   3857260.53146   2993316.25844  24152818.0394                   24152816.4774
   3219821.03947   2500897.85246  21710681.2584                   21710679.8324
  -4471481.21546  -3478326.87944  22727288.2894                   22727287.9454
 11  7 29 15 29  0.0000000  0  8G06G13G16G20G23G31G32G03
  -3462867.31246  -2677080.51244  22891794.7424                   22891793.5274
  -4477358.36747  -3476374.13744  22892327.9064                   22892326.4774
   -324242.23847   -248477.27746  20180393.0864                   20180389.8404
   1616543.02748   1256870.36746  21228307.4614                   21228304.8054
  -3477240.01248  -2698721.66046  21006952.1954                   21006947.8444
   3877471.59046   3009065.10244  24156664.3834                   24156662.8714
   3240142.98847   2516733.10946  21714548.5164                   21714547.1454
  -4528882.89146  -3523055.45744  22716365.4454                   22716364.5234
 11  7 29 15 29 15.0000000  0  8G06G13G16G20G23G31G32G03
  -3507482.37146  -2711845.48844  22883304.4304                   22883302.9964
  -4534218.89147  -3520680.99244  22881507.6954                   22881505.5594
   -334249.03548   -256274.78146  20178488.8914                   20178485.4384
   1623558.23448   1262336.74246  21229642.1334                   21229639.8794
  -3522330.87148  -2733857.38746  20998371.7584                   20998367.3444
   3897662.86746   3024798.59044  24160505.8754                   24160505.1214
   3260550.17647   2532634.77746  21718431.7664                   21718430.7854
  -4586251.64847  -3567758.35244  22705448.5634                   22705447.5944
 11  7 29 15 29 30.0000000  0  8G06G13G16G20G23G31G32G03
  -3552035.55547  -2746562.23444  22874826.3834                   22874825.3674
  -4591076.78147  -3564985.83244  22870687.6884                   22870685.5274
   -344111.99647   -263960.21547  20176612.0634                   20176608.5824
   1630693.29748   1267896.50846  21231000.1024                   21230997.5004
  -3567371.02048  -2768953.60246  20989800.6254                   20989796.3014
   3917835.50446   3040517.45744  24164345.3204                   24164344.1454
   3281043.52747   2548603.60546  21722331.6954                   21722330.3204
  -4643586.05947  -3612434.50444  22694537.6884                   22694537.5204
 11  7 29 15 29 45.0000000  0  8G06G13G16G20G23G31G32G03
  -3596526.40247  -2781230.41044  22866359.8204                   22866359.3444
  -4647931.85247  -3609288.48444  22859868.8134                   22859866.6954
   -353831.15648   -271533.58647  20174762.6174                   20174759.4264
   1637948.14548   1273549.61746  21232381.0394                   21232378.5354
  -3612360.10548  -2804010.03546  20981239.6564                   20981235.4024
   3937989.32446   3056221.72344  24168179.4924                   24168178.8484
   3301622.64147   2564639.25046  21726247.4774                   21726246.3754
  -4700885.64547  -3657083.51245  22683633.6644                   22683633.3404
 11  7 29 15 30  0.0000000  0  8G06G13G16G20G23G31G32G03
  -3640954.91847  -2815850.01644  22857905.3834                   22857905.0664
  -4704784.16447  -3653588.95344  22849050.5784                   22849048.7034
   -363406.95348   -278995.24647  20172940.3834                   20172937.3444
   1645322.03148   1279295.48846  21233783.7734                   21233781.4924
  -3657298.10548  -2839026.64846  20972688.3134                   20972683.7814
   3958123.99246   3071911.05944  24172012.0234                   24172010.8404
   3322287.00448   2580741.33246  21730180.1254                   21730178.7704
  -4758150.39147  -3701705.36745  22672737.1484                   22672736.5944
 11  7 29 15 30 15.0000000  0  8G06G13G16G20G23G31G32G03
  -3685319.77746  -2850420.01244  22849462.5394                   22849462.4884
  -4761632.68047  -3697886.47344  22838231.8284                   22838230.8364
   -372838.66048   -286344.62947  20171145.5164                   20171142.3714
   1652815.68848   1285134.67646  21235209.8674                   21235207.4694
  -3702183.89148  -2874002.57446  20964146.9144                   20964142.3444
   3978240.37946   3087586.14143  24175839.5004                   24175839.1054
   3343037.25047   2596910.33245  21734128.8204                   21734127.8324
  -4815378.88347  -3746299.00045  22661847.2504                   22661846.5704
 11  7 29 15 30 30.0000000  0  8G06G13G16G20G23G31G32G03
  -3729621.23047  -2884940.62144  22841032.9144                   22841032.1564
  -4818477.67247  -3742181.23844  22827414.4144                   22827413.1844
   -382126.88348   -293582.21546  20169378.1414                   20169375.1454
   1660428.19548   1291066.48046  21236658.3914                   21236656.0164
  -3747017.63748  -2908937.95346  20955615.1564                   20955610.9734
   3998338.00846   3103246.60544  24179663.9384                   24179663.3794
   3363872.55148   2613145.60546  21738093.4844                   21738092.4224
  -4872571.34447  -3790864.53544  22650962.9924                   22650963.0634
 11  7 29 15 30 45.0000000  0  8G06G13G16G20G23G31G32G03
  -3773857.97346  -2919410.79344  22832614.4224                   22832614.0164
  -4875317.93747  -3786472.32844  22816598.1884                   22816596.5354
   -391270.59848   -300707.19147  20167638.1254                   20167634.8754
   1668160.43448   1297091.57446  21238129.9844                   21238127.7664
  -3791798.16848  -2943831.87146  20947093.9844                   20947089.2584
   4018417.84846   3118893.20344  24183485.1174                   24183484.0824
   3384793.66047   2629447.74246  21742074.4224                   21742073.2384
  -4929726.39147  -3835400.91045  22640087.1954                   22640086.7664
 11  7 29 15 31  0.0000000  0  8G06G13G16G20G23G31G32G03
  -3818029.87146  -2953830.44944  22824208.9454                   22824208.5274
  -4932153.64847  -3830759.88344  22805782.9384                   22805780.9104
   -400270.50048   -307720.09846  20165925.3134                   20165922.4654
   1676011.75448   1303209.46546  21239623.9924                   21239621.9654
  -3836525.52348  -2978684.34046  20938582.4384                   20938577.7544
   4038479.53947   3134525.65644  24187302.8284                   24187301.6684
   3405799.90647   2645816.23046  21746072.1414                   21746070.9734
  -4986843.84047  -3879908.00445  22629218.3204                   22629217.4614
 11  7 29 15 31 15.0000000  0  8G06G13G16G20G23G31G32G03
  -3862137.57846  -2988200.06644  22815815.6254                   22815814.5354
  -4988985.49647  -3875044.42244  22794968.0634                   22794967.1564
   -409127.56648   -314621.71946  20164239.9304                   20164236.5944
   1683980.98048   1309419.23046  21241140.6724                   21241137.9734
  -3881200.40648  -3013495.93046  20930081.0474                   20930076.5124
   4058522.15646   3150143.25444  24191117.5164                   24191115.8164
   3426889.99247   2662250.03946  21750085.3444                   21750083.9304
  -5043924.34847  -3924386.30944  22618356.1564                   22618355.7304
 11  7 29 15 31 30.0000000  0  8G06G13G16G20G23G31G32G03
  -3906180.21946  -3022519.00844  22807434.4454                   22807433.6024
  -5045812.89547  -3919325.47744  22784154.4304                   22784152.9534
   -417841.52048   -321411.82446  20162581.8134                   20162578.4964
   1692068.34448   1315721.06346  21242679.4614                   21242677.0784
  -3925822.10248  -3048266.07846  20921589.9534                   20921585.4654
   4078546.13746   3165746.34444  24194927.2734                   24194926.3954
   3448064.09448   2678749.31645  21754114.5084                   21754113.7504
  -5100966.88747  -3968835.02345  22607501.6484                   22607500.9494
 11  7 29 15 31 45.0000000  0  8G06G13G16G20G23G31G32G03
  -3950156.62946  -3056786.32444  22799065.8444                   22799064.8834
  -5102634.67647  -3963602.14544  22773341.2974                   22773339.7344
   -426411.60548   -328089.80946  20160951.2034                   20160947.6844
   1700274.52748   1322115.46546  21244240.9614                   21244238.8714
  -3970389.35948  -3082993.80146  20913109.1024                   20913104.2504
   4098552.49246   3181335.66444  24198735.3134                   24198733.9964
   3469322.85547   2695314.56345  21758160.1564                   21758158.9414
  -5157970.12547  -4013253.10945  22596653.6884                   22596653.6804
 11  7 29 15 32  0.0000000  0  8G06G13G16G20G23G31G32G03
  -3994065.55947  -3091001.06644  22790710.2734                   22790710.0904
  -5159449.78947  -4007873.64144  22762529.3984                   22762527.9614
   -434837.14848   -334655.18046  20159347.7274                   20159344.6914
   1708600.02748   1328602.84046  21245825.7344                   21245822.6844
  -4014901.17648  -3117678.33646  20904638.9304                   20904634.2734
   4118541.83247   3196911.74244  24202538.4454                   24202537.9384
   3490666.84848   2711946.22346  21762221.7194                   21762220.5164
  -5214933.07847  -4057639.81245  22585814.0944                   22585813.7974
 11  7 29 15 32 15.0000000  0  8G06G13G16G20G23G31G32G03
  -4037908.26647  -3125164.20745  22782367.9454                   22782367.3054
  -5216259.72747  -4052141.11744  22751719.1724                   22751716.9964
   -443119.68048   -341109.10246  20157771.3914                   20157768.0634
   1717042.98848   1335181.75046  21247432.1884                   21247429.9224
  -4059358.80148  -3152320.63346  20896178.7894                   20896174.0864
   4138512.59047   3212473.35544  24206338.6254                   24206337.4654
   3512094.10947   2728642.75845  21766299.4304                   21766298.1484
  -5271857.00047  -4101996.10545  22574982.1254                   22574981.1174
 11  7 29 15 32 30.0000000  0  8G06G13G16G20G23G31G32G03
  -4081683.23447  -3159274.55544  22774037.3204                   22774037.4144
  -5273062.94547  -4096403.33245  22740909.8674                   22740908.3594
   -451258.43048   -347450.99246  20156222.8754                   20156219.5634
   1725604.46948   1341853.01246  21249061.3134                   21249058.9304
  -4103760.74248  -3186919.54346  20887729.1644                   20887724.7974
   4158466.03547   3228021.45744  24210135.5554                   24210134.7074
   3533605.57847   2745404.91845  21770392.6724                   21770391.4064
  -5328739.94147  -4146320.47345  22564157.9144                   22564156.4574
 11  7 29 15 32 45.0000000  0  8G06G13G16G20G23G31G32G03
  -4125391.36347  -3193332.82844  22765720.3284                   22765719.8524
  -5329860.66047  -4140661.26244  22730101.3284                   22730100.9384
   -459254.84048   -353681.96547  20154701.3054                   20154697.6914
   1734282.77048   1348615.30546  21250712.8524                   21250710.6564
  -4148108.01248  -3221475.85246  20879290.2584                   20879285.6294
   4178400.82047   3243555.03944  24213929.5634                   24213928.1174
   3555199.71547   2762231.50045  21774501.5314                   21774500.7894
  -5385582.97747  -4190613.73045  22553340.6804                   22553339.4694
 11  7 29 15 33  0.0000000  0  8G06G13G16G20G23G31G32G03
  -4169030.86347  -3227337.62944  22757415.2814                   22757415.2194
  -5386651.27047  -4184913.65244  22719295.1024                   22719293.3794
   -467107.54748   -359800.96547  20153206.9774                   20153203.5124
   1743079.04748   1355469.52046  21252386.6644                   21252384.0474
  -4192398.98048  -3255988.28546  20870862.1484                   20870857.1334
   4198318.23447   3259075.07044  24217720.2504                   24217719.1994
   3576877.52747   2779123.28545  21778626.9224                   21778625.9384
  -5442384.37947  -4234874.55145  22542531.9064                   22542530.6684
 11  7 29 15 33 15.0000000  0  8G06G13G16G20G23G31G32G03
  -4212601.82047  -3261289.01644  22749124.5164                   22749123.1254
  -5443434.89147  -4229160.62144  22708489.1804                   22708487.0204
   -474816.72748   -365808.12546  20151739.7274                   20151736.6724
   1751992.70748   1362415.20746  21254082.7194                   21254080.5234
  -4236633.63748  -3290456.84846  20862444.1884                   20862439.9734
   4218218.09047   3274581.43844  24221506.6884                   24221506.0824
   3598638.49648   2796079.85245  21782768.1954                   21782767.1054
  -5499143.93747  -4279102.76245  22531730.8054                   22531729.3834
 11  7 29 15 33 30.0000000  0  8G06G13G16G20G23G31G32G03
  -4256103.36747  -3295186.30144  22740846.7114                   22740845.3404
  -5500211.07047  -4273401.77344  22697684.7734                   22697682.7774
   -482382.45748   -371703.50846  20150300.4534                   20150296.6564
   1761023.88748   1369452.47346  21255801.7344                   21255799.2894
  -4280811.34448  -3324881.03546  20854037.9144                   20854033.2074
   4238100.78147   3290074.41844  24225289.8754                   24225289.1294
   3620482.77047   2813101.34045  21786924.9534                   21786923.9694
  -5555860.72347  -4323297.64545  22520937.9534                   22520937.2464
 11  7 29 15 33 45.0000000  0  8G06G13G16G20G23G31G32G03
  -4299535.32047  -3329029.38745  22732581.7114                   22732580.6454
  -5556979.48847  -4317636.88344  22686882.1724                   22686879.7584
   -489805.12947   -377487.41046  20148887.9844                   20148884.2274
   1770172.10248   1376580.93046  21257542.1644                   21257540.1604
  -4324932.04348  -3359260.79346  20845641.6804                   20845637.2274
   4257966.03947   3305553.80544  24229070.1724                   24229069.6604
   3642409.73447   2830187.26245  21791097.6254                   21791096.5514
  -5612534.63347  -4367459.12145  22510153.0474                   22510152.2974
 11  7 29 15 34  0.0000000  0  8G06G13G16G20G23G31G32G03
  -4342897.65647  -3362818.21544  22724329.8524                   22724329.3754
  -5613740.32047  -4361866.09444  22676080.9774                   22676079.6414
   -497085.10948   -383160.13747  20147502.3984                   20147499.1604
   1779436.94548   1383800.27046  21259305.4304                   21259303.0204
  -4368995.61748  -3393596.04346  20837257.2894                   20837252.6524
   4277813.69947   3321019.48844  24232847.2194                   24232846.4264
   3664418.86747   2847337.19945  21795285.5864                   21795284.7544
  -5669165.59447  -4411587.14545  22499376.6334                   22499376.1254
 11  7 29 15 34 15.0000000  0  8G06G13G16G20G23G31G32G03
  -4386190.46147  -3396552.85544  22716091.7504                   22716090.7424
  -5670493.66847  -4406089.45344  22665281.1804                   22665279.8984
   -504222.99247   -388722.12546  20146144.3364                   20146140.7034
   1788817.67648   1391109.91046  21261090.6414                   21261088.3014
  -4413002.36748  -3427887.00846  20828882.7894                   20828878.1134
   4297643.32047   3336471.12144  24236620.3444                   24236619.5554
   3686509.57047   2864550.70745  21799489.4224                   21799488.1374
  -5725753.65247  -4455681.72745  22488608.4454                   22488607.7424
 11  7 29 15 34 30.0000000  0  8G06G13G16G20G23G31G32G03
  -4429411.89147  -3430231.87944  22707867.1484                   22707866.6484
  -5727237.96547  -4450305.75044  22654482.2814                   22654481.0824
   -511217.39848   -394172.31247  20144813.0474                   20144809.6564
   1798315.55148   1398510.83646  21262897.8524                   21262895.6564
  -4456950.57048  -3462132.35946  20820519.5314                   20820515.0824
   4317456.22747   3351909.73844  24240390.8914                   24240390.1174
   3708682.83647   2881828.55545  21803708.9774                   21803707.7544
  -5782296.99647  -4499741.44945  22477848.4924                   22477848.1094
 11  7 29 15 34 45.0000000  0  8G06G13G16G20G23G31G32G03
  -4472561.51647  -3463854.94944  22699656.0944                   22699654.2424
  -5783972.77747  -4494514.67644  22643687.0234                   22643684.8364
   -518068.20748   -399510.61746  20143509.5314                   20143506.1844
   1807930.34448   1406002.86746  21264727.5704                   21264725.2934
  -4500839.53148  -3496331.55146  20812167.6644                   20812163.2814
   4337252.78547   3367335.59044  24244157.9774                   24244157.3364
   3730938.55947   2899170.64845  21807944.2664                   21807942.8674
  -5838794.93747  -4543765.80545  22467097.1174                   22467096.5554
 11  7 29 15 35  0.0000000  0  8G06G13G16G20G23G31G32G03
  -4515639.63747  -3497422.30944  22691458.2734                   22691457.2504
  -5840698.88747  -4538716.81644  22632891.7424                   22632890.3364
   -524776.42248   -404737.79746  20142232.7034                   20142229.6884
   1817661.05948   1413585.21546  21266579.3444                   21266576.8524
  -4544669.82048  -3530485.01646  20803826.7504                   20803822.7154
   4357032.05947   3382747.96944  24247922.2114                   24247922.0394
   3753275.59447   2916576.10546  21812194.4774                   21812193.9064
  -5895247.82047  -4587755.04745  22456353.9384                   22456353.7814
 11  7 29 15 35 15.0000000  0  8G06G13G16G20G23G31G32G03
  -4558647.36746  -3530934.82044  22683274.4924                   22683272.8594
  -5897417.35547  -4582913.02044  22622098.9454                   22622097.5904
   -531343.69548   -409855.16446  20140983.0634                   20140979.9534
   1827506.04748   1421256.61746  21268452.7194                   21268450.1604
  -4588442.68748  -3564593.73846  20795497.4144                   20795492.9774
   4376792.68447   3398145.81644  24251682.0634                   24251682.2424
   3775692.39847   2934043.71545  21816460.5634                   21816459.4024
  -5951656.57447  -4631709.91445  22445620.0864                   22445619.3524
 11  7 29 15 35 30.0000000  0  8G06G13G16G20G23G31G32G03
  -4601581.85246  -3564390.25445  22675103.7114                   22675102.8524
  -5954125.28947  -4627100.98444  22611307.4304                   22611306.2704
   -537767.63748   -414860.84046  20139760.7584                   20139757.4804
   1837467.69548   1429018.92246  21270348.2814                   21270346.0164
  -4632155.25848  -3598655.47746  20787179.2344                   20787174.5984
   4396537.18447   3413531.14144  24255439.4224                   24255438.7854
   3798191.20347   2951575.22345  21820741.8674                   21820740.8444
  -6008018.33647  -4675628.16045  22434894.7814                   22434894.6644
 11  7 29 15 35 45.0000000  0  8G06G13G16G20G23G31G32G03
  -4644443.65247  -3597789.04744  22666947.7814                   22666947.2424
  -6010823.53547  -4671281.42644  22600517.9534                   22600516.8134
   -544049.37548   -419755.70746  20138565.2584                   20138562.0824
   1847544.54748   1436871.00046  21272265.9614                   21272263.5904
  -4675808.33248  -3632670.85546  20778872.2114                   20778867.6844
   4416264.57447   3428903.10544  24259193.5084                   24259192.4774
   3820770.59048   2969169.52045  21825038.6484                   21825037.4734
  -6064333.94147  -4719510.43045  22424178.2974                   22424178.0594
 11  7 29 15 36  0.0000000  0  8G06G13G16G20G23G31G32G03
  -4687232.45347  -3631130.96144  22658805.8204                   22658804.9734
  -6067511.81247  -4715454.08244  22589730.9144                   22589729.7894
   -550188.84848   -424539.71147  20137397.1174                   20137393.8324
   1857736.48848   1444812.75046  21274205.4064                   21274203.2544
  -4719401.35248  -3666639.43446  20770576.7424                   20770572.0824
   4435974.93847   3444261.82444  24262944.2034                   24262943.4454
   3843430.39548   2986826.48445  21829350.6644                   21829349.3134
  -6120602.64147  -4763356.16445  22413470.4844                   22413470.5984
 11  7 29 15 36 15.0000000  0  8G06G13G16G20G23G31G32G03
  -4729946.40646  -3664414.55545  22650676.5944                   22650676.2774
  -6124188.52047  -4759617.73844  22578945.7734                   22578944.8634
   -556184.94148   -429212.00047  20136255.9304                   20136253.1454
   1868044.62548   1452845.04746  21276167.1254                   21276164.4184
  -4762932.76648  -3700560.01246  20762293.2424                   20762288.6914
   4455669.74647   3459608.39544  24266692.1024                   24266691.7664
   3866171.74647   3004547.00045  21833678.1024                   21833677.1484
  -6176822.61347  -4807163.91845  22402772.2424                   22402772.5864
 11  7 29 15 36 30.0000000  0  8G06G13G16G20G23G31G32G03
  -4772585.43746  -3697639.75844  22642563.1564                   22642562.6604
  -6180853.66447  -4803772.37545  22568162.8754                   22568161.6054
   -562038.10548   -433772.91446  20135142.4694                   20135139.0744
   1878468.36348   1460967.42646  21278150.3984                   21278148.3324
  -4806402.61348  -3734432.60946  20754021.0164                   20754016.5314
   4475348.67247   3474942.59044  24270437.1484                   24270436.8014
   3888994.16847   3022330.67645  21838021.4454                   21838019.9884
  -6232993.75847  -4850933.62545  22392082.9844                   22392083.0474
 11  7 29 15 36 45.0000000  0  8G06G13G16G20G23G31G32G03
  -4815151.00846  -3730807.72744  22634463.1254                   22634462.4804
  -6237508.83647  -4847919.25044  22557381.5234                   22557380.3594
   -567750.25448   -438223.94547  20134055.0474                   20134051.8244
   1889005.69948   1469178.32046  21280155.4454                   21280153.6454
  -4849812.38348  -3768258.39546  20745760.3134                   20745755.9694
   4495009.76247   3490262.91044  24274178.3914                   24274177.8364
   3911895.46148   3040175.81345  21842379.3984                   21842378.3364
  -6289117.58247  -4894666.46145  22381403.4144                   22381402.6024
 11  7 29 15 37  0.0000000  0  8G06G13G16G20G23G31G32G03
  -4857640.96147  -3763916.76645  22626377.4304                   22626376.7894
  -6294152.01246  -4892056.76644  22546602.4694                   22546600.9024
   -573319.78948   -442563.83646  20132995.3444                   20132992.2304
   1899658.22748   1477478.97746  21282183.1884                   21282180.3954
  -4893160.04348  -3802035.79746  20737511.4454                   20737507.1564
   4514655.07447   3505570.91844  24277916.8674                   24277916.1684
   3934877.07448   3058083.53545  21846752.9064                   21846751.5704
  -6345191.77747  -4938360.62545  22370733.2424                   22370732.0234
 11  7 29 15 37 15.0000000  0  8G06G13G16G20G23G31G32G03
  -4900055.71146  -3796967.22745  22618305.7274                   22618305.5984
  -6350783.69547  -4936185.34044  22535825.8984                   22535823.8324
   -578747.27048   -446793.04746  20131962.3524                   20131959.3954
   1910424.92248   1485868.58646  21284231.9064                   21284229.3244
  -4936445.90247  -3835765.02346  20729274.5944                   20729270.2734
   4534283.72347   3520865.96544  24281652.1884                   24281650.8834
   3957938.02048   3076053.07845  21851140.7114                   21851139.7974
  -6401216.46147  -4982016.20745  22360071.5554                   22360071.1724
 11  7 29 15 37 30.0000000  0  8G06G13G16G20G23G31G32G03
  -4942395.39846  -3829959.17644  22610248.9774                   22610248.5664
  -6407404.20347  -4980305.19944  22525051.4144                   22525049.5944
   -584033.81648   -450912.43446  20130956.5944                   20130953.2114
   1921304.91448   1494346.48446  21286302.0554                   21286299.6024
  -4979670.25048  -3869446.33646  20721048.9064                   20721044.4064
   4553895.33646   3536147.71944  24285383.3674                   24285383.0744
   3981077.48448   3094083.80945  21855543.9534                   21855543.0634
  -6457191.79747  -5025633.33645  22349420.2734                   22349419.1454
 11  7 29 15 37 45.0000000  0  8G06G13G16G20G23G31G32G03
  -4984657.93047  -3862891.00045  22602206.4844                   22602206.6294
  -6464011.76246  -5024414.97344  22514279.5554                   22514277.7814
   -589177.93048   -454920.84047  20129977.8364                   20129974.6644
   1932299.60948   1502913.77046  21288394.6484                   21288392.1764
  -5022830.99248  -3903078.07046  20712835.9924                   20712831.4574
   4573491.39846   3551417.37144  24289112.8054                   24289111.6134
   4004296.90248   3112176.84045  21859962.5704                   21859961.8594
  -6513115.84447  -5069210.49645  22338777.9844                   22338777.3324
 11  7 29 15 38  0.0000000  0  8G06G13G16G20G23G31G32G03
  -5026843.47746  -3895762.85945  22594179.4534                   22594178.8874
  -6520606.67247  -5068514.87144  22503509.5474                   22503508.1174
   -594180.03548   -458818.59046  20129025.9304                   20129022.2814
   1943408.34048   1511569.89546  21290508.1024                   21290506.1414
  -5065928.41848  -3936660.47346  20704634.6564                   20704630.4734
   4593071.60547   3566674.66044  24292838.9064                   24292836.8054
   4027595.48448   3130331.55145  21864396.2274                   21864395.1564
  -6568988.53947  -5112747.64145  22328145.3444                   22328144.8444
 11  7 29 15 38 15.0000000  0  8G06G13G16G20G23G31G32G03
  -5068951.82446  -3928574.53144  22586166.0474                   22586166.3094
  -6577188.58247  -5112604.65644  22492742.5234                   22492740.8984
   -599040.45348   -462605.93447  20128100.7814                   20128097.5784
   1954630.74248   1520314.60546  21292644.0004                   21292641.8284
  -5108962.18048  -3970193.27346  20696445.5004                   20696441.6134
   4612636.02746   3581919.64143  24296561.6414                   24296560.8284
   4050972.89148   3148547.68845  21868844.8444                   21868843.8874
  -6624809.69547  -5156244.62145  22317523.3984                   22317523.1414
 11  7 29 15 38 30.0000000  0  8G06G13G16G20G23G31G32G03
  -5110983.03547  -3961326.11745  22578167.7584                   22578167.7304
  -6633757.72747  -5156684.49244  22481977.4774                   22481975.6454
   -603760.00448   -466283.50447  20127202.7274                   20127199.4144
   1965965.89548   1529147.16846  21294800.7424                   21294798.7624
  -5151932.72348  -4003676.80946  20688268.6174                   20688264.0274
   4632183.85946   3597151.73043  24300281.3754                   24300281.0784
   4074428.17648   3166824.50845  21873308.5164                   21873307.3094
  -6680579.32047  -5199701.45345  22306910.4454                   22306910.4184
 11  7 29 15 38 45.0000000  0  8G06G13G16G20G23G31G32G03
  -5152937.50447  -3994017.89845  22570183.9304                   22570183.7974
  -6690314.55147  -5200754.72744  22471215.5234                   22471213.7234
   -608339.25848   -469851.75847  20126331.5784                   20126328.2034
   1977413.10948   1538067.05146  21296979.1954                   21296976.9964
  -5194840.35248  -4037111.31646  20680103.5784                   20680099.1484
   4651714.64146   3612370.45743  24303998.7114                   24303997.2034
   4097960.53147   3185161.39145  21877786.3054                   21877785.5234
  -6736297.65647  -5243118.33645  22296307.2814                   22296307.1954
 11  7 29 15 39  0.0000000  0  8G06G13G16G20G23G31G32G03
  -5194813.47747  -4026648.52345  22562215.8524                   22562214.7194
  -6746857.63347  -5244814.25444  22460455.4924                   22460453.5434
   -612777.24248   -473309.93047  20125486.7584                   20125483.4924
   1988973.06348   1547074.79346  21299179.0394                   21299176.7664
  -5237683.54348  -4070495.60946  20671950.7894                   20671946.3834
   4671229.44946   3627576.78943  24307712.1414                   24307710.6294
   4121570.81648   3203558.99645  21882279.0864                   21882277.9614
  -6791963.14847  -5286494.02045  22285715.3674                   22285714.2704
 11  7 29 15 39 15.0000000  0  8G06G13G16G20G23G31G32G03
  -5236610.21146  -4059217.39844  22554261.9614                   22554261.6174
  -6803386.07047  -5288862.36745  22449698.7504                   22449695.9304
   -617073.55547   -476657.71146  20124669.6414                   20124665.8984
   2000646.15647   1556170.69546  21301400.3834                   21301398.0354
  -5280461.33648  -4103828.95746  20663810.4694                   20663805.8914
   4690729.13346   3642771.32843  24311423.0004                   24311421.0474
   4145259.37548   3222017.57845  21886787.1024                   21886786.1134
  -6847574.62547  -5329827.61745  22275132.4924                   22275131.9304
 11  7 29 15 39 30.0000000  0  8G06G13G16G20G23G31G32G03
  -5278328.66446  -4091725.26245  22546322.7734                   22546322.4494
  -6859901.03547  -5332900.00045  22438944.5474                   22438942.0704
   -621229.84048   -479896.37547  20123878.2814                   20123875.1484
   2012430.80147   1565353.50846  21303642.9384                   21303640.7384
  -5323174.94548  -4137112.28546  20655682.3914                   20655677.7814
   4710212.23046   3657952.94943  24315130.0314                   24315128.5474
   4169024.37948   3240535.73445  21891309.4844                   21891307.9964
  -6903133.13747  -5373119.94545  22264559.9384                   22264559.5124
 11  7 29 15 39 45.0000000  0  8G06G13G16G20G23G31G32G03
  -5319968.24647  -4124171.68445  22538399.2274                   22538399.0234
  -6916402.14147  -5376926.79744  22428192.1724                   22428190.2154
   -625245.96548   -483025.82846  20123114.2664                   20123111.0904
   2024326.93847   1574623.21146  21305906.5554                   21305904.4614
  -5365823.78548  -4170345.14146  20647566.4694                   20647562.0904
   4729679.02046   3673121.84043  24318834.1954                   24318833.3054
   4192865.77348   3259113.41845  21895846.5004                   21895845.2734
  -6958638.05147  -5416370.51645  22253997.8054                   22253997.4384
 11  7 29 15 40  0.0000000  0  8G06G13G16G20G23G31G32G03
  -5361527.53147  -4156555.53145  22530490.9924                   22530490.8524
  -6972888.14147  -5420941.85245  22417443.6254                   22417441.2504
   -629121.01648   -486045.35546  20122376.9454                   20122373.6254
   2036335.30948   1583980.35946  21308191.6174                   21308189.7584
  -5408406.60948  -4203526.55146  20639463.1644                   20639458.4224
   4749130.49646   3688278.78543  24322536.3284                   24322535.5354
   4216784.47348   3277751.35245  21900398.2894                   21900396.9224
  -7014087.91847  -5459578.18445  22243445.7424                   22243445.3324
 11  7 29 15 40 15.0000000  0  8G06G13G16G20G23G31G32G03
  -5403007.21947  -4188877.34045  22522597.1484                   22522596.9064
  -7029359.64547  -5464945.59445  22406697.1094                   22406695.6564
   -632856.26248   -488955.94147  20121666.1094                   20121662.7234
   2048454.62947   1593423.96146  21310497.8984                   21310495.9224
  -5450923.95348  -4236656.94546  20631372.5634                   20631367.9384
   4768565.63646   3703423.05543  24326234.7504                   24326233.4804
   4240779.06648   3296448.39845  21904964.0554                   21904963.1024
  -7069483.37547  -5502743.44945  22232904.8594                   22232904.1374
 11  7 29 15 40 30.0000000  0  8G06G13G16G20G23G31G32G03
  -5444406.15647  -4221136.24645  22514719.5164                   22514719.3284
  -7085815.80147  -5508937.37945  22395953.9064                   22395952.4414
   -636450.94548   -491756.99647  20120982.0704                   20120979.0474
   2060685.34047   1602954.36346  21312825.4614                   21312823.5234
  -5493374.88348  -4269735.58646  20623294.2974                   20623290.0784
   4787985.24246   3718555.18443  24329930.3364                   24329928.6374
   4264850.06348   3315204.99645  21909544.5474                   21909543.8404
  -7124823.14847  -5545865.33645  22222373.7974                   22222372.7114
 11  7 29 15 40 45.0000000  0  8G06G13G16G20G23G31G32G03
  -3910301.52047  -3025730.02345  22806649.5164                   22806649.1134
  -5566832.79347  -4325314.23845  22685006.3914                   22685005.4494
    935514.81348    733151.37547  20420116.9534                   20420114.4344
   3648446.19947   2840170.60546  21614966.2894                   21614964.4264
  -3960336.36748  -3075160.11746  20915022.0004                   20915017.1564
   6382807.77046   4961274.03543  24633414.1024                   24633412.8594
   5864415.29347   4561619.43445  22213931.7424                   22213930.9144
  -5604683.35247  -4361340.80145  22511646.3984                   22511646.0204
 11  7 29 15 41  0.0000000  0  8G06G13G16G20G23G31G32G03
  -3951537.49247  -3057861.92645  22798803.1334                   22798802.7504
  -5623257.00847  -4369281.13744  22674269.3284                   22674267.6564
    932200.99648    730569.18847  20419486.5474                   20419483.5004
   3660899.39547   2849874.37146  21617335.9694                   21617333.8014
  -4002652.93448  -3108134.05946  20906969.5554                   20906964.7664
   6402196.86346   4976382.36743  24637103.6094                   24637102.7584
   5888638.60547   4580494.71945  22218541.2424                   22218540.0204
  -5659910.01647  -4404374.54345  22501137.2274                   22501137.0394
 11  7 29 15 41 15.0000000  0  8G06G13G16G20G23G31G32G03
  -3992691.52047  -3089930.01245  22790971.6334                   22790971.2774
  -5679664.91447  -4413235.32845  22663535.5704                   22663534.3714
    929027.15648    728096.05946  20418882.5084                   20418879.4774
   3673463.25848   2859664.37146  21619727.2504                   21619725.0004
  -4044902.11348  -3141055.49246  20898929.3204                   20898925.0354
   6421570.64846   4991478.82043  24640790.3674                   24640789.6844
   5912937.53548   4599428.92245  22223165.3674                   22223164.2664
  -5715079.57447  -4447363.79345  22490639.1484                   22490638.4224
 11  7 29 15 41 30.0000000  0  8G06G13G16G20G23G31G32G03
  -4033764.05947  -3121934.56645  22783155.9694                   22783155.0984
  -5736057.08247  -4457177.26645  22652804.5394                   22652803.1414
    925992.48848    725731.36747  20418305.2734                   20418302.2854
   3686136.94947   2869539.95746  21622138.7114                   21622136.8634
  -4087084.18048  -3173924.63346  20890902.6804                   20890898.2384
   6440928.36746   5006562.71943  24644473.5474                   24644474.0514
   5937311.06647   4618421.25045  22227803.1954                   22227802.2974
  -5770192.49247  -4490308.90645  22480151.1254                   22480150.7544
 11  7 29 15 41 45.0000000  0  8G06G13G16G20G23G31G32G03
  -4074754.96947  -3153875.51245  22775355.6884                   22775355.3094
  -5792433.47347  -4501106.90245  22642076.0084                   22642075.0084
    923096.53948    723474.79347  20417753.8134                   20417750.8484
   3698919.84848   2879500.64546  21624571.4614                   21624569.0314
  -4129199.12148  -3206741.46946  20882888.3444                   20882883.7734
   6460269.87946   5021633.99244  24648154.8984                   24648154.5474
   5961758.61748   4637471.27045  22232455.7814                   22232454.3634
  -5825248.50047  -4533209.67245  22469674.2034                   22469673.7464
 11  7 29 15 42  0.0000000  0  8G06G13G16G20G23G31G32G03
  -4115663.51247  -3185752.29345  22767571.0394                   22767570.9184
  -5848793.52347  -4545023.78945  22631351.6564                   22631349.3164
    920339.41448    721326.37547  20417229.4144                   20417226.4884
   3711811.88748   2889546.36346  21627024.7974                   21627022.2304
  -4171246.31648  -3239505.51246  20874886.9454                   20874882.5164
   6479595.54746   5036692.94143  24651832.6024                   24651832.3324
   5986280.19948   4656578.96545  22237121.9534                   22237120.8594
  -5880246.80947  -4576065.48445  22459208.4924                   22459208.3364
 11  7 29 15 42 15.0000000  0  8G06G13G16G20G23G31G32G03
  -4156490.10947  -3217565.21545  22759802.1564                   22759801.8634
  -5905137.64847  -4588928.28145  22620629.5314                   22620628.1134
    917720.35247    719285.53947  20416731.0164                   20416727.7854
   3724812.12547   2899676.40646  21629498.2194                   21629496.2974
  -4213226.07048  -3272217.00446  20866898.7034                   20866893.8054
   6498904.55146   5051738.87944  24655507.1484                   24655506.3364
   6010874.94148   4675743.66845  22241802.2894                   22241801.0394
  -5935187.58247  -4618876.44545  22448753.8284                   22448753.2234
 11  7 29 15 42 30.0000000  0  8G06G13G16G20G23G31G32G03
  -4197235.16047  -3249314.58245  22752048.2114                   22752047.6374
  -5961466.29347  -4632820.69144  22609910.5314                   22609909.3834
    915238.30548    717351.47347  20416258.6094                   20416255.6564
   3737919.79347   2909890.16046  21631993.0164                   21631990.8244
  -4255138.90648  -3304876.35246  20858922.9384                   20858918.3324
   6518196.30146   5066771.41444  24659178.9144                   24659177.2894
   6035541.68448   4694964.48845  22246495.9384                   22246495.2194
  -5990071.16047  -4661642.85545  22438310.0084                   22438308.6844
 11  7 29 15 42 45.0000000  0  8G06G13G16G20G23G31G32G03
  -4237897.54747  -3280999.54345  22744310.1724                   22744309.5824
  -6017778.59047  -4676700.38745  22599194.4144                   22599193.1724
    912893.85948    715524.62547  20415812.4924                   20415809.6054
   3751134.95747   2920187.67246  21634507.4304                   21634505.5164
  -4296983.93048  -3337482.85946  20850960.0394                   20850955.7974
   6537471.52046   5081791.01644  24662845.5164                   24662845.8364
   6060280.85948   4714241.73445  22251203.9304                   22251202.5944
  -6044896.65247  -4704364.00045  22427877.1414                   22427876.0394
 11  7 29 15 43  0.0000000  0  8G06G13G16G20G23G31G32G03
  -4278476.46147  -3312619.47344  22736588.6414                   22736587.4344
  -6074073.83247  -4720566.78945  22588482.1174                   22588480.5594
    910687.30548    713805.22747  20415392.2344                   20415389.6374
   3764458.03547   2930569.27346  21637042.7194                   21637040.6374
  -4338760.23848  -3370035.82446  20843010.2814                   20843005.6254
   6556730.77046   5096798.18044  24666511.1094                   24666510.7114
   6085092.65648   4733575.57845  22255925.6724                   22255924.3164
  -6099662.96147  -4747039.02345  22417454.6724                   22417453.5234
 11  7 29 15 43 15.0000000  0  8G06G13G16G20G23G31G32G03
  -4318971.35947  -3344173.91845  22728882.3364                   22728881.9804
  -6130351.69147  -4764419.64845  22577772.9774                   22577771.0234
    908618.53548    712193.19547  20414998.9384                   20414995.8244
   3777888.74648   2941034.74246  21639598.5864                   21639596.3524
  -4380467.55948  -3402535.03546  20835073.2894                   20835068.9534
   6575974.00046   5111792.88344  24670173.2194                   24670171.6684
   6109976.84448   4752965.82845  22260660.9454                   22260659.6214
  -6154369.59047  -4789667.56245  22407044.8984                   22407043.5234
 11  7 29 15 43 30.0000000  0  8G06G13G16G20G23G31G32G03
  -4359383.88347  -3375664.19145  22721192.3834                   22721191.5434
  -6186613.69547  -4808260.14545  22567066.3674                   22567064.5944
    906685.60548    710687.00446  20414631.1024                   20414628.1294
   3791425.12147   2951582.55546  21642174.4924                   21642172.4614
  -4422107.16048  -3434981.47746  20827149.7114                   20827145.3444
   6595199.65246   5126773.88744  24673831.8984                   24673831.2034
   6134931.42248   4772410.93445  22265409.2664                   22265407.9304
  -6209017.93447  -4832250.68045  22396645.8054                   22396643.9924
 11  7 29 15 43 45.0000000  0  8G06G13G16G20G23G31G32G03
  -4399714.55947  -3407090.68745  22713517.9224                   22713516.6994
  -6242860.53147  -4852088.81644  22556362.3524                   22556361.0864
    904887.27748    709285.70747  20414289.0784                   20414286.1524
   3805065.75847   2962211.60246  21644770.2344                   21644767.7664
  -4463679.90248  -3467375.81246  20819239.0234                   20819234.4264
   6614406.60546   5141740.32844  24677486.0704                   24677485.9454
   6159955.02347   4791909.81645  22270171.2114                   22270170.3164
  -6263608.55147  -4874788.79345  22386257.3914                   22386255.7274
 11  7 29 15 44  0.0000000  0  8G06G13G16G20G23G31G32G03
  -4439962.57847  -3438452.76645  22705858.6174                   22705858.1994
  -6299091.50847  -4895905.13744  22545662.1414                   22545660.8444
    903223.94548    707989.60247  20413972.2814                   20413969.4734
   3818810.85247   2972922.05146  21647385.9064                   21647383.8164
  -4505185.00848  -3499717.44146  20811340.3524                   20811335.8714
   6633595.49246   5156692.70744  24681138.0474                   24681137.0164
   6185047.84448   4811462.62545  22274946.4694                   22274945.2544
  -6318140.53947  -4917281.23845  22375880.2344                   22375878.9184
 11  7 29 15 44 15.0000000  0  8G06G13G16G20G23G31G32G03
  -4480128.06247  -3469750.53545  22698215.4144                   22698214.5944
  -6355306.86347  -4939709.27745  22534964.7734                   22534962.9264
    901694.88348    706798.11347  20413681.2664                   20413678.1884
   3832659.66847   2983713.30546  21650021.3984                   21650019.1724
  -4546622.57448  -3532006.44946  20803455.2424                   20803450.6954
   6652765.72746   5171630.52344  24684786.5314                   24684785.0944
   6210209.08247   4831068.75045  22279734.3594                   22279733.5274
  -6372614.06247  -4959728.12145  22365513.9534                   22365512.9494
 11  7 29 15 44 30.0000000  0  7G06G13G16G20G23G32G03
  -4520211.51246  -3500984.38345  22690587.7584                   22690587.3714
  -6411507.02047  -4983501.59845  22524270.6484                   22524268.7934
    900299.19948    705710.55947  20413416.0164                   20413412.8364
   3846611.08647   2994584.52046  21652676.1254                   21652674.1804
  -4587993.03148  -3564243.16046  20795582.5864                   20795577.9734
   6235437.61347   4850727.32845  22284534.8754                   22284534.5744
  -6427029.27047  -5002129.55945  22355159.3364                   22355158.1374
 11  7 29 15 44 45.0000000  0  7G06G13G16G20G23G32G03
  -4560211.60547  -3532153.27345  22682976.2814                   22682975.5004
  -6467690.94147  -5027281.25844  22513578.6644                   22513577.1414
    899037.40248    704727.33247  20413175.7664                   20413172.5314
   3860665.72347   3005536.17246  21655350.4614                   21655348.5274
  -4629295.42648  -3596426.84846  20787723.1484                   20787718.5354
   6260734.08648   4870438.83245  22289348.9844                   22289348.1884
  -6481385.19947  -5044484.81645  22344815.7974                   22344814.7624
 11  7 29 15 45  0.0000000  0  7G06G13G16G20G23G32G03
  -4600127.88747  -3563256.86345  22675380.1484                   22675379.3404
  -6523858.17647  -5071047.89845  22502890.2894                   22502888.6764
    897909.56648    703848.49247  20412961.2504                   20412958.2624
   3874823.46548   3016568.16046  21658044.8204                   21658042.6054
  -4670529.08648  -3628556.96146  20779876.6254                   20779872.0084
   6286098.28547   4890203.11745  22294175.2504                   22294174.7854
  -6535681.05947  -5086793.25445  22334483.1334                   22334482.9614
 11  7 29 15 45 15.0000000  0  7G06G13G16G20G23G32G03
  -4639959.10947  -3594294.16445  22667800.6254                   22667799.7584
  -6580007.44147  -5114800.56645  22492205.6334                   22492204.3714
    896916.42248    703074.61346  20412772.2894                   20412769.1994
   3889085.04347   3027681.05546  21660758.6484                   21660756.6214
  -4711692.81648  -3660632.59046  20772043.5164                   20772038.9574
   6311530.96547   4910020.74245  22299015.0944                   22299014.5634
  -6589915.48847  -5129053.84045  22324162.8834                   22324161.9414
 11  7 29 15 45 30.0000000  0  7G06G13G16G20G23G32G03
  -4679703.44947  -3625263.77045  22660237.3134                   22660236.1174
  -6636137.16847  -5158537.98445  22481524.2894                   22481522.7344
    896059.12548    702406.57847  20412608.9694                   20412605.9184
   3903451.47347   3038875.65246  21663492.6024                   21663490.4344
  -4752784.94548  -3692652.42646  20764223.7344                   20764219.3094
   6337033.19147   4929892.58645  22303868.3444                   22303867.3364
  -6644086.50847  -5171265.00445  22313854.6414                   22313853.9494
 11  7 29 15 45 45.0000000  0  7G06G13G16G20G23G32G03
  -4719362.62547  -3656167.03545  22652690.6644                   22652689.4144
  -6692249.25847  -5202261.66445  22470846.8444                   22470844.9924
    895335.38748    701842.62147  20412471.3914                   20412468.2734
   3917920.18847   3050149.95746  21666245.9144                   21666243.5514
  -4793807.30948  -3724617.89846  20756417.4454                   20756412.9774
   6362602.50447   4949816.69545  22308734.1644                   22308733.0314
  -6698195.82847  -5213428.09045  22303557.6564                   22303556.8484
 11  7 29 15 46  0.0000000  0  7G06G13G16G20G23G32G03
  -4758935.03147  -3687002.66045  22645160.3984                   22645159.5514
  -6748342.04747  -5245970.31645  22460172.9384                   22460170.6254
    894746.43848    701383.69147  20412359.4064                   20412356.3914
   3932492.44547   3061504.94146  21669018.8914                   21669016.8984
  -4834758.32848  -3756527.77346  20748624.7734                   20748620.5664
   6388239.93847   4969793.89145  22313612.2504                   22313611.4844
  -6752241.79347  -5255541.80945  22293272.9144                   22293271.9344
 11  7 29 15 46 15.0000000  0  7G06G13G16G20G23G32G03
  -4798422.32047  -3717771.95745  22637645.9454                   22637645.3134
  -6804417.29347  -5289665.30945  22449502.1724                   22449499.8054
    894290.10948    701028.10547  20412272.2664                   20412269.4184
   3947165.96547   3072938.82846  21671811.3204                   21671809.1454
  -4875639.46948  -3788383.19946  20740845.6254                   20740840.9024
   6413943.29347   4989822.44145  22318503.8284                   22318502.6884
  -6806226.03547  -5297607.44145  22283000.6094                   22282999.5904
 11  7 29 15 46 30.0000000  0  7G06G13G16G20G23G32G03
  -4837825.00447  -3748475.33245  22630148.0784                   22630147.3524
  -6860475.64147  -5333347.12545  22438834.3054                   22438832.6764
    893965.21548    700774.92647  20412210.8204                   20412207.4804
   3961939.53147   3084450.66846  21674622.4534                   21674620.7774
  -4916451.35548  -3820184.67246  20733079.2734                   20733074.8594
   6439711.26247   5009901.35245  22323407.7114                   22323406.1294
  -6860148.90247  -5339625.24245  22272738.9304                   22272738.7384
 11  7 29 15 46 45.0000000  0  7G06G13G16G20G23G32G03
  -4877143.68447  -3779113.23845  22622666.1484                   22622665.6254
  -6916517.69947  -5377016.22345  22428169.5784                   22428168.1094
    893770.60248    700623.28147  20412173.9224                   20412170.5904
   3976811.89847   3096039.50446  21677452.8674                   21677450.8014
  -4957194.68448  -3851932.70746  20725325.6254                   20725321.2384
   6465542.63347   5030029.66445  22328322.9304                   22328322.0824
  -6914010.85947  -5381595.59445  22262489.3914                   22262489.3634
 11  7 29 15 47  0.0000000  0  7G06G13G16G20G23G32G03
  -4916378.06647  -3809685.47745  22615199.9844                   22615199.7194
  -6972543.22747  -5420672.47345  22417508.7504                   22417506.5354
    893705.96948    700572.91447  20412161.6804                   20412158.1844
   3991782.76647   3107705.09046  21680301.4304                   21680299.2194
  -4997869.18748  -3883627.12546  20717585.9384                   20717580.9884
   6491437.14847   5050207.18045  22333250.6564                   22333249.4144
  -6967811.67247  -5423518.28145  22252251.2664                   22252251.2854
 11  7 29 15 47 15.0000000  0  7G06G13G16G20G23G32G03
  -4955527.98047  -3840191.88745  22607749.7734                   22607749.4614
  -7028552.15647  -5464315.77744  22406850.3364                   22406848.4884
    893771.07048    700623.63347  20412173.7034                   20412170.9264
   4006851.71147   3119447.09846  21683169.3054                   21683167.2624
  -5038474.69948  -3915267.78146  20709858.7734                   20709854.3244
   6517394.34047   5070433.53945  22338190.3984                   22338188.7814
  -7021551.10947  -5465393.16045  22242025.5394                   22242025.1054
 11  7 29 15 47 30.0000000  0  7G06G13G16G20G23G32G03
  -4994593.93047  -3870632.87545  22600316.2424                   22600315.4344
  -7084545.10947  -5507946.63745  22396195.1484                   22396193.2934
    893964.87548    700774.64547  20412210.6174                   20412207.6954
   4022017.50447   3131264.56346  21686055.2344                   21686052.7664
  -5079011.87548  -3946855.18746  20702144.9774                   20702140.2934
   6543412.83647   5090707.65245  22343141.0234                   22343140.3134
  -7075229.65247  -5507220.58245  22231810.6564                   22231810.2384
 11  7 29 15 47 45.0000000  0  7G06G13G16G20G23G32G03
  -5033575.10947  -3901007.80545  22592897.6094                   22592897.2584
  -7140521.31247  -5551564.44145  22385543.5314                   22385541.2234
    894287.62548    701026.12947  20412272.0394                   20412268.9964
   4037280.28547   3143157.61746  21688959.3364                   21688957.6294
  -5119479.85948  -3978388.67646  20694444.0944                   20694439.2814
   6569492.98447   5111029.81645  22348103.9614                   22348102.9844
  -7128846.01647  -5548999.56245  22221607.8754                   22221607.1604
 11  7 29 15 48  0.0000000  0  7G06G13G16G20G23G32G03
  -5072472.80947  -3931317.68745  22585496.0474                   22585495.4534
  -7196482.14147  -5595170.26245  22374894.4614                   22374892.4494
    894737.36748    701376.58247  20412357.7504                   20412354.3634
   4052638.20747   3155124.80946  21691882.1954                   21691880.1374
  -5159879.89148  -4009869.21946  20686756.3444                   20686751.5394
   6595632.83247   5131398.50045  22353078.8984                   22353077.3324
  -7182401.48447  -5590731.09445  22211416.5394                   22211415.8954
 11  7 29 15 48 15.0000000  0  7G06G13G16G20G23G32G03
  -5111285.52047  -3961561.33245  22578109.9534                   22578109.4024
  -7252426.20747  -5638763.02345  22364248.6254                   22364246.3754
    895315.19148    701826.83247  20412467.7974                   20412464.4534
   4068092.06347   3167166.75446  21694822.6414                   21694820.6994
  -5200210.64148  -4041295.77746  20679081.5784                   20679077.0354
   6621833.21547   5151814.35245  22358064.1724                   22358063.2814
  -7235894.67247  -5632414.08645  22201236.7344                   22201236.1644
 11  7 29 15 48 30.0000000  0  7G06G13G16G20G23G32G03
  -5150013.66447  -3991739.10545  22570740.4844                   22570739.6524
  -7308353.94147  -5682343.05945  22353605.8134                   22353603.9884
    896020.10248    702376.10547  20412601.7894                   20412598.8094
   4083640.84047   3179282.65646  21697781.6094                   21697779.4964
  -5240472.55548  -4072668.69546  20671419.7894                   20671415.5664
   6648093.06647   5172276.54745  22363061.0704                   22363060.4844
  -7289325.98847  -5674048.88345  22191069.0784                   22191068.5084
 11  7 29 15 48 45.0000000  0  7G06G13G16G20G23G32G03
  -5188657.26647  -4021850.98845  22563386.5554                   22563386.8954
  -7364265.50047  -5725910.49645  22342966.5554                   22342964.3054
    896851.47748    703023.92247  20412759.9064                   20412756.7384
   4099283.85947   3191471.98846  21700758.5084                   21700756.5594
  -5280665.51248  -4103987.87546  20663771.3594                   20663767.0084
   6674411.71147   5192784.55145  22368069.5234                   22368068.5314
  -7342695.23847  -5715635.29345  22180913.8134                   22180912.7854
 11  7 29 15 49  0.0000000  0  7G06G13G16G20G23G32G03
  -5227216.48047  -4051897.11345  22556049.1414                   22556049.2154
  -7420160.97747  -5769465.38745  22332329.8594                   22332327.0944
    897808.62148    703769.74647  20412942.3054                   20412939.1914
   4115020.26647   3203734.10246  21703752.8444                   21703750.9494
  -5320789.79748  -4135253.54346  20656135.9924                   20656131.4844
   6700788.43847   5213337.81345  22373089.1414                   22373087.8714
  -7396002.41047  -5757173.34845  22170769.5944                   22170768.8754
 11  7 29 15 49 15.0000000  0  7G06G13G16G20G23G32G03
  -5265690.98447  -4081877.23045  22548727.7274                   22548727.2074
  -7476040.28147  -5813007.70345  22321696.2114                   22321694.2894
    898891.35548    704613.43447  20413148.1254                   20413145.3054
   4130849.84447   3216068.81346  21706765.5634                   21706763.3874
  -5360845.27748  -4166465.60946  20648513.8284                   20648509.4104
   6727222.86348   5233936.03545  22378119.2664                   22378118.3754
  -7449247.18447  -5798662.76245  22160637.3054                   22160636.6994
 11  7 29 15 49 30.0000000  0  7G06G13G16G20G23G32G03
  -5304079.62547  -4111790.44145  22541422.6644                   22541421.9534
  -7531902.28147  -5856536.51245  22311065.6564                   22311064.1804
    900100.22348    705555.41046  20413378.0394                   20413375.2624
   4146772.94947   3228476.41046  21709795.4534                   21709793.1094
  -5400830.77048  -4197623.13346  20640904.4534                   20640900.1644
   6753715.38348   5254579.52345  22383160.6024                   22383159.7074
  -7502428.48847  -5840102.74245  22150517.3594                   22150516.6094
 11  7 29 15 49 45.0000000  0  7G06G13G16G20G23G32G03
  -5342382.84047  -4141637.09445  22534133.6094                   22534133.1684
  -7587747.41847  -5900052.19145  22300439.0004                   22300437.4534
    901434.43447    706595.04747  20413631.7894                   20413628.9224
   4162788.64847   3240956.14846  21712842.7424                   21712841.1254
  -5440746.57048  -4228726.35246  20633309.3524                   20633304.4774
   6780264.99247   5275267.50045  22388212.6644                   22388211.6564
  -7555546.50847  -5881493.39145  22140409.0704                   22140408.0164
 11  7 29 15 50  0.0000000  0  7G06G13G16G20G23G32G03
  -5380600.15647  -4171416.78945  22526861.2974                   22526860.5904
  -7643575.38347  -5943554.46145  22289815.0234                   22289813.6294
    902893.64848    707732.09447  20413909.6884                   20413906.7704
   4178896.77747   3253507.91045  21715908.5084                   21715906.4414
  -5480592.40648  -4259775.05146  20625726.8674                   20625722.0704
   6806871.57047   5295999.86345  22393276.3134                   22393275.2544
  -7608600.87947  -5922834.44545  22130313.2734                   22130312.4774
 11  7 29 15 50 15.0000000  0  7G06G13G16G20G23G32G03
  -5418730.90247  -4201129.05145  22519605.5784                   22519604.6484
  -7699385.46547  -5987042.82845  22279194.8754                   22279193.0664
    904478.11347    708966.73447  20414211.0554                   20414208.0044
   4195097.45747   3266131.78946  21718991.3204                   21718989.4654
  -5520367.46948  -4290768.60546  20618157.5314                   20618153.3984
   6833535.22747   5316776.71145  22398350.1724                   22398348.8754
  -7661590.51247  -5964125.05945  22120229.8594                   22120228.7344
 11  7 29 15 50 30.0000000  0  7G06G13G16G20G23G32G03
  -5456775.68047  -4230774.30945  22512365.5314                   22512364.9924
  -7755178.46147  -6030517.87145  22268577.7274                   22268575.8484
    906186.71947    710298.10947  20414536.0944                   20414533.4024
   4211389.36347   3278826.76646  21722091.8364                   21722089.6374
  -5560072.54748  -4321707.61746  20610601.9774                   20610597.5704
   6860254.63347   5337596.99245  22403434.5314                   22403433.7734
  -7714516.06647  -6005365.74645  22110158.6724                   22110157.1294
 11  7 29 15 50 45.0000000  0  7G06G13G16G20G23G32G03
  -5494734.51647  -4260352.61745  22505142.0944                   22505141.5864
  -7810954.55947  -6073979.73045  22257963.7034                   22257962.0824
    908018.70348    711725.62947  20414884.9384                   20414881.8484
   4227771.69147   3291592.19545  21725209.0004                   21725206.7384
  -5599707.77748  -4352592.21146  20603059.6334                   20603055.2734
   6887028.96547   5358460.07045  22408529.7814                   22408528.9734
  -7767377.57847  -6046556.52045  22100098.8754                   22100098.3444
 11  7 29 15 51  0.0000000  0  7G06G13G16G20G23G32G03
  -5532607.53147  -4289864.04345  22497935.1174                   22497934.5004
  -7866713.46547  -6117428.21145  22247353.2194                   22247351.6214
    909973.49248    713248.84047  20415256.7584                   20415253.8484
   4244243.85547   3304427.62146  21728343.4384                   21728341.7194
  -5639273.02348  -4383422.26646  20595530.6724                   20595526.5944
   6913857.66847   5379365.53145  22413634.9774                   22413633.9304
  -7820174.84047  -6087697.24245  22090052.2034                   22090051.3364
 11  7 29 15 51 15.0000000  0  7G06G13G16G20G23G32G03
  -5570392.93447  -4319307.19945  22490744.5634                   22490743.8204
  -7922453.61747  -6160862.06645  22236746.4064                   22236744.9414
    912052.39848    714868.75846  20415652.6174                   20415649.5234
   4260806.99247   3317333.93446  21731495.4774                   21731493.4344
  -5678766.69148  -4414196.55146  20588015.3364                   20588010.9414
   6940741.88347   5400314.23045  22418750.4614                   22418750.0164
  -7872906.12547  -6128786.54745  22080017.6884                   22080016.6214
 11  7 29 15 51 30.0000000  0  8G06G13G16G20G23G19G32G03
  -5608092.59047  -4348683.53945  22483569.9694                   22483569.7154
  -7978177.20347  -6204283.01245  22226142.4224                   22226140.6914
    914252.90248    716583.43447  20416071.2424                   20416068.3834
   4277458.33247   3330308.97746  21734664.3674                   21734662.3554
  -5718190.72748  -4444916.57046  20580513.2344                   20580508.7664
   2975720.89156   2329590.50053  24262910.8524                   24262909.4494
   6967679.01647   5421304.16845  22423877.1954                   22423876.0944
  -7925573.26647  -6169825.87145  22069995.7734                   22069994.5394
 11  7 29 15 51 45.0000000  0  8G06G13G16G20G23G19G32G03
  -5645706.81247  -4377993.30945  22476412.9224                   22476412.0864
  -8033884.41047  -6247691.19545  22215541.5944                   22215540.6884
    916574.28948    718392.29747  20416513.0704                   20416510.0084
   4294197.19147   3343352.22346  21737849.5704                   21737847.1564
  -5757545.20348  -4475582.38346  20573024.4924                   20573019.8284
   2915327.61746   2282530.83243  24251418.5394                   24251417.5594
   6994668.28547   5442334.73445  22429013.0084                   22429011.6764
  -7978176.10547  -6210815.08645  22059985.6724                   22059984.6644
 11  7 29 15 52  0.0000000  0  8G06G13G16G20G23G19G32G03
  -5683236.65647  -4407237.33645  22469271.3834                   22469270.8164
  -8089576.45347  -6291087.56645  22204943.6334                   22204942.0124
    919014.78948    720293.98446  20416977.1954                   20416974.1954
   4311021.83647   3356462.31645  21741050.5164                   21741049.0864
  -5796831.36348  -4506194.97746  20565548.1254                   20565543.7774
   2854904.76246   2235448.11343  24239919.4614                   24239919.0554
   7021707.80147   5463404.44545  22434157.8594                   22434157.0514
  -8030716.01247  -6251755.26245  22049987.2114                   22049986.1454
 11  7 29 15 52 15.0000000  0  8G06G13G16G20G23G19G32G03
  -5720681.41047  -4436415.04745  22462145.7734                   22462145.0984
  -8145252.34847  -6334471.36345  22194349.0394                   22194346.9104
    921574.61748    722288.64547  20417464.7194                   20417461.4304
   4327932.37147   3369639.34445  21744268.9304                   21744266.9574
  -5836048.57848  -4536753.83646  20558085.7274                   20558081.1564
   2794452.90646   2188342.79343  24228415.8914                   24228415.0664
   7048797.66047   5484513.41045  22439313.3754                   22439312.4144
  -8083192.07847  -6292645.69145  22040001.5474                   22040000.7974
 11  7 29 15 52 30.0000000  0  8G06G13G16G20G23G19G32G03
  -5758041.36347  -4465526.70345  22455036.2114                   22455035.3054
  -8200912.69147  -6377843.05145  22183757.2424                   22183755.2154
    924252.91848    724375.62147  20417974.0784                   20417971.3284
   4344927.81347   3382882.52046  21747503.4064                   21747501.1374
  -5875197.11348  -4567259.18746  20550635.7194                   20550630.8984
   2733972.00046   2141214.82043  24216906.5164                   24216906.1684
   7075936.85247   5505660.79345  22444477.6804                   22444476.4534
  -8135604.45347  -6333486.49245  22030027.7664                   22030026.8984
 11  7 29 15 52 45.0000000  0  8G06G13G16G20G23G19G32G03
  -5795315.14547  -4494571.19545  22447943.8444                   22447942.4654
  -8256556.20347  -6421201.59845  22173168.5944                   22173166.8754
    927050.58248    726555.61746  20418506.6804                   20418503.6524
   4362008.87147   3396192.41446  21750753.7734                   21750751.8244
  -5914275.69148  -4597710.01646  20543199.3914                   20543194.7664
   2673463.35546   2094065.32043  24205392.6644                   24205392.1454
   7103126.31647   5526847.35945  22449651.6254                   22449650.5704
  -8187951.51247  -6374276.39545  22020066.4064                   22020065.9384
 11  7 29 15 53  0.0000000  0  8G06G13G16G20G23G19G32G03
  -5832501.67647  -4523547.71945  22440867.1414                   22440866.3284
  -8312181.71147  -6464546.14145  22162583.7194                   22162581.8594
    929968.07048    728828.97347  20419062.1564                   20419058.7544
   4379176.00447   3409569.37946  21754020.2114                   21754018.1724
  -5953283.11348  -4628105.40246  20535776.3594                   20535771.9924
   2612928.23046   2046895.11743  24193873.2734                   24193871.9844
   7130366.45347   5548073.40245  22454835.6334                   22454834.9454
  -8240232.26647  -6415014.62545  22010118.0234                   22010117.3794
 11  7 29 15 53 15.0000000  0  8G06G13G16G20G23G19G32G03
  -5869599.52747  -4552455.12545  22433807.4924                   22433806.4264
  -8367787.85547  -6507875.58245  22152002.0864                   22152000.4454
    933006.18048    731196.32447  20419640.0084                   20419636.7734
   4396430.02047   3423014.04746  21757303.7344                   21757301.4804
  -5992218.03148  -4658444.29746  20528367.3674                   20528362.8244
   2552367.92246   1999705.26643  24182347.9304                   24182347.6764
   7157658.02747   5569339.52345  22460028.7814                   22460028.0554
  -8292445.18747  -6455700.01645  22000181.7894                   22000180.8754
 11  7 29 15 53 30.0000000  0  9G06G13G16G20G23G19G32G03G07
  -5906609.20347  -4581293.82845  22426764.8674                   22426763.3954
  -8423375.17247  -6551190.35245  22141423.4924                   22141422.3094
    936164.03948    733656.99647  20420240.9144                   20420238.0084
   4413769.74647   3436525.50445  21760603.2894                   21760601.3094
  -6031080.91848  -4688727.05546  20520972.0084                   20520967.1374
   2491782.03946   1952495.52743  24170818.8364                   24170818.2384
   7184999.89547   5590644.84845  22465231.7664                   22465230.4774
  -8344590.79747  -6496332.95745  21990259.5634                   21990258.1524
   3017988.90256   2355460.25454  24499144.8984                   24499145.9264
 11  7 29 15 53 45.0000000  0  9G06G13G16G20G23G19G32G03G07
  -5943531.67247  -4610064.58245  22419739.1954                   22419737.9614
  -8478944.84847  -6594491.37545  22130849.4694                   22130847.7424
    939440.00048    736209.67646  20420864.2504                   20420861.3014
   4431193.46147   3450102.39845  21763919.1334                   21763917.1954
  -6069872.97748  -4718954.62946  20513590.4384                   20513585.7344
   2431169.69146   1905265.17243  24159285.2034                   24159283.8244
   7212390.45347   5611988.10545  22470443.7114                   22470443.4104
  -8396669.75447  -6536913.93745  21980348.6484                   21980347.8284
   2972287.42247   2319848.72344  24490448.7894                   24490449.1414
 11  7 29 15 54  0.0000000  0  9G06G13G16G20G23G19G32G03G07
  -5980366.77047  -4638767.24245  22412729.1644                   22412727.9414
  -8534496.55947  -6637778.42245  22120278.5314                   22120276.6844
    942833.89848    738854.27346  20421510.0864                   20421507.2624
   4448700.92247   3463744.55146  21767251.0084                   21767248.7584
  -6108593.86348  -4749126.74646  20506221.9384                   20506216.9304
   2370531.24646   1858014.45344  24147746.6724                   24147744.5634
   7239829.17647   5633368.89145  22475665.2584                   22475664.7544
  -8448681.91847  -6577442.87945  21970450.7974                   21970450.2934
   2926587.16847   2284238.14544  24481752.1414                   24481752.6524
 11  7 29 15 54 15.0000000  0  9G06G13G16G20G23G19G32G03G07
  -6017112.18447  -4667400.03145  22405737.1644                   22405736.1884
  -8590028.10947  -6681049.73845  22109710.7894                   22109709.1764
    946347.14147    741591.85247  20422178.7894                   20422175.9454
   4466293.72347   3477453.21145  21770598.4454                   21770596.4614
  -6147241.24648  -4779241.59446  20498867.5004                   20498863.0554
   2309868.89147   1810745.11744  24136203.0164                   24136200.6414
   7267317.83247   5654788.59045  22480896.1884                   22480895.6524
  -8500624.98047  -6617917.99245  21960566.7194                   21960565.5634
   2880889.86346   2248629.91044  24473055.2274                   24473056.5044
 11  7 29 15 54 30.0000000  0  9G06G13G16G20G23G19G32G03G07
  -6053769.05147  -4695963.81645  22398761.4614                   22398760.3284
  -8645540.85947  -6724306.41045  22099147.0394                   22099144.9064
    949978.06348    744421.14146  20422869.3054                   20422866.6414
   4483970.00847   3491226.91445  21773962.0394                   21773959.9304
  -6185816.48848  -4809300.22346  20491527.0084                   20491522.2774
   2249181.46946   1763456.22744  24124654.3594                   24124653.4494
   7294854.54347   5676245.73045  22486136.4304                   22486135.5704
  -8552500.04347  -6658340.10945  21950695.0554                   21950694.3054
   2835194.32046   2213022.99644  24464361.3204                   24464360.6804
 11  7 29 15 54 45.0000000  0  9G06G13G16G20G23G19G32G03G07
  -6090336.60947  -4724458.02345  22391802.8914                   22391801.3244
  -8701033.88347  -6767547.72345  22088587.6024                   22088585.1804
    953726.96148    747342.34847  20423583.1414                   20423580.1294
   4501729.95747   3505065.81345  21777341.8364                   21777339.9104
  -6224318.75048  -4839301.98046  20484200.3284                   20484195.7304
   2188469.80146   1716148.46544  24113101.6884                   24113099.9534
   7322439.44947   5697740.43045  22491385.6484                   22491385.0514
  -8604306.02047  -6698708.38745  21940837.2664                   21940835.8204
   2789500.81346   2177417.67244  24455665.1254                   24455666.0004
 11  7 29 15 55  0.0000000  0  9G06G13G16G20G23G19G32G03G07
  -6126813.07047  -4752881.22345  22384861.3054                   22384860.3554
  -8756505.56247  -6810772.39145  22078031.5394                   22078029.0944
    957595.24648    750356.59046  20424319.0784                   20424316.2734
   4519574.87547   3518970.92645  21780737.4844                   21780735.7814
  -6262745.94148  -4869245.24246  20476887.7344                   20476883.3444
   2127735.94947   1668823.41444  24101544.3054                   24101542.4224
   7350073.92647   5719273.75045  22496644.6804                   22496643.2544
  -8656041.00447  -6739021.35545  21930991.9774                   21930990.8914
   2743810.91846   2141815.17244  24446970.5944                   24446971.2814
 11  7 29 15 55 15.0000000  0  9G06G13G16G20G23G19G32G03G07
  -6163197.02047  -4781232.34045  22377937.4614                   22377936.8634
  -8811954.32447  -6853979.21145  22067479.7734                   22067478.0904
    961583.50048    753464.31347  20425077.9844                   20425075.0704
   4537505.34047   3532942.69145  21784149.5474                   21784147.5434
  -6301096.98448  -4899129.17646  20469589.8054                   20469585.2584
   2066981.21547   1621482.09844  24089983.0474                   24089981.4654
   7377758.58247   5740846.18045  22501912.6724                   22501911.7154
  -8707703.36347  -6779277.71545  21921161.0164                   21921160.2344
   2698125.46546   2106216.14844  24438277.5554                   24438277.1994
 11  7 29 15 55 30.0000000  0  9G06G13G16G20G23G19G32G03G07
  -6199487.80947  -4809510.86745  22371032.0634                   22371031.0314
  -8867379.46947  -6897167.62145  22056933.2034                   22056930.9964
    965692.02748    756665.75446  20425859.9694                   20425856.9184
   4555521.39847   3546981.15645  21787577.9454                   21787576.1644
  -6339371.16448  -4928953.20746  20462306.6804                   20462301.8634
   2006206.44947   1574125.18844  24078417.6564                   24078416.3014
   7405493.48447   5762457.76645  22507190.3204                   22507189.7464
  -8759292.54347  -6819477.05545  21911343.8914                   21911343.2584
   2652444.97346   2070620.94544  24429584.6414                   24429585.0044
 11  7 29 15 55 45.0000000  0  9G06G13G16G20G23G19G32G03G07
  -6235684.31647  -4837715.92645  22364144.3914                   22364143.0784
  -8922780.10247  -6940336.92645  22046390.1724                   22046388.6764
    969921.36748    759961.33646  20426664.5314                   20426661.3404
   4573623.50047   3561086.66846  21791022.5864                   21791020.7584
  -6377567.41448  -4958716.51246  20455037.8134                   20455033.1844
   1945412.64547   1526753.39844  24066849.7894                   24066847.9734
   7433279.03947   5784108.80545  22512478.0314                   22512476.7234
  -8810807.25447  -6859618.39845  21901540.7034                   21901540.0744
   2606770.06646   2035030.12544  24420892.1884                   24420893.6644
 11  7 29 15 56  0.0000000  0  9G06G13G16G20G23G19G32G03G07
  -6271785.07047  -4865846.37545  22357274.0554                   22357273.5664
  -8978154.79347  -6983486.01645  22035852.6724                   22035850.9264
    974272.32848    763351.69947  20427492.3594                   20427489.4924
   4591812.37547   3575259.79745  21794483.9534                   21794481.8094
  -6415684.33248  -4988418.01246  20447784.5784                   20447779.8054
   1884601.38347   1479368.03944  24055277.0394                   24055276.0864
   7461115.93047   5805799.86345  22517775.1174                   22517774.1524
  -8862246.21947  -6899700.69145  21891752.4304                   21891751.5474
   2561101.88746   1999444.53144  24412202.7034                   24412203.0314
 11  7 29 15 56 15.0000000  0  9G06G13G16G20G23G19G32G03G07
  -6307789.78547  -4893901.98445  22350422.6254                   22350421.7704
  -9033503.01647  -7026614.50045  22025320.4614                   22025318.0354
    978744.75048    766836.69947  20428343.7344                   20428340.6804
   4610087.99247   3589500.51645  21797961.4614                   21797959.8834
  -6453721.43048  -5018057.31246  20440546.2814                   20440541.6644
   1823773.18847   1431969.47744  24043701.6724                   24043700.6724
   7489004.23047   5827530.97345  22523081.9844                   22523081.3594
  -8913608.73447  -6939723.42245  21881978.4064                   21881977.7384
   2515440.48846   1963864.25444  24403512.8754                   24403513.0784
 11  7 29 15 56 30.0000000  0  9G06G13G16G20G23G19G32G03G07
  -6343697.86747  -4921882.28145  22343589.5314                   22343588.7894
  -9088824.57447  -7069722.18445  22014793.0784                   22014791.0084
    983338.64848    770416.34846  20429217.8914                   20429214.8244
   4628450.06347   3603808.60545  21801455.6254                   21801454.1174
  -6491678.33248  -5047634.11746  20433323.1954                   20433318.3554
   1762928.48047   1384558.05144  24032123.4614                   24032122.5824
   7516943.66846   5849301.91445  22528398.8914                   22528398.2344
  -8964894.09447  -6979686.04345  21872218.8364                   21872217.8094
   2469785.90646   1928289.29344  24394825.3134                   24394825.4774
 11  7 29 15 56 45.0000000  0  9G06G13G16G20G23G19G32G03G07
  -6379508.30147  -4949786.51645  22336775.2814                   22336774.5084
  -9144118.48047  -7112808.33245  22004271.1564                   22004269.1954
    988054.63748    774091.14546  20430115.3754                   20430112.3594
   4646899.09048   3618184.44945  21804966.7114                   21804964.6604
  -6529553.92648  -5077147.56246  20426115.9694                   20426111.3874
   1702068.57446   1337134.78544  24020541.8134                   24020541.0354
   7544934.64846   5871113.04345  22533725.4774                   22533724.5234
  -9016101.17647  -7019587.64545  21862474.6414                   21862473.8404
   2424138.87546   1892720.17244  24386138.9774                   24386139.3914
 11  7 29 15 57  0.0000000  0  9G06G13G16G20G23G19G32G03G07
  -6415220.60547  -4977614.26245  22329979.1174                   22329978.6844
  -9199383.96147  -7155872.31645  21993754.2194                   21993752.5634
    992892.39848    777860.82446  20431035.7504                   20431033.0824
   4665434.98847   3632627.98445  21808493.8444                   21808492.2504
  -6567347.71148  -5106597.26646  20418924.0164                   20418919.3324
   1641193.99247   1289700.06344  24008957.9534                   24008956.8874
   7572977.17647   5892964.32445  22539061.5634                   22539060.9454
  -9067229.39147  -7059427.79345  21852745.2194                   21852744.0864
   2378499.54746   1857157.10244  24377453.9774                   24377454.9104
 11  7 29 15 57 15.0000000  0  9G06G13G16G20G23G19G32G03G07
  -6450834.83247  -5005365.60245  22323201.9614                   22323201.8794
  -9254621.36747  -7198914.44545  21983242.7584                   21983240.6374
    997850.80548    781724.51646  20431979.0004                   20431976.6564
   4684056.78947   3647138.44945  21812037.7344                   21812035.3674
  -6605059.99248  -5135983.45746  20411747.6094                   20411742.8554
   1580304.42247   1242253.68444  23997371.2344                   23997369.9184
   7601070.11747   5914854.89145  22544407.6644                   22544407.1334
  -9118278.93747  -7099206.65245  21843031.0084                   21843029.9964
   2332867.36746   1821599.57444  24368770.6094                   24368770.3554
 11  7 29 15 57 30.0000000  0  9G06G13G16G20G23G19G32G03G07
  -6486350.66847  -5033040.26245  22316443.6174                   22316443.2854
  -9309830.22347  -7241934.31645  21972737.2664                   21972735.5084
   1002930.40648    785682.63346  20432945.9304                   20432943.4844
   4702764.37547   3661715.77745  21815597.7894                   21815595.3444
  -6642690.14148  -5165305.65246  20404586.5634                   20404582.1914
   1519400.47746   1194796.08244  23985781.0474                   23985779.8554
   7629213.61747   5936784.84845  22549762.7974                   22549762.6564
  -9169249.25047  -7138923.75445  21833331.3524                   21833330.4494
   2287242.51246   1786047.73443  24360088.4774                   24360088.1564
 11  7 29 15 57 45.0000000  0  9G06G13G16G20G23G19G32G03G07
  -6521766.65647  -5060637.12545  22309704.3364                   22309703.3554
  -9365009.14547  -7284930.85945  21962236.6094                   21962235.0474
   1008131.91848    789735.75446  20433936.0314                   20433933.0474
   4721558.55547   3676360.57045  21819173.7664                   21819171.6764
  -6680236.85548  -5194562.82446  20397441.8054                   20397436.9574
   1458483.77746   1147328.56644  23974189.6884                   23974188.3324
   7657408.38347   5958754.75845  22555128.8204                   22555127.9344
  -9220138.70747  -7178577.86345  21823647.7424                   21823646.6094
   2241626.07046   1750502.44143  24351408.2034                   24351408.0514
 11  7 29 15 58  0.0000000  0  9G06G13G16G20G23G19G32G03G07
  -6557082.37947  -5088155.85245  22302983.8984                   22302982.8594
  -9420157.83247  -7327903.84045  21951742.2734                   21951740.2974
   1013455.19948    793883.75046  20434948.9304                   20434946.3404
   4740438.99247   3691072.57446  21822766.8054                   21822765.0314
  -6717699.81248  -5223754.73846  20390312.7734                   20390308.1724
   1397554.74646   1099851.43044  23962595.4614                   23962593.5354
   7685654.17247   5980764.42645  22560503.3834                   22560503.2384
  -9270946.68747  -7218168.47745  21813979.0004                   21813978.4734
   2196017.93846   1714963.67643  24342728.4384                   24342729.2934
 11  7 29 15 58 15.0000000  0  9G06G13G16G20G23G19G32G03G07
  -6592295.75847  -5115594.83245  22296283.3594                   22296281.8554
  -9475274.04747  -7370851.53545  21941254.0554                   21941252.4534
   1018901.87148    798127.89846  20435985.5234                   20435982.5664
   4759407.23047   3705852.99645  21826376.1564                   21826374.4804
  -6755076.73448  -5252879.60546  20383200.2664                   20383196.2034
   1336615.57846   1052366.40644  23950998.7424                   23950996.8244
   7713952.53547   6002815.06345  22565888.5784                   22565887.6684
  -9321671.18047  -7257694.03945  21804326.4774                   21804325.6414
   2150420.05946   1679432.86343  24334051.9844                   24334052.3914
 11  7 29 15 58 30.0000000  0  9G06G13G16G20G23G19G32G03G07
  -6627408.27047  -5142955.21945  22289601.2274                   22289600.1884
  -9530359.28147  -7413775.07845  21930771.9614                   21930770.0634
   1024469.69548    802466.45746  20437044.6884                   20437041.8754
   4778461.22747   3720700.23445  21830001.9844                   21830000.1454
  -6792369.14148  -5281938.61746  20376103.8054                   20376099.3094
   1275664.79346   1004872.32444  23939399.8204                   23939398.1024
   7742301.27347   6024904.94145  22571283.1254                   22571282.5394
  -9372313.68047  -7297155.70345  21794689.8674                   21794688.9144
   2104830.47346   1643908.54743  24325375.8524                   24325376.6134
 11  7 29 15 58 45.0000000  0  9G06G13G16G20G23G19G32G03G07
  -6662419.34847  -5170236.57445  22282939.1644                   22282938.4454
  -9585413.13747  -7456674.16845  21920295.2734                   21920293.2974
   1030158.78148    806899.50046  20438127.4924                   20438124.3484
   4797600.79747   3735614.16445  21833644.6334                   21833642.4184
  -6829576.57848  -5310931.43046  20369023.5784                   20369018.8244
   1214703.25046    957369.85944  23927799.1174                   23927797.1564
   7770700.33647   6047034.04745  22576687.3754                   22576686.6844
  -9422873.34447  -7336552.84045  21785068.5004                   21785067.5824
   2059249.51646   1608390.91043  24316702.7504                   24316702.2154
 11  7 29 15 59  0.0000000  0  9G06G13G16G20G23G19G32G03G07
  -6697328.99247  -5197438.88345  22276295.7894                   22276295.3554
  -9640435.54747  -7499548.75045  21909824.8444                   21909823.2814
   1035968.51648    811426.55146  20439232.8524                   20439230.1884
   4816825.33247   3750594.30145  21837302.8674                   21837300.9694
  -6866698.96148  -5339857.96146  20361959.2034                   20361954.4414
   1153730.78546    909858.91043  23916196.1094                   23916194.4804
   7799149.11347   6069201.87945  22582100.7664                   22582100.6994
  -9473350.04747  -7375885.32045  21775463.3914                   21775462.0664
   2013676.84046   1572879.77743  24308030.3284                   24308030.2974
 11  7 29 15 59 15.0000000  0  9G06G13G16G20G23G19G32G03G07
  -6732136.60947  -5224561.68445  22269671.8054                   22269671.8594
  -9695425.90647  -7542398.35945  21899360.6254                   21899358.3284
   1041899.06648    816047.75047  20440361.6024                   20440358.5744
   4836134.98047   3765640.75445  21840977.6094                   21840975.3484
  -6903735.71548  -5368717.75846  20354911.3284                   20354906.6294
   1092748.32846    862340.13344  23904592.2894                   23904590.4224
   7827647.66447   6091408.50045  22587524.3594                   22587523.9304
  -9523743.03547  -7415152.56645  21765874.1484                   21765872.9144
   1968112.69146   1537375.26243  24299360.3134                   24299360.3324
 11  7 29 15 59 30.0000000  0  9G06G13G16G20G23G19G32G03G07
  -6766841.44147  -5251604.39145  22263068.2894                   22263066.9414
  -9750383.41847  -7585222.37945  21888902.5394                   21888900.9454
   1047950.52748    820763.16847  20441513.1094                   20441510.1214
   4855529.60547   3780753.42645  21844667.7894                   21844665.8914
  -6940686.17248  -5397510.32846  20347879.9844                   20347875.2114
   1031756.47746    814814.03543  23892985.5864                   23892984.4344
   7856196.04347   6113653.94545  22592956.5314                   22592956.2194
  -9574051.51647  -7454353.95745  21756300.2734                   21756299.2424
   1922557.43846   1501877.71943  24290691.2194                   24290691.3284
 11  7 29 15 59 45.0000000  0  9G06G13G16G20G23G19G32G03G07
  -6801443.83247  -5278567.28945  22256483.2584                   22256482.3324
  -9805308.56647  -7628021.18045  21878450.1724                   21878448.5274
   1054121.98848    825572.09046  20442687.5864                   20442684.7304
   4875008.23047   3795931.54745  21848374.5234                   21848372.8404
  -6977550.48848  -5426235.76646  20340864.8834                   20340860.3634
    970755.12946    767280.56644  23881377.3204                   23881376.3204
   7884793.29747   6135937.48845  22598398.7734                   22598397.6804
  -9624275.72747  -7493489.69145  21746742.9304                   21746742.2074
   1877010.47345   1466386.59843  24282022.5554                   24282023.7274
 11  7 29 16  0  0.0000000  0  9G06G13G16G20G23G19G32G03G07
  -6835943.40247  -5305450.05945  22249918.4844                   22249917.4414
  -9860201.00047  -7670794.48045  21868004.6804                   21868002.8524
   1060413.09448    830474.24246  20443884.4224                   20443881.8524
   4894570.72747   3811175.01645  21852097.2194                   21852095.2854
  -7014328.37948  -5454893.85946  20333866.5784                   20333861.8554
    909744.57446    719739.88744  23869767.8444                   23869766.0084
   7913439.05947   6158258.82445  22603849.8914                   22603849.4104
  -9674415.15647  -7532559.36345  21737201.7114                   21737200.7504
   1831471.66846   1430901.77743  24273358.0474                   24273358.1684
 11  7 29 16  0 15.0000000  0  9G06G13G16G20G23G19G32G03G07
  -6870340.44547  -5332252.94145  22243372.7034                   22243371.8404
  -9915060.90647  -7713542.44545  21857565.0474                   21857563.4494
   1066823.27048    835469.17646  20445104.2504                   20445101.7034
   4914216.21947   3826483.17645  21855835.7194                   21855834.2114
  -7051020.22748  -5483484.90646  20326883.7424                   20326879.3714
    848724.68446    672191.96944  23858155.9614                   23858154.2934
   7942132.62547   6180617.40245  22609310.1334                   22609309.8984
  -9724469.87147  -7571563.02045  21727676.3674                   21727675.2814
   1785940.35246   1395422.89543  24264693.4534                   24264693.9614
 11  7 29 16  0 30.0000000  0  9G06G13G16G20G23G19G32G03G07
  -6904634.82047  -5358975.81645  22236846.8284                   22236845.6994
  -9969888.14847  -7756264.95745  21847132.1024                   21847130.0864
   1073352.09848    840556.55546  20446347.0004                   20446344.0904
   4933944.16047   3841855.55945  21859589.6564                   21859588.2424
  -7087625.85248  -5512008.76646  20319918.0004                   20319913.6644
    787695.72346    624636.95744  23846541.9304                   23846540.5704
   7970873.43047   6203012.78945  22614779.0704                   22614778.7504
  -9774439.66847  -7610500.50045  21718167.7974                   21718166.0554
   1740416.50046   1359949.77043  24256030.6484                   24256030.7934
 11  7 29 16  0 45.0000000  0  9G06G13G16G20G23G19G32G03G07
  -6938825.40247  -5385617.81645  22230340.4844                   22230339.0474
 -10024681.79347  -7798961.27745  21836704.9304                   21836703.7424
   1079999.95348    845736.70346  20447611.7974                   20447609.2974
   4953754.98447   3857292.53145  21863359.6334                   21863358.1564
  -7124144.14148  -5540464.57446  20312968.9224                   20312964.5004
    726658.74646    577075.69144  23834927.4304                   23834925.3834
   7999661.91447   6225445.34445  22620257.6094                   22620257.2274
  -9824323.45348  -7649370.96945  21708675.0084                   21708674.3014
   1694900.80546   1324482.95743  24247369.4924                   24247369.6644
 11  7 29 16  1  0.0000000  0  9G06G13G16G20G23G19G32G03G07
  -6972911.77747  -5412178.62545  22223853.8674                   22223852.9414
 -10079441.39847  -7841631.06645  21826284.8204                   21826282.6804
   1086766.91048    851009.64146  20448899.7424                   20448896.7664
   4973648.46947   3872793.91845  21867145.5864                   21867143.6334
  -7160574.77748  -5568852.08646  20306036.5084                   20306031.7344
    665614.44146    529508.70744  23823311.5394                   23823308.4884
   8028498.00447   6247914.98445  22625744.5704                   22625744.1844
  -9874120.78547  -7688174.07845  21699198.9924                   21699197.6374
   1649393.22346   1289022.52043  24238709.4924                   24238710.0744
 11  7 29 16  1 15.0000000  0  9G06G13G16G20G23G19G32G03G07
  -7006894.84847  -5438658.92245  22217386.9064                   22217386.6174
 -10134167.47747  -7884274.76245  21815870.5314                   21815869.0944
   1093651.68048    856374.39146  20450210.0234                   20450207.0164
   4993623.27747   3888358.68445  21870946.4774                   21870944.5474
  -7196918.19948  -5597171.64146  20299120.6414                   20299115.7934
    604561.98046    481935.37944  23811693.1334                   23811691.0664
   8057380.20347   6270420.56345  22631241.4144                   22631240.5704
  -9923832.12547  -7726910.16845  21689739.3364                   21689737.7974
   1603892.81646   1253567.68043  24230050.5784                   24230051.6334
 11  7 29 16  1 30.0000000  0  9G06G13G16G20G23G19G32G03G07
  -7040774.89547  -5465058.94945  22210939.7974                   22210938.7344
 -10188860.58247  -7926892.75045  21805463.1484                   21805461.1334
   1100652.96148    861829.92646  20451542.3284                   20451539.3524
   5013678.33247   3903985.97345  21874762.7584                   21874760.8674
  -7233175.03148  -5625423.71546  20292221.0474                   20292216.5554
    543501.16446    434355.54743  23800073.5634                   23800071.4184
   8086307.51247   6292961.27745  22636746.2734                   22636745.3404
  -9973457.83647  -7765579.53945  21680295.9774                   21680294.8954
   1558398.98046   1218117.94543  24221393.5704                   24221394.2074
 11  7 29 16  1 45.0000000  0  9G06G13G16G20G23G19G32G03G07
  -7074552.19547  -5491378.91445  22204512.4064                   22204511.2704
 -10243520.99247  -7969485.26245  21795061.1804                   21795059.6954
   1107770.09448    867375.74246  20452896.6644                   20452893.6644
   5033812.68447   3919675.05545  21878594.2664                   21878592.3874
  -7269345.59448  -5653608.57046  20285338.0634                   20285333.5204
    482431.81646    386769.05544  23788452.1724                   23788450.5554
   8115279.07847   6315536.48445  22642258.3984                   22642258.2074
 -10022998.10547  -7804182.32845  21670868.2664                   21670867.4064
   1512910.86346   1182672.67643  24212738.1644                   24212738.1374
 11  7 29 16  2  0.0000000  0  9G06G13G16G20G23G19G32G03G07
  -7108226.41447  -5517618.55945  22198104.7034                   22198103.7114
 -10298148.37948  -8012052.03545  21784665.7584                   21784664.2344
   1115002.77048    873011.58246  20454272.5944                   20454269.9414
   5054026.03947   3935425.69545  21882440.5554                   21882439.1294
  -7305429.43048  -5681725.84046  20278471.4694                   20278467.2734
    421354.36346    339176.27044  23776829.0704                   23776827.9654
   8144294.60247   6338145.94145  22647780.2894                   22647779.7274
 -10072452.45347  -7842718.17645  21661457.6334                   21661456.5354
   1467428.62946   1147232.03143  24204082.9924                   24204083.4884
 11  7 29 16  2 15.0000000  0  9G06G13G16G20G23G19G32G03G07
  -7141797.54747  -5543777.86345  22191715.6884                   22191714.8134
 -10352742.45747  -8054592.85245  21774276.8834                   21774275.6414
   1122350.57048    878737.13346  20455670.9384                   20455668.4694
   5074317.94147   3951237.54345  21886301.8444                   21886300.4694
  -7341426.65248  -5709775.63346  20271621.5474                   20271616.9304
    360269.07046    291577.37944  23765205.7584                   23765204.3754
   8173353.53547   6360789.23445  22653310.2034                   22653309.5824
 -10121820.73047  -7881186.95345  21652063.1724                   21652061.7734
   1421952.03946   1111795.77043  24195427.7734                   24195429.6094
 11  7 29 16  2 30.0000000  0  9G06G13G16G20G23G19G32G03G07
  -7175265.08647  -5569856.44945  22185347.2974                   22185346.0944
 -10407302.93448  -8097107.49645  21763894.6954                   21763893.2074
   1129813.46948    884552.37146  20457090.9454                   20457088.4654
   5094688.27047   3967110.49245  21890178.4064                   21890176.5744
  -7377336.42248  -5737757.26246  20264787.8674                   20264783.3954
    299176.44147    243972.75044  23753580.3834                   23753578.4224
   8202455.79347   6383466.27345  22658848.1724                   22658848.2814
 -10171102.19548  -7919588.08245  21642685.2424                   21642684.1994
   1376481.10946   1076363.90243  24186775.4614                   24186776.2114
 11  7 29 16  2 45.0000000  0  9G06G13G16G20G23G19G32G03G07
  -7208629.66047  -5595854.81645  22178998.4224                   22178997.9264
 -10461830.66048  -8139596.61345  21753518.4064                   21753516.3954
   1137390.21148    890456.31646  20458532.8134                   20458530.4924
   5115135.53147   3983043.41045  21894069.4774                   21894067.9384
  -7413159.59448  -5765671.42246  20257971.1884                   20257966.9574
    238075.84847    196361.92644  23741952.7894                   23741951.2664
   8231599.96547   6406175.96945  22664394.1024                   22664394.2234
 -10220297.51647  -7957922.07045  21633323.6954                   21633322.1214
   1331014.81646   1040935.68443  24178123.4924                   24178124.7114
 11  7 29 16  3  0.0000000  0  9G06G13G16G20G23G19G32G03G07
  -7241890.63347  -5621772.44545  22172669.0234                   22172667.9454
 -10516324.72748  -8182059.51645  21743148.5314                   21743146.8244
   1145080.88748    896449.03946  20459996.3524                   20459993.7154
   5135659.87947   3999036.37145  21897974.5554                   21897973.4414
  -7448895.61348  -5793517.67246  20251170.9534                   20251166.3484
    176968.07047    148745.50444  23730324.8834                   23730322.6054
   8260786.24247   6428918.50445  22669947.7974                   22669947.5394
 -10269405.84848  -7996188.29745  21623978.5474                   21623977.3984
   1285553.69946   1005511.43443  24169472.8594                   24169473.3794
 11  7 29 16  3 15.0000000  0  9G06G13G16G20G23G19G32G03G07
  -7275046.86747  -5647608.45745  22166359.2194                   22166358.0744
 -10570783.61748  -8224494.98845  21732785.2814                   21732783.6094
   1152886.25048    902531.13346  20461481.6414                   20461479.0744
   5156261.90247   4015089.85945  21901895.2974                   21901893.3714
  -7484543.15648  -5821294.98046  20244387.4454                   20244382.9494
    115854.44147    101124.50844  23718695.2034                   23718693.1294
   8290015.12547   6451694.20745  22675510.1954                   22675509.9734
 -10318426.11748  -8034385.88745  21614650.0704                   21614648.9694
   1240098.43846    970091.75443  24160823.6724                   24160824.0274
 11  7 29 16  3 30.0000000  0  9G06G13G16G20G23G19G32G03G07
  -7308099.64147  -5673363.86345  22160069.8284                   22160068.4574
 -10625208.88348  -8266904.26645  21722428.4304                   21722426.4614
   1160804.33248    908701.05146  20462988.3754                   20462985.5704
   5176939.59447   4031202.33245  21905830.3364                   21905828.8204
  -7520103.55548  -5849004.37546  20237620.3284                   20237615.7664
     54733.75046     53498.02344  23707064.1564                   23707062.3524
   8319284.78947   6474501.69545  22681080.4614                   22681079.9184
 -10367359.28947  -8072515.60545  21605338.4144                   21605337.2704
   1194647.27746    934675.30543  24152174.7504                   24152174.6334
 11  7 29 16  3 45.0000000  0  9G06G13G16G20G23G19G32G03G07
  -7341048.87947  -5699038.57845  22153799.3134                   22153799.1374
 -10679600.85247  -8309287.60545  21712078.0704                   21712075.6724
   1168834.54748    914958.35246  20464516.8524                   20464513.8054
   5197692.41447   4047373.32045  21909779.6254                   21909778.1134
  -7555576.82048  -5876645.87946  20230870.1954                   20230866.0434
     -6393.82446      5866.15244  23695431.9064                   23695429.9494
   8348594.48047   6497340.37944  22686657.7734                   22686657.0044
 -10416205.34447  -8110577.46145  21596043.4454                   21596042.7114
   1149200.24246    899262.06344  24143525.1804                   24143525.8674
 11  7 29 16  4  0.0000000  0  9G06G13G16G20G23G19G32G03G07
  -7373893.99247  -5724632.16445  22147549.3444                   22147548.4774
 -10733958.63348  -8351644.29745  21701733.6724                   21701732.5904
   1176977.19148    921303.25446  20466066.1564                   20466063.4024
   5218520.34047   4063602.84845  21913743.0314                   21913741.2814
  -7590962.28948  -5904218.96946  20224136.4614                   20224131.8014
    -67527.51646    -41770.45744  23683798.6334                   23683796.8244
   8377944.34447   6520210.35945  22692242.8054                   22692242.3444
 -10464963.42247  -8148570.75045  21586765.1174                   21586764.2704
   1103757.51246    863852.17644  24134878.2194                   24134879.2304
 11  7 29 16  4 15.0000000  0  9G06G13G16G20G23G19G32G03G07
  -7406634.18447  -5750143.99245  22141319.3524                   22141317.9414
 -10788281.48447  -8393973.77045  21691396.5944                   21691395.0554
   1185232.48848    927735.94146  20467637.4694                   20467634.1024
   5239423.66847   4079891.13345  21917721.1414                   21917719.1804
  -7626259.12948  -5931722.99646  20217419.6484                   20217415.1994
   -128666.57046    -89411.22344  23672163.5554                   23672161.9884
   8407334.61747   6543111.82445  22697835.3754                   22697835.0514
 -10513632.70747  -8186494.85945  21577503.5314                   21577502.5634
   1058319.39546    828445.87944  24126231.8364                   24126232.2934
 11  7 29 16  4 30.0000000  0  9G06G13G16G20G23G19G32G03G07
  -7439269.49647  -5775574.10245  22135108.8594                   22135107.6374
 -10842569.31648  -8436275.96145  21681066.0394                   21681063.8594
   1193599.57448    934255.73446  20469229.3754                   20469226.3634
   5260401.66447   4096237.60245  21921712.5634                   21921710.9064
  -7661467.23048  -5959157.87946  20210719.7114                   20210715.2544
   -189810.73846   -137056.00444  23660528.2584                   23660525.6724
   8436764.73447   6566044.34445  22703435.6644                   22703435.4964
 -10562212.94947  -8224349.57445  21568258.8134                   21568258.4804
   1012885.68846    793043.02044  24117585.9844                   24117586.5354
 11  7 29 16  4 45.0000000  0  9G06G13G16G20G23G19G32G03G07
  -7471799.75847  -5800922.35245  22128918.3524                   22128917.5784
 -10896821.91848  -8478550.71145  21670742.0704                   21670740.2704
   1202078.11748    940862.38346  20470842.6484                   20470839.8754
   5281453.86747   4112641.88745  21925719.0554                   21925717.0904
  -7696586.47748  -5986523.52046  20204036.8984                   20204032.2774
   -250959.78146   -184704.60544  23648892.2974                   23648889.6214
   8466234.18047   6589007.50445  22709044.1024                   22709043.6334
 -10610703.87547  -8262134.69145  21559031.5314                   21559030.4844
    967456.22746    757643.46144  24108940.8444                   24108941.4614
 11  7 29 16  5  0.0000000  0  9G06G13G16G20G23G19G32G03G07
  -7504224.45347  -5826188.33645  22122747.9534                   22122747.3914
 -10951038.80547  -8520797.61745  21660424.8984                   21660423.1524
   1210668.02048    947555.79746  20472477.4224                   20472474.6484
   5302580.08247   4129103.84045  21929738.9454                   21929737.4104
  -7731616.36348  -6013819.53546  20197370.9144                   20197366.4574
   -312113.14146   -232356.53944  23637254.7504                   23637253.5394
   8495742.64147   6612001.06645  22714658.8594                   22714659.0234
 -10659104.89547  -8299849.76245  21549820.9774                   21549820.0554
    922031.11346    722247.27744  24100296.9144                   24100297.1724
 11  7 29 16  5 15.0000000  0  9G06G13G16G20G23G19G32G03G07
  -7536543.51647  -5851372.01245  22116598.0314                   22116597.0124
 -11005219.71547  -8563016.50045  21650114.2814                   21650112.4414
   1219368.98048    954335.75446  20474133.2114                   20474130.4884
   5323779.75447   4145623.03545  21933773.4534                   21933771.5944
  -7766556.96948  -6041045.97346  20190722.0634                   20190717.1804
   -373270.65246   -280011.71944  23625617.0084                   23625615.2234
   8525289.76247   6635024.75045  22720281.7274                   22720281.7734
 -10707415.87548  -8337494.66845  21540627.7734                   21540626.9454
    876610.18846    686854.41444  24091652.9454                   24091653.6334
 11  7 29 16  5 30.0000000  0  9G06G13G16G20G23G19G32G03G07
  -7568756.02047  -5876472.67245  22110468.8204                   22110467.1684
 -11059363.87148  -8605206.73845  21639811.3984                   21639808.9184
   1228181.34848    961202.52746  20475810.2424                   20475807.4534
   5345053.07447   4162199.62145  21937821.5554                   21937819.8284
  -7801407.32848  -6068202.09846  20184090.0084                   20184085.6054
   -434431.31646   -327669.34444  23613978.7894                   23613977.0594
   8554875.87947   6658078.83645  22725911.5784                   22725911.8594
 -10755635.80147  -8375068.62145  21531451.8134                   21531450.6254
    831193.97746    651465.16044  24083011.4534                   24083011.7384
 11  7 29 16  5 45.0000000  0  9G06G13G16G20G23G19G32G03G07
  -7600862.57447  -5901490.75045  22104359.1644                   22104357.6254
 -11113471.84047  -8647368.77045  21629514.5864                   21629512.7734
   1237103.94948    968155.18846  20477508.1024                   20477505.5784
   5366399.09047   4178832.85545  21941883.4454                   21941882.1174
  -7836167.86748  -6095288.22746  20177475.4064                   20177470.6564
   -495595.73446   -375329.89544  23602339.6884                   23602337.4304
   8584499.82847   6681162.37945  22731549.2344                   22731548.9384
 -10803765.14548  -8412571.99645  21522293.1724                   21522292.0554
    785781.56646    616078.90244  24074370.0004                   24074370.1024
 11  7 29 16  6  0.0000000  0  9G06G13G16G20G23G19G32G03G07
  -7632861.52047  -5926424.98845  22098269.2194                   22098268.7774
 -11167541.95347  -8689501.31645  21619225.1644                   21619223.9734
   1246137.82448    975194.55546  20479227.2114                   20479224.3094
   5387818.73847   4195523.45745  21945959.5004                   21945958.1334
  -7870836.96148  -6122303.10946  20170878.1094                   20170873.6414
   -556761.82446   -422991.76244  23590700.1954                   23590698.3244
   8614162.58247   6704276.18045  22737193.4774                   22737194.1174
 -10851802.24647  -8450003.48845  21513151.8984                   21513150.4614
    740374.34846    580696.66844  24065728.7034                   24065729.2934
 11  7 29 16  6 15.0000000  0  9G06G13G16G20G23G19G32G03G07
  -7664752.85947  -5951275.37545  22092200.7114                   22092199.2384
 -11221574.01647  -8731604.20345  21608943.5004                   21608941.2584
   1255282.55548    982320.31346  20480967.1564                   20480964.3834
   5409311.50847   4212271.03545  21950049.4384                   21950048.0904
  -7905414.63748  -6149246.75446  20164297.9534                   20164293.3794
   -617929.31646   -470654.69544  23579059.9844                   23579058.3524
   8643863.75047   6727419.89145  22742845.6024                   22742845.7384
 -10899746.80147  -8487362.87545  21504028.2584                   21504027.1994
    694972.15646    545318.35944  24057089.0784                   24057088.9804
 11  7 29 16  6 30.0000000  0  9G06G13G16G20G23G19G32G03G07
  -7696535.61347  -5976041.16045  22086152.5474                   22086150.8204
 -11275567.22347  -8773676.82045  21598668.7664                   21598667.2544
   1264538.39148    989532.64546  20482728.5394                   20482725.7114
   5430877.55547   4229075.70345  21954153.7504                   21954152.0944
  -7939899.78548  -6176118.29346  20157735.7114                   20157731.1724
   -679097.44946   -518318.12544  23567420.4224                   23567418.2734
   8673603.30547   6750593.53144  22748504.7734                   22748504.6644
 -10947597.89147  -8524649.42246  21494922.9614                   21494922.1454
    649575.44146    509944.34044  24048450.3914                   24048449.8984
 11  7 29 16  6 45.0000000  0  9G06G13G16G20G23G19G32G03G07
  -7728209.90247  -6000722.42245  22080125.5164                   22080123.6724
 -11329521.53947  -8815719.14145  21588402.0084                   21588400.0394
   1273904.80548    996831.13346  20484511.3524                   20484508.3404
   5452516.35947   4245937.08645  21958270.9774                   21958269.4344
  -7974292.57448  -6202917.87146  20151191.1254                   20151186.2934
   -740266.10246   -565982.00844  23555780.1094                   23555778.2274
   8703380.72747   6773796.67644  22754171.8754                   22754171.7544
 -10995355.34448  -8561863.01246  21485834.7504                   21485833.9024
    604183.89546    474574.32444  24039812.7504                   24039812.5274
 11  7 29 16  7  0.0000000  0  9G06G13G16G20G23G19G32G03G07
  -7759775.77047  -6025319.18045  22074118.3674                   22074117.2544
 -11383436.91847  -8857731.10945  21578142.0944                   21578140.2664
   1283381.17648   1004215.30146  20486314.2814                   20486311.4104
   5474227.23047   4262854.61345  21962402.7424                   21962401.0354
  -8008593.05948  -6229645.52046  20144664.0474                   20144659.2814
   -801435.10246   -613646.11744  23544139.8444                   23544138.5164
   8733195.66847   6797029.04344  22759844.7974                   22759844.9694
 -11043019.01647  -8599003.52745  21476764.4844                   21476763.8954
    558797.13346    439208.05544  24031175.8204                   24031176.0124
 11  7 29 16  7 15.0000000  0  9G06G13G16G20G23G19G32G03G07
  -7791232.10947  -6049830.60545  22068132.4384                   22068131.2074
 -11437312.28947  -8899711.90245  21567889.9614                   21567888.1994
   1292968.10548   1011685.62946  20488138.7344                   20488135.6564
   5496010.54347   4279828.59045  21966547.8984                   21966546.3714
  -8042800.11348  -6256300.36346  20138154.8914                   20138149.9224
   -862603.37546   -661309.69944  23532500.2734                   23532498.0554
   8763048.34447   6820290.83244  22765525.6484                   22765525.8054
 -11090587.82048  -8636070.12145  21467712.6334                   21467711.9104
    513415.86346    403846.05944  24022539.8364                   24022540.0474
 11  7 29 16  7 30.0000000  0  9G06G13G16G20G23G19G32G03G07
  -7822579.73447  -6074257.31645  22062167.1174                   22062166.1884
 -11491148.45348  -8941662.14845  21557645.3364                   21557643.4534
   1302664.44148   1019241.20746  20489983.8834                   20489981.0084
   5517864.79747   4296857.85245  21970706.6174                   21970705.1134
  -8076914.50448  -6282883.01246  20131662.7974                   20131658.4414
   -923771.71546   -708973.32044  23520860.3834                   23520857.9454
   8792937.39147   6843580.94544  22771212.8134                   22771213.2194
 -11138062.44947  -8673063.32445  21458678.0944                   21458677.7304
    468039.08646    368487.54344  24013904.4924                   24013904.7464
 11  7 29 16  7 45.0000000  0  9G06G13G16G20G23G19G32G03G07
  -7853816.52747  -6098597.66845  22056222.8204                   22056222.2544
 -11544943.21548  -8983580.13345  21547408.2974                   21547406.6174
   1312471.26248   1026882.87146  20491849.9774                   20491847.2114
   5539791.45347   4313943.53145  21974879.3204                   21974877.6724
  -8110934.19948  -6309391.86346  20125188.9384                   20125184.3364
   -984937.66846   -756635.06244  23509220.6564                   23509218.7114
   8822864.41047   6866900.65244  22776908.7584                   22776908.2194
 -11185440.71147  -8709981.44145  21449662.5944                   21449661.6564
    422668.55146    333133.89144  24005271.1954                   24005270.9414
 11  7 29 16  8  0.0000000  0  9G06G13G16G20G23G19G32G03G07
  -7884942.94147  -6122851.98845  22050299.9924                   22050298.8484
 -11598696.93747  -9025466.13345  21537179.6334                   21537177.3954
   1322387.73048   1034609.96946  20493737.4064                   20493734.4104
   5561789.72747   4331085.02045  21979065.3674                   21979063.8594
  -8144859.41048  -6335827.10246  20118733.0784                   20118728.8094
  -1046101.46146   -804295.11744  23497581.3284                   23497579.7074
   8852828.28147   6890249.08644  22782610.3444                   22782610.1254
 -11232722.75847  -8746824.59845  21440665.4694                   21440664.4804
    377303.43446    297784.47744  23996637.9844                   23996638.8054
 11  7 29 16  8 15.0000000  0  9G06G13G16G20G23G19G32G03G07
  -6340536.05547  -4919418.05145  22344190.8524                   22344189.7934
 -10076985.18748  -7839716.71545  21826751.6484                   21826749.7734
   2907833.47748   2270022.23046  20795437.7344                   20795434.5234
   7159278.28947   5575881.26645  22283057.4774                   22283056.2034
  -6603267.16048  -5134586.37946  20412088.6884                   20412084.0904
    468161.66046    375650.19544  23785736.0704                   23785734.4144
  10458247.18047   8141224.79344  23088112.0004                   23088111.5204
  -9704484.55948  -7555989.62145  21731478.8204                   21731477.9694
   1907367.43446   1490042.17244  24287799.8284                   24287800.2704
 11  7 29 16  8 30.0000000  0  9G06G13G16G20G23G19G32G03G07
  -6371439.86747  -4943498.92645  22338309.6884                   22338309.1454
 -10130654.87948  -7881537.24245  21816538.5004                   21816536.7584
   2917969.68048   2277920.55946  20797366.1174                   20797363.4734
   7181419.56647   5593134.17645  22287270.8134                   22287269.3634
  -6637001.58648  -5160872.94946  20405669.0164                   20405664.7194
    407004.37546    327995.20344  23774098.2424                   23774096.5354
  10488284.91447   8164630.78544  23093827.5004                   23093827.1804
  -9751571.95348  -7592681.09046  21722518.8914                   21722517.3834
   1862014.50846   1454702.26244  24279169.3524                   24279170.0434
 11  7 29 16  8 45.0000000  0  9G06G13G16G20G23G19G32G03G07
  -6402231.46547  -4967492.37545  22332450.5864                   22332449.6914
 -10184281.68048  -7923324.33645  21806333.7814                   21806332.1414
   2928215.82048   2285904.55546  20799316.3204                   20799313.1604
   7203632.39147   5610442.84445  22291497.6254                   22291496.0474
  -6670639.73448  -5187084.49646  20399267.9064                   20399263.6214
    345851.49646    280343.63744  23762461.3204                   23762459.2974
  10518359.67247   8188065.60544  23099551.0704                   23099549.8054
  -9798560.90647  -7629295.85245  21713577.3754                   21713575.9774
   1816668.00846   1419367.33644  24270539.8524                   24270540.6484
 11  7 29 16  9  0.0000000  0  9G06G13G16G20G23G19G32G03G07
  -6432909.91847  -4991397.63745  22326612.5004                   22326611.3364
 -10237864.64548  -7965077.28945  21796137.4384                   21796135.5124
   2938572.14548   2293974.41046  20801286.8674                   20801283.9844
   7225917.07847   5627807.49645  22295738.3984                   22295737.3794
  -6704180.69548  -5213220.30146  20392885.4224                   20392881.0634
    284703.86346    232696.16044  23750825.6024                   23750822.4734
  10548471.62947   8211529.43444  23105281.0944                   23105280.4064
  -9845450.43747  -7665833.14146  21704653.8914                   21704653.4184
   1771328.46946   1384037.85944  24261912.2274                   24261912.4924
 11  7 29 16  9 15.0000000  0  9G06G13G16G20G23G19G32G03G07
  -6463475.24247  -5015214.76245  22320796.3674                   22320795.1254
 -10291403.62148  -8006795.96545  21785949.1414                   21785947.3634
   2949038.25848   2302129.81346  20803278.2734                   20803275.5944
   7248272.96947   5645227.64145  22299992.4844                   22299990.8634
  -6737624.29348  -5239280.25046  20386521.2814                   20386516.9884
    223561.84446    185053.05544  23739190.0944                   23739188.6214
  10578620.43047   8235021.95744  23111018.4064                   23111017.4104
  -9892240.45347  -7702292.87545  21695750.5474                   21695749.6994
   1725995.64846   1348713.61744  24253285.3284                   24253286.1644
 11  7 29 16  9 30.0000000  0  9G06G13G16G20G23G19G32G03G07
  -6493926.89847  -5038943.31645  22315001.4304                   22315000.8364
 -10344898.03948  -8048479.92245  21775769.6954                   21775767.6374
   2959614.14148   2310370.75046  20805291.1174                   20805288.3954
   7270699.88747   5662703.13745  22304260.3834                   22304258.7584
  -6770970.03548  -5265263.94546  20380175.4844                   20380171.6054
    162426.01646    137414.78144  23727556.7424                   23727554.6954
  10608805.83647   8258543.01644  23116762.1954                   23116761.5784
  -9938930.40647  -7738674.64545  21686865.6884                   21686864.7274
   1680669.83646   1313394.82844  24244660.3754                   24244660.9384
 11  7 29 16  9 45.0000000  0  9G06G13G16G20G23G19G32G03G07
  -6524264.31247  -5062582.84045  22309228.6094                   22309227.3284
 -10398347.21148  -8090128.60945  21765598.2894                   21765596.8134
   2970299.77048   2318697.19546  20807324.4774                   20807321.5204
   7293197.97347   5680234.08245  22308541.4534                   22308539.9804
  -6804217.34048  -5291170.93446  20373849.0474                   20373844.6724
    101297.16446     89781.94944  23715924.0634                   23715922.7704
  10639027.89147   8282092.61744  23122513.3364                   23122512.9264
  -9985519.23047  -7774977.61746  21678000.2034                   21677999.3524
   1635351.34046   1278081.73044  24236037.1334                   24236036.5704
 11  7 29 16 10  0.0000000  0  9G06G13G16G20G23G19G32G03G07
  -6554486.88747  -5086132.89145  22303477.1884                   22303476.0394
 -10451750.43748  -8131741.50445  21755436.1724                   21755434.3984
   2981095.09848   2327109.12546  20809378.6484                   20809375.5704
   7315767.07847   5697820.35945  22312836.4774                   22312835.0204
  -6837365.48448  -5317000.65246  20367541.3914                   20367536.6414
     40175.98446     42155.07844  23704293.3444                   23704291.3834
  10669286.56347   8305670.76645  23128271.5394                   23128271.4574
 -10032006.49647  -7811201.45746  21669154.1334                   21669152.8244
   1590040.43846   1242774.56344  24227413.9694                   24227414.0044
 11  7 29 16 10 15.0000000  0  9G06G13G16G20G23G19G32G03G07
  -6584595.19147  -5109593.89545  22297747.9224                   22297746.5274
 -10505108.27748  -8173319.03545  21745282.5314                   21745279.9924
   2991999.23848   2335605.85246  20811453.7894                   20811450.8754
   7338406.26247   5715461.25045  22317144.4774                   22317143.2304
  -6870415.14848  -5342753.64146  20361252.2814                   20361247.5204
    -20938.12146     -5466.29344  23692663.1954                   23692661.7854
  10699580.87947   8329276.68844  23134036.0944                   23134036.0664
 -10078392.57847  -7847346.43746  21660327.0004                   21660325.9804
   1544736.32446   1207472.68044  24218793.1724                   24218793.1484
 11  7 29 16 10 30.0000000  0  9G06G13G16G20G23G19G32G03G07
  -6614588.80547  -5132965.53545  22292039.9614                   22292039.4734
 -10558420.35548  -8214860.90645  21735137.1724                   21735135.4494
   3003011.95748   2344187.17646  20813549.2734                   20813546.6414
   7361115.09047   5733156.40645  22321466.0784                   22321464.2814
  -6903366.01648  -5368429.63747  20354981.9304                   20354977.0314
    -82044.34047    -53081.51644  23681035.2974                   23681033.7504
  10729910.56647   8352910.16044  23139807.9924                   23139807.6414
 -10124676.84847  -7883412.09445  21651519.1564                   21651518.4694
   1499439.01246   1172176.07844  24210173.8914                   24210173.4804
 11  7 29 16 10 45.0000000  0  9G06G13G16G20G23G19G32G03G07
  -6644467.58247  -5156247.68745  22286354.4144                   22286353.8444
 -10611686.33648  -8256366.85545  21725000.9924                   21724999.6994
   3014132.99648   2352852.90646  20815666.0394                   20815662.9184
   7383893.25047   5750905.59445  22325800.9614                   22325798.8874
  -6936217.60548  -5394028.27047  20348730.2344                   20348725.8054
   -143142.23047   -100690.23044  23669409.1254                   23669407.2774
  10760275.22747   8376570.87944  23145585.7974                   23145586.2304
 -10170859.18747  -7919398.32446  21642730.7424                   21642730.0554
   1454148.50046   1136884.78144  24201555.4304                   24201555.1254
 11  7 29 16 11  0.0000000  0  9G06G13G16G20G23G19G32G03G07
  -6674230.33647  -5179439.43045  22280690.8444                   22280689.8634
 -10664905.27048  -8297836.13745  21714874.2344                   21714872.0634
   3025362.66048   2361603.28946  20817802.3754                   20817799.8444
   7406741.08247   5768709.07445  22330148.1094                   22330146.5084
  -6968968.90648  -5419548.76647  20342497.8054                   20342493.5664
   -204230.87147   -148291.73044  23657784.4144                   23657781.9184
  10790675.21947   8400259.14544  23151371.1884                   23151371.1294
 -10216938.23847  -7955304.07445  21633962.3204                   21633961.4184
   1408865.45745   1101599.34044  24192937.3204                   24192938.5784
 11  7 29 16 11 15.0000000  0  9G06G13G16G20G23G19G32G03G07
  -6703877.96947  -5202541.46945  22275048.7114                   22275047.5554
 -10718077.66448  -8339269.16045  21704755.5554                   21704753.3634
   3036699.59048   2370437.24646  20819960.1804                   20819956.9804
   7429657.30947   5786565.84045  22334509.0554                   22334507.4224
  -7001620.55948  -5444991.60947  20336284.6484                   20336280.1684
   -265310.69547   -195886.37944  23646160.6724                   23646158.6844
  10821109.39847   8423974.04344  23157162.5944                   23157162.8754
 -10262914.68747  -7991129.85945  21625213.3134                   21625212.2934
   1363588.96546   1066318.98044  24184321.2894                   24184322.8524
 11  7 29 16 11 30.0000000  0  9G06G13G16G20G23G19G32G03G07
  -6733409.26247  -5225552.85545  22269429.4694                   22269429.0394
 -10771202.41848  -8380665.07045  21694646.5554                   21694644.3014
   3048144.66048   2379355.46946  20822137.8674                   20822135.2814
   7452642.62547   5804476.44545  22338882.9844                   22338881.5944
  -7034171.47348  -5470355.95747  20330090.3834                   20330085.5124
   -326380.43446   -243473.17644  23634539.5234                   23634538.1214
  10851578.34047   8447716.01644  23162960.5864                   23162960.4304
 -10308787.26247  -8026874.70746  21616483.8054                   21616483.4924
   1318319.85246   1031044.38744  24175707.2814                   24175707.2544
 11  7 29 16 11 45.0000000  0  9G06G13G16G20G23G19G32G03G07
  -6762824.22347  -5248473.60245  22263832.2584                   22263831.0634
 -10824279.25848  -8422023.62545  21684546.3204                   21684544.2734
   3059697.28148   2388357.49646  20824336.4924                   20824333.7114
   7475696.36747   5822440.35945  22343270.1254                   22343268.7854
  -7066621.69948  -5495641.83646  20323915.2034                   20323910.4224
   -387439.82047   -291051.89844  23622921.0554                   23622918.9494
  10882081.44947   8471484.62544  23168764.7814                   23168765.1454
 -10354555.54747  -8062538.30545  21607775.0704                   21607773.8954
   1273057.73446    995775.22344  24167094.2974                   24167094.9734
 11  7 29 16 12  0.0000000  0  9G06G13G16G20G23G19G32G03G07
  -6792124.19147  -5271304.72745  22258256.2194                   22258255.3754
 -10877309.46948  -8463345.85945  21674454.7344                   21674453.0634
   3071355.57048   2397441.86746  20826554.5164                   20826551.7624
   7498816.46147   5840455.97745  22347669.7034                   22347668.6214
  -7098972.36748  -5520850.14547  20317758.8364                   20317754.4574
   -448490.12947   -338623.53544  23611303.2424                   23611301.3444
  10912616.83647   8495278.37544  23174575.9454                   23174576.0394
 -10400220.92647  -8098121.69946  21599084.7664                   21599083.7814
   1227801.03546    960510.28144  24158482.3754                   24158482.5634
 11  7 29 16 12 15.0000000  0  9G06G13G16G20G23G19G32G03G07
  -6821308.36747  -5294045.62545  22252702.5394                   22252701.7934
 -10930292.32048  -8504631.18745  21664372.5394                   21664370.4144
   3083119.78548   2406608.77746  20828793.4064                   20828790.5394
   7522003.18047   5858523.51645  22352081.9534                   22352080.6524
  -7131222.71948  -5545980.28547  20311622.0554                   20311617.3984
   -509530.39146   -386187.34444  23599686.7344                   23599685.7854
  10943184.72347   8519097.45344  23180392.6564                   23180393.4344
 -10445782.51247  -8133624.23445  21590414.6804                   21590413.8014
   1182550.23446    925249.96144  24149871.1334                   24149870.8954
 11  7 29 16 12 30.0000000  0  9G06G13G16G20G23G19G32G03G07
  -6850375.59447  -5316695.40245  22247171.3754                   22247170.9844
 -10983226.55548  -8545878.62145  21654299.3444                   21654297.0234
   3094990.52748   2415858.69946  20831052.3054                   20831049.6884
   7545257.11747   5876643.42645  22356507.1174                   22356505.5864
  -7163371.46148  -5571031.25447  20305504.3444                   20305499.6374
   -570559.19146   -433742.22744  23588073.4774                   23588072.0664
  10973785.63746   8542942.27344  23186216.2114                   23186216.4494
 -10491238.92647  -8169044.80945  21581764.9064                   21581763.6254
   1137306.35546    889995.00444  24141261.4614                   24141261.7624
 11  7 29 16 12 45.0000000  0  9G06G13G16G20G23G19G32G03G07
  -6879326.20347  -5339254.32045  22241662.6484                   22241661.6294
 -11036112.32848  -8587088.31245  21644235.9774                   21644233.5634
   3106966.98448   2425190.98046  20833331.3134                   20833328.8874
   7568577.37547   5894815.02345  22360944.9694                   22360943.7074
  -7195418.94548  -5596003.32047  20299405.9534                   20299401.1454
   -631576.79347   -481288.38744  23576462.7664                   23576460.6214
  11004418.63747   8566812.08644  23192045.7114                   23192045.7384
 -10536590.43447  -8204383.63745  21573134.5704                   21573133.4734
   1092068.78946    854744.97744  24132653.5554                   24132653.7624
 11  7 29 16 13  0.0000000  0  9G06G13G16G20G23G19G32G03G07
  -6908158.58247  -5361721.07845  22236175.6884                   22236174.8594
 -11088948.07848  -8628259.00046  21634181.5234                   21634179.6024
   3119050.08248   2434606.37546  20835630.4774                   20835628.0394
   7591964.73847   5913038.91045  22365394.9534                   22365393.2034
  -7227363.65648  -5620895.29347  20293326.9144                   20293322.1804
   -692581.49646   -528824.49244  23564853.8754                   23564851.7504
  11035084.77047   8590707.72344  23197881.1414                   23197881.1764
 -10581835.44147  -8239639.48045  21564524.8444                   21564523.5474
   1046838.68846    819500.76644  24124046.9534                   24124046.2894
 11  7 29 16 13 15.0000000  0  9G06G13G16G20G23G19G32G03G07
  -6936874.48847  -5384097.10945  22230710.9694                   22230709.9414
 -11141735.41048  -8669391.97345  21624136.3674                   21624134.2774
   3131237.77748   2444103.27746  20837949.8524                   20837946.9414
   7615417.17247   5931313.49245  22369858.4924                   22369856.7154
  -7259207.10548  -5645708.37146  20287267.0864                   20287262.9384
   -753574.71146   -576351.64844  23553247.1254                   23553245.2384
  11065782.05147   8614627.63345  23203722.6884                   23203722.9884
 -10626975.42647  -8274813.48445  21555934.7584                   21555933.1334
   1001614.05946    784260.83244  24115440.4844                   24115440.3954
 11  7 29 16 13 30.0000000  0  9G06G13G16G20G23G19G32G03G07
  -6965472.81247  -5406381.52345  22225269.2194                   22225268.1174
 -11194473.12948  -8710486.29345  21614100.5314                   21614098.4344
   3143530.52748   2453682.02346  20840289.2664                   20840286.3444
   7638935.01247   5949639.05145  22374333.7664                   22374332.1374
  -7290948.34048  -5670441.79747  20281227.3284                   20281222.6804
   -814555.25046   -623868.93044  23541643.0234                   23541640.8444
  11096510.60947   8638571.92245  23209569.9224                   23209570.2854
 -10672009.21147  -8309904.73445  21547365.2814                   21547363.8324
    956395.84446    749025.89544  24106835.0474                   24106835.2894
 11  7 29 16 13 45.0000000  0  9G06G13G16G20G23G19G32G03G07
  -6993952.73047  -5428573.65245  22219849.4614                   22219848.6094
 -11247160.46948  -8751541.35245  21604074.6094                   21604072.2584
   3155928.42648   2463342.71946  20842648.6564                   20842646.0044
   7662518.46947   5968015.72345  22378821.1804                   22378819.6684
  -7322586.41448  -5695094.84447  20275206.8284                   20275201.9264
   -875522.15246   -671375.59444  23530041.4304                   23530039.2974
  11127270.75847   8662540.80945  23215423.8444                   23215423.5864
 -10716935.70347  -8344912.39145  21538815.9924                   21538814.6094
    911184.55946    713796.33643  24098232.2814                   24098231.5984
 11  7 29 16 14  0.0000000  0  9G06G13G16G20G23G19G32G03G07
  -7022315.87547  -5450674.80545  22214452.1954                   22214451.2114
 -11299798.94948  -8792558.33645  21594057.4924                   21594055.4384
   3168429.46548   2473083.77746  20845027.1484                   20845024.3554
   7686165.43447   5986441.89845  22383321.5634                   22383319.3444
  -7354122.89148  -5719668.71947  20269205.3834                   20269201.0164
   -936476.90646   -718872.77344  23518441.7584                   23518440.3874
  11158060.50846   8686532.76245  23221282.8284                   23221283.1334
 -10761756.54347  -8379837.70746  21530286.5314                   21530286.2154
    865978.28546    678570.70744  24089629.3594                   24089630.5164
 11  7 29 16 14 15.0000000  0  9G06G13G16G20G23G19G32G03G07
  -7050561.89147  -5472684.67645  22209077.1724                   22209076.2974
 -11352388.06648  -8833536.85545  21584050.3444                   21584048.6914
   3181033.51648   2482905.10546  20847425.9384                   20847423.0704
   7709875.60947   6004917.33645  22387833.6094                   22387831.5594
  -7385557.42248  -5744163.16847  20263223.7734                   20263219.0234
   -997419.03546   -766360.09844  23506844.9844                   23506843.5354
  11188879.57046   8710547.56344  23227147.3134                   23227147.5664
 -10806471.06247  -8414680.18446  21521777.8204                   21521776.7154
    820777.11746    643349.02344  24081027.8674                   24081028.3444
 11  7 29 16 14 30.0000000  0  9G06G13G16G20G23G19G32G03G07
  -7078686.37547  -5494599.84845  22203725.5634                   22203724.5474
 -11404923.36748  -8874473.43045  21574053.4534                   21574051.2114
   3193744.34448   2492809.63746  20849844.7034                   20849841.6294
   7733652.81647   6023444.99245  22392357.8984                   22392356.9264
  -7416885.56648  -5768574.70347  20257262.1884                   20257257.3874
  -1058343.66846   -813833.82044  23495251.7194                   23495249.5204
  11219731.81346   8734588.20744  23233018.2194                   23233018.6054
 -10851074.95747  -8449436.45746  21513290.0234                   21513289.1024
    775585.05946    608134.47344  24072428.0784                   24072428.4184
 11  7 29 16 14 45.0000000  0  9G06G13G16G20G23G19G32G03G07
  -7106692.69547  -5516422.94945  22198396.2274                   22198395.2544
 -11457408.02748  -8915370.56245  21564065.9924                   21564063.7894
   3206558.07848   2502794.35246  20852283.2584                   20852280.1094
   7757492.97747   6042021.69945  22396894.7114                   22396893.1804
  -7448110.59848  -5792905.90647  20251320.1884                   20251315.4264
  -1119254.21146   -861296.55944  23483660.3444                   23483658.4534
  11250613.18446   8758651.57444  23238895.6174                   23238894.7504
 -10895571.25847  -8484108.89145  21504822.3984                   21504821.6764
    730398.73045    572924.36344  24063828.3524                   24063830.0554
 11  7 29 16 15  0.0000000  0  9G06G13G16G20G23G19G32G03G07
  -7134579.25447  -5538152.71945  22193088.8594                   22193088.4264
 -11509840.44148  -8956226.97745  21554088.1024                   21554086.1994
   3219475.92248   2512860.18846  20854741.2344                   20854738.5944
   7781397.26647   6060648.38745  22401443.3594                   22401441.6254
  -7479230.82048  -5817155.43447  20245397.8984                   20245393.7304
  -1180148.77746   -908746.84844  23472072.7114                   23472070.1024
  11281524.94946   8782738.61744  23244777.1724                   23244777.4104
 -10939958.15247  -8518696.07445  21496376.0634                   21496374.8754
    685219.27345    537719.61744  24055232.3594                   24055232.6484
 11  7 29 16 15 15.0000000  0  9G06G13G16G20G23G19G32G03G07
  -7162344.72347  -5559788.14845  22187805.4844                   22187804.5704
 -11562219.17648  -8997041.55145  21544120.7114                   21544119.1094
   3232498.53148   2523007.67246  20857219.3834                   20857216.6024
   7805366.22347   6079325.46545  22406004.7504                   22406003.0984
  -7510245.09448  -5841322.40247  20239496.4224                   20239491.9264
  -1241025.86746   -956183.50444  23460488.1954                   23460486.5744
  11312467.77046   8806849.85244  23250665.6954                   23250665.6804
 -10984234.36347  -8553197.00445  21487950.8754                   21487949.5394
    640047.64546    502520.99644  24046636.1724                   24046635.7114
 11  7 29 16 15 30.0000000  0  9G06G13G16G20G23G19G32G03G07
  -7189989.81247  -5581329.76645  22182545.0004                   22182543.6994
 -11614544.82848  -9037814.78145  21534163.4534                   21534161.4494
   3245624.73847   2533235.87146  20859717.0474                   20859714.3714
   7829398.86747   6098052.16845  22410577.9614                   22410576.2544
  -7541153.82048  -5865407.12547  20233614.8204                   20233610.0204
  -1301886.04746  -1003606.99244  23448906.4844                   23448905.1334
  11343440.25447   8830984.20744  23256559.2974                   23256559.5164
 -11028400.35547  -8587612.06646  21479546.2194                   21479544.8874
    594883.09046    467327.85544  24038041.6804                   24038041.6484
 11  7 29 16 15 45.0000000  0  9G06G13G16G20G23G19G32G03G07
  -7217513.39847  -5602776.70345  22177307.3134                   22177306.1884
 -11666816.28148  -9078545.75845  21524216.5784                   21524214.4304
   3258855.07447   2543545.20746  20862234.6174                   20862231.9414
   7853495.67647   6116828.86745  22415163.3134                   22415162.1644
  -7571955.87148  -5889408.73047  20227753.3134                   20227748.6764
  -1362727.97746  -1051016.25844  23437328.3834                   23437327.0394
  11374442.99646   8855142.14144  23262458.8754                   23262459.0904
 -11072454.82047  -8621940.19946  21471162.8524                   21471161.8634
    549726.50046    432140.94544  24029448.0784                   24029448.6214
 11  7 29 16 16  0.0000000  0  9G06G13G16G20G23G19G32G03G07
  -7244915.52347  -5624129.00445  22172092.9384                   22172091.9574
 -11719033.27348  -9119234.32846  21514280.0394                   21514277.6954
   3272189.01648   2553935.28546  20864772.0234                   20864769.2504
   7877655.99647   6135655.03945  22419761.0394                   22419759.5704
  -7602651.26648  -5913327.22347  20221912.0394                   20221907.2704
  -1423551.46146  -1098411.14544  23425754.3834                   23425752.7194
  11405475.57047   8879323.30544  23268364.4384                   23268364.4144
 -11116397.98847  -8656181.62146  21462800.8054                   21462800.1454
    504577.52046    396959.95744  24020857.3284                   24020856.4884
 11  7 29 16 16 15.0000000  0  9G06G13G16G20G23G19G32G03G07
  -7272195.63347  -5645386.21945  22166901.4844                   22166900.7504
 -11771195.26648  -9159880.03145  21504353.8364                   21504352.5044
   3285626.53947   2564406.06646  20867329.0314                   20867326.6294
   7901879.60547   6154530.54345  22424370.7584                   22424369.1684
  -7633239.42248  -5937162.16047  20216091.4224                   20216086.4804
  -1484355.83246  -1145791.16044  23414184.0394                   23414182.1884
  11436537.98047   8903527.72744  23274275.6954                   23274275.7464
 -11160228.82447  -8690335.51646  21454460.0704                   21454459.2074
    459436.42646    361785.09844  24012266.6414                   24012267.2974
 11  7 29 16 16 30.0000000  0  9G06G13G16G20G23G19G32G03G07
  -7299354.51247  -5666548.96945  22161733.2814                   22161732.7854
 -11823302.96548  -9200483.41445  21494438.2274                   21494435.7304
   3299166.43847   2574956.62946  20869905.4774                   20869903.4264
   7926165.36347   6173454.47345  22428992.2114                   22428990.6684
  -7663721.01648  -5960914.05147  20210291.2034                   20210286.5314
  -1545141.61746  -1193156.68045  23402616.7734                   23402615.0634
  11467628.78547   8927754.28544  23280191.8754                   23280191.5984
 -11203948.15247  -8724402.51246  21446140.9614                   21446139.8754
    414302.22346    326615.62544  24003678.2194                   24003679.0084
 11  7 29 16 16 45.0000000  0  9G06G13G16G20G23G19G32G03G07
  -7326390.41847  -5687615.90645  22156588.6724                   22156587.8244
 -11875354.51648  -9241043.05945  21484532.7734                   21484530.6684
   3312809.82047   2585587.81646  20872502.3914                   20872499.4694
   7950514.28147   6192427.63345  22433625.3594                   22433623.5704
  -7694094.34448  -5984581.58647  20204510.7194                   20204506.3714
  -1605907.00846  -1240506.30144  23391052.8834                   23391051.5984
  11498749.21947   8952003.93044  23286113.2344                   23286113.7624
 -11247553.96147  -8758381.04746  21437842.3364                   21437841.8404
    369176.31346    291452.60244  23995091.0554                   23995091.6374
 11  7 29 16 17  0.0000000  0  9G06G13G16G20G23G19G32G03G07
  -7353302.41447  -5708586.28145  22151467.4534                   22151466.8094
 -11927348.85948  -9281558.13345  21474638.8134                   21474636.9384
   3326557.22347   2596300.06346  20875117.8594                   20875115.5314
   7974926.74647   6211450.28145  22438271.2194                   22438269.5594
  -7724358.39848  -6008163.96947  20198752.0004                   20198747.3554
  -1666650.77046  -1287839.06644  23379494.3594                   23379492.0084
  11529899.74647   8976277.02044  23292041.7504                   23292041.9494
 -11291045.22747  -8792270.35246  21429566.3444                   21429565.4654
    324059.37946    256296.55544  23986505.7194                   23986505.9574
 11  7 29 16 17 15.0000000  0  9G06G13G16G20G23G19G32G03G07
  -7380091.21147  -5729460.66445  22146369.6334                   22146369.1174
 -11979286.73848  -9322029.18746  21464755.3364                   21464753.1804
   3340407.51648   2607092.49246  20877753.6564                   20877751.2774
   7999401.48047   6230521.47345  22442928.6484                   22442927.3244
  -7754513.83648  -6031661.71947  20193013.5004                   20193008.9224
  -1727373.38746  -1335155.36744  23367939.3444                   23367937.8484
  11561079.05546   9000572.53544  23297974.6884                   23297975.3404
 -11334422.44147  -8826070.75846  21421311.8524                   21421311.5514
    278950.39846    221146.74244  23977921.1024                   23977922.0234
 11  7 29 16 17 30.0000000  0  9G06G13G16G20G23G19G32G03G07
  -7406756.66847  -5750238.93445  22141295.5234                   22141294.8634
 -12031167.87148  -9362456.04345  21454882.7274                   21454880.7384
   3354359.95348   2617964.51246  20880408.9454                   20880406.3444
   8023938.14547   6249640.91045  22447598.2734                   22447596.2584
  -7784560.55148  -6055074.74247  20187295.8754                   20187291.4844
  -1788074.68746  -1382455.05945  23356387.8134                   23356386.9774
  11592286.57847   9024890.00444  23303913.6644                   23303914.0744
 -11377685.37147  -8859782.12546  21413079.2344                   21413078.8284
    233849.25846    186003.02744  23969339.2664                   23969339.3484
 11  7 29 16 17 45.0000000  0  9G06G13G16G20G23G19G32G03G07
  -7433299.82847  -5770921.91045  22136244.4384                   22136243.6564
 -12082993.18448  -9402839.40245  21445020.9064                   21445018.4344
   3368413.09848   2628915.00046  20883082.8524                   20883080.4144
   8048535.11747   6268807.34845  22452278.1804                   22452276.7624
  -7814499.47348  -6078403.77347  20181598.7274                   20181594.0594
  -1848755.49646  -1429738.77045  23344841.0314                   23344839.5514
  11623520.82846   9049228.34044  23309857.2894                   23309857.3134
 -11420835.05147  -8893405.23846  21404868.1254                   21404867.4344
    188754.77346    150864.48844  23960758.1644                   23960757.8204
 11  7 29 16 18  0.0000000  0  9G06G13G16G20G23G19G32G03G07
  -7459718.46947  -5791507.85245  22131216.6884                   22131216.2584
 -12134760.23448  -9443177.34045  21435169.7034                   21435167.5864
   3382568.55147   2639945.20746  20885776.5634                   20885773.8164
   8073193.95347   6288021.98445  22456971.0634                   22456968.9804
  -7844328.32048  -6101647.03547  20175922.2814                   20175918.1684
  -1909413.35547  -1477004.62145  23333298.4844                   23333296.4654
  11654783.56646   9073588.84444  23315806.7974                   23315806.3874
 -11463868.96547  -8926938.14846  21396679.1954                   21396678.4144
    143668.89146    115732.65244  23952178.9774                   23952178.0704
 11  7 29 16 18 15.0000000  0  9G06G13G16G20G23G19G32G03G07
  -7486013.68047  -5811997.63345  22126213.2974                   22126212.4774
 -12186470.02748  -9483470.68446  21425329.5634                   21425327.7234
   3396824.91447   2651054.05946  20888489.7894                   20888487.0004
   8097912.96547   6307283.52345  22461674.5234                   22461673.6374
  -7874048.12548  -6124805.32847  20170266.8674                   20170262.2974
  -1970049.06246  -1524253.20344  23321759.2894                   23321757.8094
  11686073.18446   9097970.30944  23321760.6254                   23321760.8954
 -11506788.09447  -8960381.62146  21388511.7974                   21388510.6254
     98590.25446     80606.43444  23943599.8284                   23943599.5164
 11  7 29 16 18 30.0000000  0  9G06G13G16G20G23G19G32G03G07
  -7512186.78947  -5832392.25045  22121232.7114                   22121231.6254
 -12238123.70348  -9523720.30146  21415500.0864                   21415498.3094
   3411180.41448   2662240.14846  20891221.5394                   20891219.0474
   8122690.42247   6326590.59045  22466389.6644                   22466388.5864
  -7903660.08648  -6147879.58247  20164631.7584                   20164627.5704
  -2030663.67646  -1571485.34845  23310225.0394                   23310222.8284
  11717387.85946   9122371.29344  23327719.6644                   23327719.6134
 -11549593.38747  -8993736.38746  21380366.4774                   21380365.4494
     53517.39846     45484.77044  23935023.0164                   23935021.5354
 11  7 29 16 18 45.0000000  0  9G06G13G16G20G23G19G32G03G07
  -7538237.30547  -5852691.34445  22116275.2274                   22116274.5704
 -12289720.98448  -9563925.96545  21405681.7034                   21405679.6724
   3425634.83247   2673503.31346  20893972.0234                   20893969.1454
   8147526.03547   6345942.98045  22471115.6884                   22471114.6454
  -7933163.84848  -6170869.53947  20159017.3674                   20159013.0984
  -2091256.69147  -1618700.66845  23298694.1254                   23298692.2624
  11748727.34446   9146791.61744  23333683.1024                   23333683.7114
 -11592284.63747  -9027002.28146  21372242.6334                   21372241.2384
      8450.29346     10367.53144  23926447.5164                   23926446.1094
 11  7 29 16 19  0.0000000  0  9G06G13G16G20G23G19G32G03G07
  -7564163.91447  -5872893.89845  22111341.6414                   22111340.9774
 -12341260.07048  -9604086.28546  21395874.2034                   21395872.4884
   3440189.03947   2684844.23846  20896741.5394                   20896739.0274
   8172420.54747   6365341.26245  22475853.2034                   22475851.7624
  -7962557.71148  -6193773.84447  20153424.1484                   20153419.8914
  -2151826.47347  -1665897.87944  23287168.4534                   23287166.4534
  11780092.56346   9171231.98444  23339651.8914                   23339652.6054
 -11634860.16048  -9060178.00046  21364140.7194                   21364139.1914
    -36609.85146    -24744.20744  23917871.9304                   23917872.7584
 11  7 29 16 19 15.0000000  0  9G06G13G16G20G23G19G32G03G07
  -7589967.25447  -5893000.40645  22106431.4064                   22106430.9924
 -12392741.53948  -9644201.70746  21386077.4924                   21386075.3984
   3454841.95347   2696262.08646  20899529.3984                   20899527.2704
   8197373.03147   6384784.71945  22480601.3444                   22480600.4414
  -7991842.40648  -6216593.09047  20147851.4224                   20147847.2274
  -2212373.60546  -1713077.43444  23275646.2814                   23275644.5514
  11811482.47346   9195691.59044  23345625.2894                   23345625.8754
 -11677320.28148  -9093263.80946  21356060.7814                   21356059.8364
    -81663.75446    -59851.16044  23909298.6724                   23909298.7854
 11  7 29 16 19 30.0000000  0  9G06G13G16G20G23G19G32G03G07
  -7615647.19947  -5913010.75445  22101544.6954                   22101544.3834
 -12444165.26648  -9684272.13745  21376291.9144                   21376289.8484
   3469593.17647   2707756.53546  20902336.9694                   20902334.3484
   8222382.89547   6404272.89545  22485361.1884                   22485359.9454
  -8021017.80548  -6239327.17247  20142299.3754                   20142295.0984
  -2272897.59046  -1760238.95344  23264129.3834                   23264127.4064
  11842896.42246   9220169.93444  23351603.3364                   23351603.9144
 -11719665.00847  -9126259.69546  21348003.0314                   21348001.4774
   -126711.69946    -94953.43444  23900726.1564                   23900726.5394
 11  7 29 16 19 45.0000000  0  9G06G13G16G20G23G19G32G03G07
  -7641203.25047  -5932924.56245  22096681.8674                   22096681.3134
 -12495530.63348  -9724297.08646  21366517.2974                   21366515.2854
   3484442.54747   2719327.46146  20905162.5554                   20905160.1994
   8247450.07047   6423805.71545  22490130.8594                   22490129.7774
  -8050083.44148  -6261975.72747  20136768.6174                   20136764.3134
  -2333397.59847  -1807381.79744  23252616.3754                   23252613.9884
  11874334.56646   9244667.12944  23357585.7664                   23357586.4104
 -11761893.64548  -9159165.12146  21339967.1884                   21339965.4024
   -171753.31646   -130050.78944  23892155.3914                   23892154.7624
 11  7 29 16 20  0.0000000  0  9G06G13G16G20G23G19G32G03G07
  -7666635.43447  -5952741.83245  22091841.6094                   22091841.3444
 -12546837.53548  -9764276.48446  21356754.1414                   21356751.8524
   3499389.55947   2730974.46546  20908007.3134                   20908004.8834
   8272573.84047   6443382.64845  22494911.8914                   22494910.3164
  -8079039.22748  -6284538.68047  20131258.3364                   20131253.9614
  -2393873.64146  -1854505.96544  23241108.0314                   23241106.2934
  11905796.21946   9269182.66044  23363573.1024                   23363573.8324
 -11804006.06248  -9191979.98846  21331953.0234                   21331951.6294
   -216789.02046   -165143.55544  23883585.6174                   23883584.4104
 11  7 29 16 20 15.0000000  0  9G06G13G16G20G23G19G32G03G07
  -7691944.71147  -5972463.34045  22087025.7194                   22087025.1214
 -12598086.69948  -9804210.89546  21347001.4774                   21346999.6884
   3514432.91047   2742696.55146  20910869.9614                   20910867.1764
   8297752.82047   6463002.60245  22499703.1564                   22499702.1644
  -8107885.86348  -6307016.58247  20125769.3914                   20125764.5554
  -2454326.37546  -1901611.96544  23229603.9844                   23229601.7974
  11937279.97746   9293715.39544  23369563.8984                   23369564.9264
 -11846003.01248  -9224704.87146  21323961.4924                   21323959.9844
   -261819.84846   -200232.51644  23875016.3054                   23875015.2034
 11  7 29 16 20 30.0000000  0  9G06G13G16G20G23G19G32G03G07
  -7717131.08247  -5992089.08245  22082232.6804                   22082232.3914
 -12649278.34048  -9844100.47746  21337260.2274                   21337257.8014
   3529571.87147   2754493.12546  20913750.8524                   20913747.6764
   8322986.29347   6482665.00445  22504505.2424                   22504503.9144
  -8136623.72748  -6329409.73047  20120300.4454                   20120295.9264
  -2514755.65646  -1948699.69144  23218104.2034                   23218103.0744
  11968785.13746   9318264.80544  23375559.5704                   23375560.2304
 -11887884.50448  -9257339.80146  21315991.6334                   21315990.4184
   -306846.19946   -235317.98444  23866447.8284                   23866446.9384
 11  7 29 16 20 45.0000000  0  9G06G13G16G20G23G19G32G03G07
  -7742193.46947  -6011618.21545  22077463.9694                   22077463.0984
 -12700410.85548  -9883943.99246  21327530.1484                   21327527.8364
   3544807.01647   2766364.66046  20916649.7114                   20916647.1764
   8348274.85947   6502370.34045  22509317.2034                   22509316.2234
  -8165251.35948  -6351716.98047  20114852.8364                   20114848.4574
  -2575160.16046  -1995768.12144  23206609.9924                   23206608.6054
  12000312.37146   9342831.41844  23381559.0164                   23381559.7544
 -11929649.20748  -9289883.72346  21308044.1804                   21308042.8284
   -351867.05146   -270399.17244  23857880.6094                   23857881.2934
 11  7 29 16 21  0.0000000  0  9G06G13G16G20G23G19G32G03G07
  -7767131.95347  -6031050.80145  22072717.8674                   22072717.4574
 -12751484.43448  -9923741.57046  21317810.8914                   21317809.1214
   3560137.84447   2778310.74646  20919567.1254                   20919564.4414
   8373617.96147   6522118.17645  22514139.6564                   22514138.9344
  -8193768.94548  -6373938.48047  20109426.1024                   20109421.6724
  -2635539.84847  -2042817.19144  23195120.7664                   23195118.8284
  12031861.09846   9367414.77744  23387562.6254                   23387562.9694
 -11971297.07048  -9322336.60546  21300118.5634                   21300117.2814
   -396882.87946   -305476.41844  23849314.6954                   23849314.7854
 11  7 29 16 21 15.0000000  0  9G06G13G16G20G23G19G32G03G07
  -7791945.00447  -6050385.64145  22067996.2344                   22067995.6524
 -12802497.22348  -9963491.78946  21308103.3754                   21308101.6564
   3575565.50447   2790332.28146  20922502.9534                   20922500.1644
   8399016.56647   6541909.25845  22518973.1254                   22518971.6884
  -8222174.69148  -6396072.82847  20104020.4844                   20104015.7934
  -2695892.69146  -2089845.35244  23183635.1484                   23183633.9844
  12063432.41046   9392015.73444  23393570.8834                   23393570.5664
 -12012826.26648  -9354697.00446  21292216.2584                   21292214.4144
   -441892.25846   -340548.63744  23840749.6094                   23840749.8594
 11  7 29 16 21 30.0000000  0  9G06G13G16G20G23G19G32G03G07
  -7816635.30547  -6069624.84045  22063298.1644                   22063297.1484
 -12853451.80148 -10003196.63746  21298407.2344                   21298405.2854
   3591086.69547   2802426.70346  20925456.4774                   20925454.0474
   8424467.28147   6561740.94945  22523815.9224                   22523814.9384
  -8250471.30948  -6418122.14147  20098635.8364                   20098631.5904
  -2756221.27746  -2136854.60944  23172155.9844                   23172153.2194
  12095022.96946   9416631.70344  23399582.1334                   23399582.6374
 -12054239.51648  -9386967.07046  21284335.4224                   21284334.0554
   -486898.17246   -375618.15644  23832185.3204                   23832185.2704
 11  7 29 16 21 45.0000000  0  9G06G13G16G20G23G19G32G03G07
  -7841201.85947  -6088767.61345  22058623.1724                   22058622.3634
 -12904347.12548 -10042855.32846  21288721.9454                   21288719.8794
   3606701.81347   2814594.31646  20928428.2424                   20928425.4804
   8449970.66847   6581613.67245  22528669.3984                   22528668.2424
  -8278657.78548  -6440085.63347  20093272.5784                   20093267.9414
  -2816524.45746  -2183844.08645  23160679.6254                   23160678.1374
  12126633.35546   9441263.10244  23405597.2974                   23405598.1564
 -12095535.56248  -9419145.79746  21276476.9844                   21276475.7384
   -531899.72746   -410684.28544  23823622.1724                   23823622.0664
 11  7 29 16 22  0.0000000  0  9G06G13G16G20G23G19G32G03G07
  -7865643.78547  -6107813.26245  22053972.0314                   22053971.2664
 -12955182.21148 -10082467.05946  21279048.1414                   21279046.3404
   3622411.23447   2826835.41446  20931417.1174                   20931415.0554
   8475526.95347   6601527.62545  22533532.4304                   22533531.4614
  -8306733.18448  -6461962.57047  20087929.9064                   20087925.4494
  -2876801.22746  -2230812.96144  23149209.5554                   23149207.7854
  12158263.82846   9465910.16044  23411616.5394                   23411616.8954
 -12136713.38748  -9451232.41446  21268641.1414                   21268640.2464
   -576896.51246   -445746.71944  23815059.2734                   23815058.6524
 11  7 29 16 22 15.0000000  0  9G06G13G16G20G23G19G32G03G07
  -7889959.33247  -6126760.44545  22049344.9844                   22049344.2544
 -13005955.09848 -10122030.34046  21269386.6174                   21269384.6914
   3638216.33647   2839151.06346  20934425.2034                   20934422.6804
   8501137.49247   6621483.84045  22538406.4924                   22538405.3014
  -8334695.68048  -6483751.52747  20082608.7894                   20082604.2584
  -2937049.28947  -2277759.46544  23137745.0554                   23137743.8954
  12189915.61746   9490573.84844  23417639.6174                   23417639.7304
 -12177771.13347  -9483225.45746  21260827.4844                   21260826.8984
   -621886.85546   -480804.12944  23806497.9454                   23806497.3244
 11  7 29 16 22 30.0000000  0  9G06G13G16G20G23G19G32G03G07
  -7914150.04747  -6145610.34845  22044741.7814                   22044741.0204
 -13056667.25448 -10161546.29746  21259736.4144                   21259734.3094
   3654115.01647   2851539.63346  20937450.4224                   20937447.7584
   8526800.08647   6641480.63345  22543289.8364                   22543288.5784
  -8362546.62548  -6505453.56647  20077308.8754                   20077304.1294
  -2997270.06647  -2324684.73444  23126285.3204                   23126284.1094
  12221586.69946   9515252.55544  23423666.1024                   23423667.1294
 -12218710.09848  -9515125.94146  21253037.7424                   21253036.4734
   -666872.43446   -515857.82444  23797936.6884                   23797937.1884
 11  7 29 16 22 45.0000000  0  9G06G13G16G20G23G19G32G03G07
  -7938214.70348  -6164362.02745  22040162.4304                   22040161.8444
 -13107317.40248 -10201013.93046  21250098.1564                   21250096.3204
   3670108.04748   2864001.72346  20940493.5704                   20940491.1764
   8552515.36747   6661518.47345  22548183.0474                   22548182.3364
  -8390284.85248  -6527067.76647  20072030.2814                   20072025.9224
  -3057462.28947  -2371587.73444  23114831.6024                   23114829.0944
  12253277.85546   9539946.87944  23429697.0704                   23429697.7034
 -12259529.13748  -9546932.98046  21245269.7504                   21245268.9804
   -711852.29347   -550907.03544  23789377.9384                   23789377.2234
 11  7 29 16 23  0.0000000  0  9G06G13G16G20G23G19G32G03G07
  -7962153.08247  -6183015.31245  22035607.0784                   22035606.2934
 -13157905.19548 -10240432.97346  21240471.5164                   21240469.8674
   3686195.17648   2876537.13346  20943555.1644                   20943552.4224
   8578283.05947   6681597.16045  22553086.7114                   22553085.4264
  -8417910.07848  -6548593.92247  20066773.3134                   20066768.9884
  -3117625.48846  -2418468.12944  23103382.1724                   23103380.3014
  12284988.68847   9564656.55944  23435731.3914                   23435732.0084
 -12300227.65248  -9578646.10546  21237525.3364                   21237524.7584
   -756826.48446   -585951.84844  23780819.9924                   23780819.6374
 11  7 29 16 23 15.0000000  0  9G06G13G16G20G23G19G32G03G07
  -7985963.83247  -6201569.14145  22031075.8054                   22031075.0904
 -13208428.95348 -10279802.12546  21230857.0004                   21230855.4534
   3702377.07448   2889146.39546  20946634.1884                   20946631.9964
   8604104.02347   6701717.35945  22558000.2894                   22557998.8794
  -8445420.81648  -6570030.86347  20061538.2974                   20061533.8364
  -3177757.98047  -2465324.58644  23091939.1564                   23091937.8284
  12316720.19946   9589382.35244  23441769.6174                   23441770.2734
 -12340804.17648  -9610264.17646  21229803.4924                   21229802.7814
   -801793.85946   -620991.35244  23772263.1334                   23772262.7814
 11  7 29 16 23 30.0000000  0  9G06G13G16G20G23G19G32G03G07
  -8009648.43047  -6220024.67645  22026568.9454                   22026568.3524
 -13258890.00448 -10319122.39846  21221254.7584                   21221253.0394
   3718651.94148   2901828.09046  20949731.4144                   20949729.2384
   8629976.23047   6721877.48445  22562923.2894                   22562922.0664
  -8472818.40648  -6591379.64147  20056324.7974                   20056320.1954
  -3237861.01247  -2512158.09444  23080502.1644                   23080499.7384
  12348470.42246   9614122.73444  23447811.1644                   23447812.2854
 -12381260.04348  -9641788.21146  21222105.4384                   21222104.3324
   -846756.15646   -656026.86344  23763705.9774                   23763706.5124
 11  7 29 16 23 45.0000000  0  9G06G13G16G20G23G19G32G03G07
  -8033205.91848  -6238381.15645  22022086.3914                   22022085.6024
 -13309287.41848 -10358393.10246  21211664.4304                   21211662.4064
   3735020.09848   2914582.48446  20952846.1644                   20952843.7934
   8655900.07047   6742077.82045  22567857.0634                   22567855.6684
  -8500101.99648  -6612639.58647  20051133.1254                   20051128.4304
  -3297933.42647  -2558967.75444  23069070.9224                   23069069.0164
  12380239.58646   9638877.84444  23453857.1334                   23453858.4574
 -12421594.16048  -9673217.39546  21214430.0704                   21214429.3404
   -891712.68747   -691057.91044  23755151.4454                   23755151.1414
 11  7 29 16 24  0.0000000  0  9G06G13G16G20G23G19G32G03G07
  -8056635.63748  -6256638.08245  22017627.8054                   22017626.4804
 -13359620.22348 -10397613.45746  21202086.3984                   21202084.8484
   3751481.82448   2927409.78546  20955978.6334                   20955976.3984
   8681875.60947   6762318.46145  22572800.1094                   22572798.5474
  -8527270.89148  -6633810.15247  20045962.8284                   20045958.6254
  -3357974.23447  -2605752.77044  23057645.2974                   23057643.4494
  12412027.84046   9663647.84444  23459906.0554                   23459906.9654
 -12461805.78948  -9704551.12946  21206777.7034                   21206777.1134
   -936662.89146   -726084.03944  23746597.9064                   23746597.6294
 11  7 29 16 24 15.0000000  0  9G06G13G16G20G23G19G32G03G07
  -8079937.48047  -6274795.35545  22013193.5554                   22013192.0864
 -13409888.20748 -10436783.30546  21192520.7344                   21192519.0004
   3768036.73048   2940309.69546  20959129.2974                   20959126.5124
   8707902.57047   6782599.18045  22577752.2344                   22577751.4304
  -8554324.74248  -6654891.07847  20040814.4224                   20040810.0634
  -3417983.08247  -2652512.87945  23046225.9534                   23046224.2774
  12443834.92646   9688432.51244  23465958.8444                   23465959.8754
 -12501894.69948  -9735789.23446  21199149.1954                   21199148.4694
   -981606.76647   -761105.23444  23738045.5394                   23738045.6054
 11  7 29 16 24 30.0000000  0  9G06G13G16G20G23G19G32G03G07
  -8103112.84448  -6292854.08245  22008783.4614                   22008782.0594
 -13460092.54748 -10475903.55946  21182967.1254                   21182965.1374
   3784682.87548   2953280.69546  20962296.9454                   20962294.1254
   8733978.87547   6802918.34445  22582714.6094                   22582714.1484
  -8581264.95748  -6675883.45747  20035687.8444                   20035683.4654
  -3477961.20347  -2699249.05545  23034812.5004                   23034810.4064
  12475658.99246   9713230.41844  23472015.1254                   23472015.7544
 -12541861.92248  -9766932.52346  21191543.7424                   21191542.8364
  -1026545.96546   -796122.78144  23729493.7894                   23729493.6644
 11  7 29 16 24 45.0000000  0  9G06G13G16G20G23G19G32G03G07
  -8126159.65648  -6310812.63345  22004397.8984                   22004396.8984
 -13510231.12948 -10514972.57446  21173426.1644                   21173424.0004
   3801421.98448   2966324.14146  20965482.5944                   20965479.4924
   8760105.97347   6823277.07445  22587686.3674                   22587685.4654
  -8608089.44948  -6696785.66847  20030583.5704                   20030578.8954
  -3537906.20747  -2745959.41044  23023405.2974                   23023403.4884
  12507501.60946   9738042.78144  23478074.3914                   23478076.3634
 -12581705.36348  -9797979.35546  21183962.1564                   21183960.9454
  -1071478.69146   -831135.27044  23720942.4304                   23720943.7424
 11  7 29 16 25  0.0000000  0  9G06G13G16G20G23G19G32G03G07
  -8149079.96548  -6328672.61745  22000036.2034                   22000035.2034
 -13560305.85248 -10553991.82446  21163897.0554                   21163894.8754
   3818251.25848   2979437.85246  20968684.6484                   20968681.8954
   8786281.29347   6843673.39145  22592667.9694                   22592666.7704
  -8634800.12948  -6717599.18047  20025500.5704                   20025496.1294
  -3597819.93447  -2792645.40645  23012004.4144                   23012002.5084
  12539360.03146   9762867.45344  23484137.1804                   23484138.2974
 -12621426.82448  -9828931.14146  21176403.0784                   21176402.1884
  -1116407.21546   -866144.46944  23712392.9384                   23712393.7194
 11  7 29 16 25 15.0000000  0  9G06G13G16G20G23G19G32G03G07
  -8171872.89847  -6346433.33245  21995698.8524                   21995697.8874
 -13610315.50848 -10592960.38346  21154380.4144                   21154379.0434
   3835171.15648   2992622.16846  20971904.1884                   20971901.3874
   8812505.35547   6864107.68445  22597657.8364                   22597656.6214
  -8661396.00448  -6738323.23847  20020439.6564                   20020435.1374
  -3657701.19147  -2839306.10945  23000609.2974                   23000607.0554
  12571234.82846   9787704.87944  23490202.6024                   23490204.2504
 -12661025.24648  -9859787.04746  21168867.7114                   21168866.5514
  -1161330.84046   -901149.86744  23703844.5864                   23703844.4804
 11  7 29 16 25 30.0000000  0  9G06G13G16G20G23G19G32G03G07
  -8194537.48448  -6364094.05545  21991386.1254                   21991384.4804
 -13660259.12948 -10631877.47746  21144876.8594                   21144874.6214
   3852182.18047   3005877.49246  20975141.6804                   20975138.8794
   8838778.51647   6884580.23045  22602657.8134                   22602656.8594
  -8687876.14548  -6758957.11747  20015400.7814                   20015396.1684
  -3717548.83647  -2885940.61745  22989220.5164                   22989219.0124
  12603126.33246   9812555.33244  23496271.2974                   23496272.6254
 -12700499.69948  -9890546.34446  21161356.1644                   21161355.2034
  -1206248.89546   -936150.92644  23695296.7974                   23695297.0044
 11  7 29 16 25 45.0000000  0  9G06G13G16G20G23G19G32G03G07
  -8217073.52047  -6381654.59045  21987097.5164                   21987096.2344
 -13710136.39148 -10670742.87546  21135385.4144                   21135383.2194
   3869284.09048   3019203.64146  20978395.9454                   20978393.4534
   8865100.45347   6905090.80145  22607666.3134                   22607665.4574
  -8714240.18448  -6779500.53147  20010383.9844                   20010379.3834
  -3777362.41447  -2932548.57445  22977838.4924                   22977836.6994
  12635034.37546   9837418.67644  23502343.5314                   23502344.5554
 -12739849.94548  -9921208.87546  21153868.1484                   21153867.3754
  -1251161.26646   -971147.54744  23686750.2344                   23686751.4064
 11  7 29 16 26  0.0000000  0  9G06G13G16G20G23G19G32G03G07
  -8239482.27047  -6399115.96545  21982832.9924                   21982831.5864
 -13759948.43048 -10709557.43446  21125906.5004                   21125904.7194
   3886475.14848   3032599.25446  20981667.3444                   20981664.7504
   8891469.36747   6925637.97345  22612684.2974                   22612682.7894
  -8740489.41048  -6799954.46947  20005388.5784                   20005384.4454
  -3837142.95347  -2979130.78945  22966462.5784                   22966460.1844
  12666957.15646   9862293.50844  23508418.0864                   23508419.0514
 -12779076.79348  -9951775.24246  21146403.1954                   21146402.7584
  -1296069.42646  -1006140.89844  23678205.1024                   23678205.3364
 11  7 29 16 26 15.0000000  0  9G06G13G16G20G23G19G32G03G07
  -8261763.87947  -6416478.24245  21978592.7114                   21978591.7974
 -13809695.15248 -10748321.10546  21116439.9924                   21116437.7664
   3903754.72748   3046063.84046  20984955.4144                   20984952.8794
   8917884.45347   6946221.11345  22617710.9064                   22617710.1174
  -8766623.89548  -6820319.00847  20000415.3524                   20000411.1884
  -3896890.44947  -3025687.24645  22955092.7664                   22955091.0124
  12698894.13346   9887179.41044  23514495.5164                   23514496.7584
 -12818180.43748  -9982245.60946  21138962.2974                   21138961.6954
  -1340973.72746  -1041131.21944  23669659.5784                   23669660.2774
 11  7 29 16 26 30.0000000  0  9G06G13G16G20G23G19G32G03G07
  -8283918.27747  -6433741.41045  21974377.2814                   21974375.8484
 -13859376.31248 -10787033.69146  21106985.8984                   21106983.7974
   3921122.40648   3059597.08646  20988260.4694                   20988257.9454
   8944345.41047   6966840.00445  22622746.2194                   22622745.0394
  -8792643.44548  -6840593.99247  19995464.2814                   19995459.5904
  -3956604.36347  -3072217.53545  22943729.3834                   22943728.0784
  12730844.81346   9912075.95744  23520575.5314                   23520576.0314
 -12857160.36348 -10012619.56646  21131544.3834                   21131543.3284
  -1385874.23847  -1076118.58244  23661115.3284                   23661115.8524
 11  7 29 16 26 45.0000000  0  9G06G13G16G20G23G19G32G03G07
  -8305944.32447  -6450904.57045  21970185.6024                   21970184.5204
 -13908990.65648 -10825694.20746  21097544.7664                   21097542.3954
   3938578.89548   3073199.53946  20991582.3914                   20991579.9694
   8970852.56347   6987494.89545  22627790.8524                   22627789.3554
  -8818546.80548  -6860778.42647  19990534.8754                   19990530.3554
  -4016283.38747  -3118720.64545  22932373.1724                   22932371.7194
  12762809.76246   9936983.64544  23526658.4454                   23526659.0664
 -12896015.33648 -10042896.15646  21124150.6564                   21124149.2814
  -1430770.09046  -1111102.31244  23652571.8594                   23652572.1334
 11  7 29 16 27  0.0000000  0  9G06G13G16G20G23G19G32G03G07
  -8327841.83647  -6467967.55945  21966018.6334                   21966018.1684
 -13958537.71548 -10864302.30146  21088116.3054                   21088114.3444
   3956123.75848   3086870.83646  20994921.2194                   20994918.2464
   8997405.97747   7008185.82045  22632843.6024                   22632842.6214
  -8844333.64848  -6880872.07847  19985627.7814                   19985623.5164
  -4075926.98047  -3165196.14145  22921023.5864                   22921021.4844
  12794788.73846   9961902.26244  23532744.0474                   23532744.9734
 -12934745.06648 -10073075.16046  21116780.7424                   21116779.3674
  -1475661.24247  -1146082.41444  23644029.7734                   23644029.4414
 11  7 29 16 27 15.0000000  0  9G06G13G16G20G23G19G32G03G07
  -8349612.03547  -6484931.34845  21961876.1484                   21961875.2894
 -14008018.67648 -10902858.88346  21078699.9304                   21078698.1914
   3973755.22748   3100609.62546  20998276.2034                   20998273.8134
   9024003.75047   7028911.32445  22637905.0944                   22637903.8794
  -8870005.29348  -6900875.96547  19980742.6094                   19980738.4534
  -4135536.23047  -3211644.87945  22909680.1334                   22909678.2544
  12826779.94146   9986830.38344  23538831.3444                   23538833.0634
 -12973350.88348 -10103157.60946  21109434.3914                   21109433.1764
  -1520549.20346  -1181060.01244  23635487.2114                   23635487.9804
 11  7 29 16 27 30.0000000  0  9G06G13G16G20G23G19G32G03G07
  -8371254.48447  -6501795.59045  21957757.3364                   21957756.4414
 -14057432.88348 -10941363.44146  21069296.8524                   21069294.7194
   3991473.42648   3114415.99246  21001648.0784                   21001645.3914
   9050645.70747   7049671.25045  22642974.6414                   22642973.7384
  -8895561.13748  -6920789.60947  19975879.5634                   19975875.1994
  -4195110.33647  -3258066.23445  22898343.4064                   22898341.5274
  12858783.45347  10011768.12944  23544922.2034                   23544922.8674
 -13011832.14548 -10133143.00446  21102111.5784                   21102110.5514
  -1565433.71946  -1216034.92244  23626945.9304                   23626945.7274
 11  7 29 16 27 45.0000000  0  9G06G13G16G20G23G19G32G03G07
  -8392769.56647  -6518560.58245  21953663.7584                   21953662.2584
 -14106780.52348 -10979816.14146  21059906.5474                   21059904.3444
   4009277.72748   3128289.46146  21005036.0314                   21005033.5514
   9077330.94947   7070464.89544  22648052.8204                   22648052.2424
  -8921001.55548  -6940613.31647  19971038.4844                   19971034.1414
  -4254649.57047  -3304460.41845  22887013.4614                   22887010.9224
  12890798.41847  10036714.78544  23551014.3524                   23551015.2344
 -13050188.83648 -10163031.32046  21094812.0784                   21094811.2424
  -1610315.29347  -1251007.55544  23618405.6414                   23618405.8984
 11  7 29 16 28  0.0000000  0  9G06G13G16G20G23G19G32G03G07
  -8414157.32447  -6535226.35545  21949593.6804                   21949592.4024
 -14156061.31248 -11018216.74246  21050528.7424                   21050526.5554
   4027167.36348   3142229.41846  21008440.0234                   21008437.6644
   9104059.14147   7091292.02745  22653139.2424                   22653138.5594
  -8946326.37948  -6960346.94947  19966219.4384                   19966214.8914
  -4314153.59847  -3350827.16045  22875690.2194                   22875687.8054
  12922824.41446  10061670.04344  23557108.1564                   23557109.6094
 -13088420.85548 -10192822.51646  21087537.1334                   21087535.9104
  -1655193.97746  -1285977.92644  23609865.4924                   23609865.7344
 11  7 29 16 28 15.0000000  0  9G06G13G16G20G23G19G32G03G07
  -8435418.75047  -6551793.71945  21945547.6334                   21945546.6294
 -14205276.39148 -11056566.14146  21041163.3364                   21041160.8444
   4045140.69548   3156234.59046  21011860.7504                   21011858.1804
   9130828.53547   7112151.23445  22658233.0634                   22658232.0984
  -8971536.77348  -6979991.41847  19961421.8134                   19961417.6294
  -4373623.16447  -3397167.05945  22864373.5784                   22864371.1174
  12954859.76646  10086632.58643  23563204.5004                   23563205.4694
 -13126529.32048 -10222517.40246  21080285.2894                   21080283.9304
  -1700071.16046  -1320947.12144  23601324.9924                   23601325.7854
 11  7 29 16 28 30.0000000  0  9G06G13G16G20G23G19G32G03G07
  -8456551.88747  -6568261.08245  21941525.8134                   21941525.0044
 -14254423.45748 -11094862.54746  21031810.9844                   21031808.9654
   4063199.18048   3170306.11746  21015296.9534                   21015294.1604
   9157640.68047   7133043.77744  22663335.7504                   22663334.5634
  -8996630.52348  -6999544.99647  19956646.5864                   19956642.3204
  -4433056.04747  -3443478.35545  22853063.5704                   22853061.8634
  12986905.95746  10111603.57844  23569302.9224                   23569303.4224
 -13164511.87148 -10252114.19946  21073057.4064                   21073055.8754
  -1744945.20746  -1355913.87544  23592786.0394                   23592787.1294
 11  7 29 16 28 45.0000000  0  9G06G13G16G20G23G19G32G03G07
  -8477557.98847  -6584629.46945  21937528.6024                   21937527.3404
 -14303503.66048 -11133106.84446  21022471.1564                   21022469.2034
   4081341.15248   3184442.70346  21018749.2814                   21018746.7154
   9184493.63347   7153968.10945  22668445.5784                   22668444.6604
  -9021608.86348  -7019008.64147  19951893.6484                   19951889.0864
  -4492453.33647  -3489761.92644  22841761.0784                   22841758.7704
  13018961.39147  10136581.76244  23575403.3444                   23575403.5354
 -13202369.69548 -10281613.79746  21065853.2194                   21065851.9964
  -1789817.35546  -1390879.16444  23584247.0784                   23584247.7544
 11  7 29 16 29  0.0000000  0  9G06G13G16G20G23G19G32G03G07
  -8498436.81247  -6600898.68745  21933555.5084                   21933554.4614
 -14352516.44948 -11171298.61346  21013144.5004                   21013142.0944
   4099566.79748   3198644.48846  21022217.4534                   21022214.8284
   9211387.28547   7174924.16445  22673563.9064                   22673561.6844
  -9046471.30148  -7038381.97347  19947162.4064                   19947158.1954
  -4551814.21147  -3536017.12944  22830464.7034                   22830462.2074
  13051025.82047  10161566.95744  23581504.7584                   23581505.6254
 -13240102.26648 -10311015.79746  21058673.0634                   21058671.9024
  -1834687.43747  -1425842.83644  23575709.2344                   23575709.1254
 11  7 29 16 29 15.0000000  0  9G06G13G16G20G23G19G32G03G07
  -8519188.84447  -6617069.10545  21929606.3594                   21929605.5904
 -14401462.31648 -11209438.25046  21003830.5164                   21003828.0434
   4117875.09048   3212910.67646  21025701.3674                   21025699.0984
   9238320.41047   7195910.98444  22678688.2194                   22678687.1334
  -9071218.43748  -7057665.46147  19942453.0164                   19942448.8134
  -4611139.18047  -3582244.34445  22819175.6804                   22819172.6134
  13083098.21147  10186558.35244  23587608.0474                   23587609.0594
 -13277710.00448 -10340320.52346  21051516.4774                   21051515.3834
  -1879556.29346  -1460805.57444  23567170.3284                   23567170.6454
 11  7 29 16 29 30.0000000  0  9G06G13G16G20G23G19G32G03G07
  -8539812.77047  -6633139.69145  21925682.0394                   21925681.1954
 -14450339.84048 -11247524.62546  20994529.2734                   20994526.8134
   4136266.43848   3227241.58246  21029201.2504                   21029198.7154
   9265294.05147   7216929.37145  22683821.1564                   22683820.4064
  -9095848.81248  -7076857.96547  19937766.0394                   19937762.1414
  -4670426.54747  -3628442.27345  22807893.2974                   22807890.6024
  13115179.36747  10211556.59044  23593712.8364                   23593713.7274
 -13315191.47748 -10369526.85946  21044384.0004                   21044382.5784
  -1924422.83246  -1495766.48444  23558632.5084                   23558632.7584
 11  7 29 16 29 45.0000000  0  9G06G13G16G20G23G19G32G03G07
  -8560309.67647  -6649111.32045  21921781.5314                   21921780.7934
 -14499149.65248 -11285558.22746  20985241.0394                   20985239.0004
   4154739.51648   3241636.16446  21032716.3594                   21032714.1254
   9292306.53947   7237978.00845  22688961.8364                   22688960.9774
  -9120363.35948  -7095960.21947  19933101.0164                   19933096.7734
  -4729677.19147  -3674611.56245  22796618.4224                   22796616.3794
  13147267.91447  10236560.57044  23599819.4144                   23599820.1134
 -13352547.41848 -10398635.37546  21037275.2344                   21037274.5984
  -1969288.23846  -1530726.49644  23550094.6804                   23550095.2154
 11  7 29 16 30  0.0000000  0  9G06G13G16G20G23G19G32G03G07
  -8580677.90247  -6664982.66045  21917905.8914                   21917904.5044
 -14547889.82848 -11323537.56246  20975966.1174                   20975963.6684
   4173295.60548   3256095.44146  21036247.8284                   21036245.1174
   9319359.16447   7259057.93444  22694109.3444                   22694108.7974
  -9144760.28548  -7114970.80947  19928458.5704                   19928454.2234
  -4788889.13347  -3720750.71145  22785350.6954                   22785348.5234
  13179365.03947  10261571.24644  23605927.0004                   23605928.1684
 -13389776.12948 -10427644.75846  21030190.8914                   21030189.7464
  -2014150.57846  -1565684.12944  23541558.3594                   23541558.1844
 11  7 29 16 30 15.0000000  0  9G06G13G16G20G23G19G32G03G07
  -8600917.46947  -6680753.74645  21914054.0164                   21914053.2544
 -14596560.48448 -11361462.74246  20966704.1414                   20966702.1884
   4191934.03548   3270618.87546  21039794.5234                   21039792.0394
   9346451.20747   7280168.57444  22699264.8204                   22699264.1484
  -9169039.77748  -7133889.89547  19923838.4694                   19923833.7934
  -4848062.09847  -3766859.50444  22774090.7664                   22774088.1024
  13211470.07847  10286588.08244  23612036.8524                   23612037.4884
 -13426877.68748 -10456555.05946  21023130.6564                   21023129.3444
  -2059010.66446  -1600640.02744  23533021.2424                   23533020.9184
 11  7 29 16 30 30.0000000  0  9G06G13G16G20G23G19G32G03G07
  -8621029.61747  -6696425.55945  21910226.7974                   21910225.8404
 -14645162.56648 -11399334.48046  20957455.2584                   20957453.4304
   4210653.12548   3285205.17246  21043356.8524                   21043354.2664
   9373580.87147   7301308.52744  22704427.6254                   22704427.2664
  -9193202.96948  -7152718.36747  19919240.6094                   19919236.2114
  -4907196.96547  -3812938.58645  22762837.1254                   22762835.3164
  13243581.35247  10311609.79344  23618147.3284                   23618147.8914
 -13463852.95348 -10485366.95346  21016094.5554                   21016093.7854
  -2103869.85547  -1635595.22744  23524485.2584                   23524484.5704
 11  7 29 16 30 45.0000000  0  9G06G13G16G20G23G19G32G03G07
  -8641013.09447  -6711997.09445  21906424.1174                   21906423.1024
 -14693694.30148 -11437151.40246  20948220.5784                   20948218.3554
   4229453.80148   3299855.02746  21046934.2114                   21046931.7154
   9400749.08247   7322478.50445  22709598.2274                   22709597.0204
  -9217248.34848  -7171455.02747  19914664.5474                   19914660.4184
  -4966292.29347  -3858986.85945  22751592.4304                   22751589.9964
  13275699.78947  10336637.07844  23624259.2504                   23624259.8874
 -13500700.41448 -10514079.26246  21009082.8364                   21009081.8754
  -2148726.96147  -1670548.79344  23515949.2424                   23515948.9614
 11  7 29 16 31  0.0000000  0  9G06G13G16G20G23G19G32G03G07
  -8660868.07047  -6727468.49245  21902645.6334                   21902644.8954
 -14742155.93448 -11474913.70746  20938998.3594                   20938996.0314
   4248335.23048   3314567.81646  21050527.2424                   21050524.5554
   9427955.14147   7343677.98845  22714774.8594                   22714774.0514
  -9241176.07848  -7190100.01247  19910111.3914                   19910106.9414
  -5025348.02347  -3905004.30145  22740354.3284                   22740352.0394
  13307824.62947  10361669.35244  23630372.4454                   23630372.8634
 -13537420.28148 -10542692.13746  21002094.9144                   21002093.8164
  -2193582.30146  -1705500.96944  23507413.0084                   23507413.3524
 11  7 29 16 31 15.0000000  0  9G06G13G16G20G23G19G32G03G07
  -8680593.80547  -6742839.20345  21898891.7114                   21898891.0514
 -14790546.65248 -11512620.76246  20929790.0314                   20929788.1564
   4267297.86348   3329343.88346  21054135.8204                   21054133.2384
   9455199.25447   7364907.13345  22719959.4774                   22719958.6134
  -9264985.37548  -7208652.72747  19905580.2664                   19905576.1334
  -5084362.99247  -3950989.96145  22729124.2504                   22729122.3164
  13339956.30946  10386706.94943  23636486.8834                   23636487.4104
 -13574011.55548 -10571204.81246  20995132.0234                   20995130.9574
  -2238435.21947  -1740451.28144  23498878.3834                   23498878.0004
 11  7 29 16 31 30.0000000  0 10G06G13G16G20G23G19G32G03G07G10
  -8700191.90647  -6758110.44945  21895162.5314                   21895161.7854
 -14838867.89848 -11550273.66846  20920594.6884                   20920592.4774
   4286339.62948   3344181.60546  21057759.4774                   21057757.0434
   9482479.34847   7386164.31345  22725150.6804                   22725149.8984
  -9288677.63348  -7227114.22747  19901072.0944                   19901067.7194
  -5143338.50047  -3996944.86745  22717901.0704                   22717899.1644
  13372092.64847  10411748.16444  23642602.1254                   23642603.3364
 -13610475.68048 -10599618.42246  20988193.1414                   20988192.4304
  -2283287.52347  -1775401.10944  23490343.6094                   23490342.5274
   4610047.97756   3595046.46554  24186609.9454                   24186611.5514
 11  7 29 16 31 45.0000000  0 10G06G13G16G20G23G19G32G03G07G10
  -8719662.27047  -6773282.16045  21891457.2034                   21891456.5314
 -14887119.36348 -11587872.20346  20911412.8134                   20911410.4574
   4305460.19548   3359080.73046  21061397.9924                   21061395.5124
   9509794.90647   7407449.11745  22730348.1954                   22730347.9614
  -9312252.74648  -7245484.45347  19896585.8364                   19896581.6174
  -5202274.21147  -4042868.77345  22706686.3674                   22706683.6484
  13404233.25846  10436792.73044  23648718.4454                   23648719.7704
 -13646812.41848 -10627932.75046  20981278.3984                   20981277.7194
  -2328139.32046  -1810350.55144  23481807.6804                   23481807.4264
   4570283.39146   3564061.11343  24179042.8204                   24179045.0394
 11  7 29 16 32  0.0000000  0 10G06G13G16G20G23G19G32G03G07G10
  -8739007.25447  -6788356.17245  21887776.8134                   21887775.2194
 -14935303.04348 -11625417.92646  20902243.6804                   20902241.4964
   4324656.67248   3374039.00846  21065050.9924                   21065048.6954
   9537143.12947   7428759.37145  22735552.5164                   22735552.1174
  -9335713.03548  -7263765.20347  19892121.1644                   19892117.1604
  -5261172.26647  -4088763.34045  22695478.2194                   22695475.7934
  13436375.40246  10461838.45344  23654835.0784                   23654836.1024
 -13683024.01248 -10656149.58246  20974387.7114                   20974386.7854
  -2372993.16846  -1845301.56244  23473272.0234                   23473272.2664
   4530627.77346   3533160.64144  24171497.1334                   24171498.3284
 11  7 29 16 32 15.0000000  0 10G06G13G16G20G23G19G32G03G07G10
  -8758227.27347  -6803332.80545  21884119.0314                   21884117.7034
 -14983419.30548 -11662911.09846  20893087.1484                   20893085.3524
   4343928.53948   3389056.02746  21068718.1724                   21068715.8634
   9564523.19147   7450094.43445  22740762.6644                   22740762.5984
  -9359058.75048  -7281956.67647  19887678.6884                   19887674.6684
  -5320032.72347  -4134628.60545  22684277.4614                   22684274.9184
  13468518.21946  10486884.73844  23660951.4304                   23660952.8834
 -13719110.64548 -10684269.03146  20967520.5864                   20967519.6214
  -2417849.46147  -1880254.51244  23464736.9454                   23464736.2734
   4491080.91046   3502344.89544  24163972.0944                   24163972.9064
 11  7 29 16 32 30.0000000  0 10G06G13G16G20G23G19G32G03G07G10
  -8777319.82847  -6818210.11745  21880485.6414                   21880484.5904
 -15031465.34448 -11700349.56646  20883944.6954                   20883942.5984
   4363277.61348   3404133.21946  21072400.0864                   21072397.6644
   9591937.06347   7471455.84844  22745979.6254                   22745978.9304
  -9382287.32048  -7300056.86747  19883258.7894                   19883254.1684
  -5378852.82047  -4180462.42245  22673084.5784                   22673082.1994
  13500663.74647  10511933.10944  23667068.3754                   23667070.1764
 -13755069.75848 -10712289.12146  20960677.9304                   20960676.4844
  -2462705.87546  -1915207.54344  23456200.4774                   23456201.1094
   4451645.31646   3471615.87944  24156467.6024                   24156468.1214
 11  7 29 16 32 45.0000000  0 10G06G13G16G20G23G19G32G03G07G10
  -8796286.02747  -6832988.97745  21876876.9534                   21876875.3794
 -15079441.97748 -11737733.95346  20874814.9534                   20874813.0554
   4382702.03148   3419269.11346  21076096.5864                   21076094.1414
   9619383.09847   7492842.31645  22751202.6174                   22751202.0944
  -9405399.75848  -7318066.56647  19878860.8284                   19878856.3634
  -5437633.23047  -4226265.31245  22661899.0634                   22661896.7814
  13532810.50447  10536982.44544  23673186.6254                   23673187.8364
 -13790902.26648 -10740210.55146  20953859.1954                   20953857.7704
  -2507563.69147  -1950161.66844  23447664.4144                   23447664.5704
   4412319.87946   3440972.69144  24148984.2344                   24148984.9454
 11  7 29 16 33  0.0000000  0 10G06G13G16G20G23G19G32G03G07G10
  -8815124.46547  -6847668.27745  21873291.4384                   21873290.7734
 -15127347.88348 -11775063.21946  20865698.8914                   20865696.5274
   4402202.71548   3434464.43446  21079807.2114                   21079804.4964
   9646861.99247   7514254.39845  22756431.7194                   22756431.4184
  -9428394.75048  -7335984.75047  19874484.6334                   19874480.5474
  -5496372.55147  -4272036.18045  22650720.8204                   22650719.0474
  13564959.27046  10562033.35943  23679303.6174                   23679305.1134
 -13826606.63748 -10768032.13746  20947064.9774                   20947063.6604
  -2552421.83646  -1985116.05144  23439128.5164                   23439128.2234
   4373105.88747   3410416.35244  24141521.8524                   24141522.5944
 11  7 29 16 33 15.0000000  0 10G06G13G16G20G23G19G32G03G07G10
  -8833833.58647  -6862246.81245  21869731.2194                   21869730.6844
 -15175181.13348 -11812335.87546  20856596.6024                   20856594.2344
   4421780.98448   3449720.20746  21083533.3054                   21083530.3554
   9674375.15247   7535693.18444  22761667.1094                   22761666.7704
  -9451270.43048  -7353809.95747  19870131.6804                   19870127.6094
  -5555068.61747  -4317773.34845  22639551.4614                   22639549.1334
  13597111.24646  10587086.76644  23685422.9534                   23685423.5084
 -13862181.16448 -10795752.55546  20940295.1724                   20940294.3244
  -2597278.71147  -2020069.41444  23430592.0864                   23430592.1414
   4334005.23046   3379948.30944  24134081.0864                   24134082.3404
 11  7 29 16 33 30.0000000  0 10G06G13G16G20G23G19G32G03G07G10
  -8852413.46547  -6876724.64845  21866195.6414                   21866194.9774
 -15222941.59048 -11849551.81246  20847507.7424                   20847505.4614
   4441436.51248   3465036.18846  21087273.3524                   21087271.0044
   9701921.88347   7557158.11744  22766909.1094                   22766908.5554
  -9474026.84048  -7371542.23047  19865801.1334                   19865796.7704
  -5613721.34047  -4363476.76645  22628390.1884                   22628387.3284
  13629265.93846  10612142.28944  23691541.6334                   23691542.4144
 -13897625.70748 -10823371.66846  20933550.4844                   20933549.1374
  -2642134.62147  -2055022.05944  23422056.4924                   23422056.1644
   4295017.71146   3349568.44144  24126661.9144                   24126663.5434
 11  7 29 16 33 45.0000000  0 10G06G13G16G20G23G19G32G03G07G10
  -8870864.42247  -6891102.01645  21862685.1334                   21862683.7814
 -15270629.28548 -11886711.04746  20838433.1484                   20838430.8954
   4461168.37548   3480411.64846  21091028.1414                   21091025.6024
   9729501.43847   7578648.62945  22772157.5634                   22772156.8954
  -9496664.22748  -7389181.76247  19861493.2504                   19861489.1644
  -5672330.71547  -4409146.37145  22617237.5554                   22617234.7774
  13661422.57446  10637199.31344  23697660.0314                   23697661.8204
 -13932940.41848 -10850889.62546  20926830.1334                   20926829.0354
  -2686990.05147  -2089974.34044  23413520.7734                   23413520.1374
   4256143.16846   3319276.60244  24119264.3984                   24119265.5164
 11  7 29 16 34  0.0000000  0 10G06G13G16G20G23G19G32G03G07G10
  -8889186.57447  -6905379.01645  21859198.5314                   21859197.1214
 -15318244.20748 -11923813.58246  20829372.3524                   20829369.9574
   4480975.95348   3495846.11746  21094797.4534                   21094795.1884
   9757113.19147   7600164.23445  22777412.0634                   22777411.4574
  -9519182.66448  -7406728.60947  19857208.4614                   19857203.9884
  -5730896.59447  -4454782.10545  22606092.9144                   22606090.1484
  13693580.65646  10662257.48044  23703779.4924                   23703781.3914
 -13968125.08248 -10878306.25046  20920135.0864                   20920133.7854
  -2731845.20346  -2124926.37944  23404984.8914                   23404984.7504
   4217381.45746   3289072.69943  24111888.5004                   24111889.5004
 11  7 29 16 34 15.0000000  0 10G06G13G16G20G23G19G32G03G07G10
  -8907380.11347  -6919555.79345  21855736.2504                   21855735.1914
 -15365786.43048 -11960859.46946  20820325.2194                   20820323.3594
   4500858.71148   3511339.15246  21098581.0394                   21098578.4414
   9784756.50447   7621704.43445  22782672.0234                   22782671.6884
  -9541582.23848  -7424182.82047  19852945.9454                   19852941.8554
  -5789418.89847  -4500383.88345  22594956.2034                   22594954.2704
  13725739.50846  10687316.24243  23709899.4064                   23709900.7894
 -14003179.78948 -10905621.60246  20913464.4384                   20913462.8364
  -2776700.41047  -2159878.45744  23396449.7584                   23396449.7934
   4178732.35546   3258956.55143  24104533.9454                   24104534.5634
 11  7 29 16 34 30.0000000  0 10G06G13G16G20G23G19G32G03G07G10
  -8925443.92247  -6933631.48445  21852298.8204                   21852297.8164
 -15413254.50848 -11997847.57046  20811292.5314                   20811290.3444
   4520817.29348   3526891.28146  21102379.2504                   21102376.6914
   9812431.84847   7643269.59844  22787939.2274                   22787938.2854
  -9563861.71548  -7441543.46147  19848706.3444                   19848702.1484
  -5847896.23447  -4545950.60545  22583827.8524                   22583825.9304
  13757899.71946  10712376.07844  23716020.5314                   23716020.9184
 -14038103.46948 -10932834.85946  20906818.4694                   20906817.2424
  -2821554.85546  -2194829.94944  23387913.8444                   23387914.2734
   4140197.03547   3228929.03944  24097200.6564                   24097201.7384
 11  7 29 16 34 45.0000000  0 10G06G13G16G20G23G19G32G03G07G10
  -8943378.51247  -6947606.49645  21848886.3054                   21848884.8554
 -15460648.78547 -12034778.16446  20802273.6884                   20802271.4264
   4540850.81348   3542501.80146  21106191.4224                   21106189.0124
   9840138.45347   7664859.10544  22793210.9454                   22793210.8014
  -9586021.34048  -7458810.71547  19844489.4694                   19844485.1254
  -5906328.55547  -4591482.26245  22572708.8674                   22572706.9184
  13790060.48446  10737436.32844  23722139.7424                   23722141.2234
 -14072896.28148 -10959946.14546  20900197.6254                   20900196.3634
  -2866408.90247  -2229781.11744  23379378.7114                   23379377.7974
   4101775.21947   3198989.97743  24089889.7194                   24089890.1454
 11  7 29 16 35  0.0000000  0 10G06G13G16G20G23G19G32G03G07G10
  -7385763.13747  -5733880.22745  22145290.5704                   22145289.4844
 -13932546.17648 -10844048.85546  21093061.9774                   21093059.9264
   6136376.99648   4785768.94146  21409809.8284                   21409807.5354
  11443293.39547   8914070.70345  23098281.3134                   23098280.9964
  -8032640.20748  -6248383.86747  20140087.9224                   20140083.5164
  -4389292.18447  -3409375.98045  22861391.4614                   22861389.5164
  15397638.71947  11990094.60544  24028052.1414                   24028053.0004
 -12532136.23048  -9759353.89846  21193394.4534                   21193393.2344
  -1335840.18047  -1037130.15244  23670636.1484                   23670635.5594
   5638888.99646   4396740.99243  24382392.3834                   24382392.9304
 11  7 29 16 35 15.0000000  0 10G06G13G16G20G23G19G32G03G07G10
  -7403439.14847  -5747653.75045  22141926.8524                   22141925.3444
 -13979791.84048 -10880863.64846  21084071.5944                   21084069.4184
   6156559.13348   4801495.26646  21413650.6024                   21413648.1054
  11471060.84847   8935707.62144  23103565.8984                   23103565.0984
  -8054560.09848  -6265464.31247  20135917.0314                   20135912.6764
  -4447633.66847  -3454836.85545  22850289.1724                   22850287.0394
  15429799.41047  12015154.77744  24034171.6804                   24034173.3554
 -12566666.74248  -9786260.78546  21186823.7734                   21186822.1454
  -1380693.96546  -1072081.10244  23662100.0164                   23662100.2114
   5600694.40246   4366978.96943  24375123.6954                   24375125.0434
 11  7 29 16 35 30.0000000  0 10G06G13G16G20G23G19G32G03G07G10
  -7420986.33247  -5761326.87945  22138587.5314                   22138586.4144
 -14026963.47748 -10917620.76246  21075094.9064                   21075092.8014
   6176814.39848   4817278.57446  21417504.5234                   21417502.5234
  11498857.57047   8957367.36345  23108854.9384                   23108855.1294
  -8076360.41048  -6282451.57847  20131768.4774                   20131764.3714
  -4505929.72747  -3500262.33245  22839196.1094                   22839193.6684
  15461958.81347  12040214.00044  24040291.4924                   24040292.9454
 -12601066.41048  -9813065.71546  21180277.3364                   21180276.2544
  -1425548.44547  -1107032.65244  23653564.9774                   23653564.8204
   5562612.66446   4337304.89543  24367876.7344                   24367878.4184
 11  7 29 16 35 45.0000000  0 10G06G13G16G20G23G19G32G03G07G10
  -7438404.61347  -5774899.56245  22135273.0634                   22135272.2854
 -14074060.75048 -10954319.93046  21066132.8984                   21066130.3914
   6197142.44948   4833118.59846  21421372.8594                   21421370.7234
  11526683.30947   8979049.70344  23114149.9224                   23114149.8554
  -8098040.89848  -6299345.47747  20127642.6564                   20127638.3284
  -4564180.08647  -3545652.20345  22828111.4694                   22828108.8674
  15494116.68046  12065271.98843  24046411.0634                   24046412.0634
 -12635335.08648  -9839768.57846  21173756.5864                   21173755.1334
  -1470403.56646  -1141984.68044  23645029.5704                   23645028.8594
   5524644.20346   4307719.05143  24360652.2114                   24360653.4924
 11  7 29 16 36  0.0000000  0 10G06G13G16G20G23G19G32G03G07G10
  -7455693.39847  -5788371.35545  22131982.8754                   22131982.0394
 -14121082.66048 -10990960.37546  21057184.7424                   21057182.6134
   6217543.67648   4849015.63746  21425255.2114                   21425252.9064
  11554538.31347   9000754.85245  23119450.7034                   23119450.5554
  -8119601.12948  -6316145.66447  20123539.8594                   20123535.8324
  -4622383.62547  -3591005.58245  22817035.6254                   22817033.4384
  15526273.34047  12090329.04743  24052530.5164                   24052531.6684
 -12669471.68448  -9866368.52346  21167260.5084                   21167259.2074
  -1515258.53147  -1176936.59044  23636494.1094                   23636493.0904
   5486789.71146   4278222.04743  24353448.5864                   24353450.0824
 11  7 29 16 36 15.0000000  0 10G06G13G16G20G23G19G32G03G07G10
  -7472851.64147  -5801741.41845  22128718.0314                   22128717.2504
 -14168028.25048 -11027541.34846  21048250.9774                   21048249.1524
   6238018.36748   4864969.93046  21429151.5864                   21429149.3554
  11582422.62947   9022482.84445  23124757.4614                   23124756.6804
  -8141039.86748  -6332851.18747  20119460.3284                   20119456.0434
  -4680539.22747  -3636321.60945  22805968.6724                   22805966.8554
  15558429.16447  12115385.45343  24058649.0554                   24058650.4304
 -12703475.31648  -9892864.85546  21160789.4774                   21160788.2464
  -1560112.86746  -1211887.98844  23627958.2734                   23627957.3014
   5449050.01246   4248814.50443  24346266.9694                   24346268.1334
 11  7 29 16 36 30.0000000  0 10G06G13G16G20G23G19G32G03G07G10
  -7489880.72747  -5815010.84045  22125477.1094                   22125476.5784
 -14214898.59848 -11064063.68746  21039332.0474                   21039329.4694
   6258564.85248   4880980.16046  21433061.6884                   21433058.9104
  11610334.81647   9044232.55544  23130068.6414                   23130068.2424
  -8162358.26248  -6349462.93447  20115403.5474                   20115399.2584
  -4738647.84847  -3681601.03945  22794911.1884                   22794908.7734
  15590582.31347  12140439.76643  24064768.0474                   24064769.3094
 -12737347.13348  -9919258.48046  21154344.0784                   21154342.8794
  -1604968.06647  -1246840.05144  23619422.5634                   23619422.0354
   5411423.91846   4219495.47343  24339107.0004                   24339108.1844
 11  7 29 16 36 45.0000000  0 10G06G13G16G20G23G19G32G03G07G10
  -7506781.09447  -5828179.97345  22122261.6724                   22122260.7274
 -14261693.75448 -11100527.43746  21030427.2664                   21030424.9414
   6279182.39148   4897045.75046  21436984.7034                   21436982.3014
  11638274.06646   9066003.34444  23135384.8754                   23135384.9924
  -8183556.71948  -6365981.21547  20111369.8834                   20111365.1954
  -4796709.61347  -3726843.94545  22783862.2194                   22783860.4804
  15622732.16046  12165491.52043  24070885.9064                   24070887.2304
 -12771087.28548  -9945549.50446  21147923.8914                   21147922.2894
  -1649824.37946  -1281792.98844  23610886.6484                   23610885.9804
   5373911.27746   4190264.85243  24331969.0474                   24331969.8324
 11  7 29 16 37  0.0000000  0 10G06G13G16G20G23G19G32G03G07G10
  -7523552.93747  -5841248.94145  22119069.7664                   22119068.7934
 -14308413.74648 -11136932.61746  21021536.7814                   21021534.5004
   6299870.11748   4913166.03946  21440921.6024                   21440919.1994
  11666239.45746   9087794.50044  23140707.2894                   23140706.3244
  -8204635.18448  -6382406.00847  20107358.3984                   20107354.1524
  -4854724.28547  -3772050.16845  22772822.3984                   22772820.4924
  15654878.04747  12190540.18043  24077003.2734                   24077004.1414
 -12804695.94148  -9971738.06646  21141527.7894                   21141526.1954
  -1694682.28547  -1316747.18744  23602350.7194                   23602351.4144
   5336511.72346   4161122.35543  24324851.1644                   24324852.6604
 11  7 29 16 37 15.0000000  0 10G06G13G16G20G23G19G32G03G07G10
  -7540194.14147  -5854216.12945  22115903.2274                   22115902.2344
 -14355056.21948 -11173277.40246  21012661.0164                   21012658.6174
   6320629.76648   4929342.37146  21444872.4454                   21444869.6134
  11694232.64147   9109607.32844  23146033.6334                   23146033.6414
  -8225591.73848  -6398735.80547  20103370.5864                   20103366.1994
  -4912689.43747  -3817217.81245  22761791.9694                   22761789.6954
  15687021.47747  12215586.94143  24083120.2424                   24083121.4694
 -12838170.85948  -9997822.41846  21135158.0164                   21135156.5164
  -1739539.91447  -1351701.16044  23593814.7114                   23593814.5664
   5299227.35246   4132069.61343  24317756.5864                   24317757.9844
 11  7 29 16 37 30.0000000  0 10G06G13G16G20G23G19G32G03G07G10
  -7556706.61347  -5867083.00845  22112760.5784                   22112760.0354
 -14401622.92248 -11209563.14546  21003799.4924                   21003797.6054
   6341459.14548   4945573.03546  21448835.8754                   21448833.1484
  11722251.38346   9131440.03544  23151365.7344                   23151365.1374
  -8246428.07448  -6414971.92247  20099405.6644                   20099401.3954
  -4970606.80547  -3862348.21145  22750771.2584                   22750768.4774
  15719160.28546  12240630.07043  24089235.6094                   24089237.1884
 -12871513.50848 -10023803.70746  21128813.1564                   21128812.1844
  -1784399.07047  -1386656.32444  23585278.2194                   23585277.7234
   5262056.32446   4103105.15643  24310682.6484                   24310684.2114
 11  7 29 16 37 45.0000000  0 10G06G13G16G20G23G19G32G03G07G10
  -7573088.95347  -5879848.48445  22109642.8444                   22109642.7504
 -14448112.19148 -11245788.54346  20994952.8594                   20994950.8594
   6362359.16848   4961858.75046  21452813.0864                   21452810.5704
  11750296.50846   9153293.32044  23156702.6804                   23156702.4964
  -8267142.67248  -6431113.18047  20095463.9144                   20095459.4774
  -5028474.57447  -3907439.96145  22739758.6644                   22739757.3554
  15751295.56647  12265670.44944  24095351.0704                   24095352.4264
 -12904722.41048 -10049680.77746  21122493.4844                   21122492.4264
  -1829258.50047  -1421611.70744  23576741.9454                   23576741.2344
   5225000.20746   4074230.27743  24303632.0004                   24303632.8244
 11  7 29 16 38  0.0000000  0 10G06G13G16G20G23G19G32G03G07G10
  -7589341.96547  -5892513.18045  22106550.4774                   22106549.7424
 -14494524.60548 -11281954.06646  20986121.2734                   20986118.8984
   6383328.66048   4978198.59446  21456803.5864                   21456800.6954
  11778366.55146   9175166.02044  23162044.2344                   23162044.0394
  -8287736.25448  -6447160.14147  20091544.9454                   20091540.7894
  -5086293.19947  -3952493.42245  22728756.4454                   22728754.0004
  15783425.91846  12290707.00843  24101465.8754                   24101466.4534
 -12937798.26648 -10075454.17646  21116199.8444                   21116198.1994
  -1874119.23847  -1456568.11344  23568204.2424                   23568204.6524
   5188058.23846   4045444.32443  24296601.9454                   24296603.2424
 11  7 29 16 38 15.0000000  0 10G06G13G16G20G23G19G32G03G07G10
  -7605465.11747  -5905076.67645  22103482.6414                   22103481.5124
 -14540859.41448 -11318059.10546  20977303.4304                   20977301.8164
   6404367.63348   4994592.58246  21460806.7664                   21460804.5784
  11806461.97346   9197058.49644  23167390.4614                   23167390.5164
  -8308208.23048  -6463112.34447  20087649.3524                   20087644.9774
  -5144061.91447  -3997507.98045  22717763.6804                   22717760.9614
  15815551.49247  12315739.81343  24107578.8204                   24107580.6174
 -12970740.47348 -10101123.43446  21109931.0164                   21109929.7704
  -1918980.96147  -1491525.28944  23559667.8754                   23559667.3164
   5151230.96946   4016747.73043  24289594.1174                   24289594.5704
 11  7 29 16 38 30.0000000  0 10G06G13G16G20G23G19G32G03G07G10
  -7621459.00447  -5917539.46545  22100438.9144                   22100437.6294
 -14587116.80948 -11354103.82846  20968501.2344                   20968499.4454
   6425475.16848   5011039.98846  21464823.9534                   21464821.5554
  11834581.78146   9218969.97744  23172742.0084                   23172741.2384
  -8328559.00448  -6478970.10247  20083776.7974                   20083772.6764
  -5201780.88747  -4042483.79345  22706779.4224                   22706777.2814
  15847671.39847  12340768.21143  24113691.0554                   24113692.3594
 -13003549.44948 -10126688.87546  21103687.4844                   21103686.5204
  -1963844.13746  -1526483.57844  23551130.3444                   23551130.0514
   5114518.02346   3988140.26243  24282608.1484                   24282608.3324
 11  7 29 16 38 45.0000000  0 10G06G13G16G20G23G19G32G03G07G10
  -7637324.57847  -5929902.26645  22097419.9614                   22097418.5394
 -14633297.67248 -11390088.90646  20959713.3284                   20959711.3834
   6446649.89148   5027539.75446  21468853.1724                   21468850.7584
  11862724.41046   9240899.23044  23178097.0234                   23178096.1914
  -8348789.34448  -6494734.01247  20079926.9844                   20079922.9384
  -5259450.87147  -4087421.43745  22695805.2424                   22695803.2234
  15879784.18446  12365791.09043  24119801.7194                   24119803.6094
 -13036225.90248 -10152151.04346  21097469.2504                   21097468.2114
  -2008709.99647  -1561443.96544  23542592.6564                   23542592.7344
   5077918.44946   3959621.08243  24275643.0394                   24275644.1724
 11  7 29 16 39  0.0000000  0 10G06G13G16G20G23G19G32G03G07G10
  -7653060.12947  -5942163.74245  22094426.2344                   22094424.8484
 -14679400.08648 -11426012.85946  20950940.0474                   20950938.3054
   6467893.02048   5044092.82046  21472895.6174                   21472893.1214
  11890891.10546   9262847.24244  23183457.1024                   23183456.9654
  -8368897.66048  -6510402.83647  20076100.4694                   20076096.2584
  -5317069.64547  -4132319.16845  22684841.1644                   22684839.2704
  15911891.14546  12390809.39843  24125911.1954                   24125913.7274
 -13068768.06648 -10177508.57446  21091276.8284                   21091275.5904
  -2053576.80947  -1596405.10544  23534055.2114                   23534054.6214
   5041433.82446   3931191.54343  24268699.8134                   24268701.4304
 11  7 29 16 39 15.0000000  0 10G06G13G16G20G23G19G32G03G07G10
  -7668666.47347  -5954324.52745  22091455.4064                   22091454.5084
 -14725424.74248 -11461876.23446  20942182.3524                   20942180.1334
   6489203.32048   5060698.23046  21476950.3834                   21476948.4924
  11919080.42246   9284812.89544  23188821.2584                   23188820.8794
  -8388884.67248  -6525977.14547  20072297.0704                   20072292.8674
  -5374637.73447  -4177177.41045  22673885.7664                   22673883.4654
  15943991.06346  12415822.21543  24132019.8284                   24132022.5474
 -13101176.60948 -10202761.98446  21085109.5704                   21085108.3714
  -2098445.66847  -1631367.81244  23525516.7734                   23525516.4224
   5005063.36346   3902850.91043  24261779.1884                   24261779.9534
 11  7 29 16 39 30.0000000  0 10G06G13G16G20G23G19G32G03G07G10
  -7684142.98847  -5966384.17645  22088511.0394                   22088509.8914
 -14771370.43448 -11497678.06246  20933438.7274                   20933436.9454
   6510581.14848   5077356.25446  21481018.7584                   21481016.3204
  11947292.75846   9306796.47344  23194189.9534                   23194189.2814
  -8408749.45748  -6541456.20747  20068517.0394                   20068512.6374
  -5432154.07047  -4221995.31645  22662941.0004                   22662938.4694
  15976084.25446  12440829.78543  24138126.8984                   24138129.8404
 -13133450.64848 -10227910.58646  21078968.0864                   21078966.9494
  -2143315.86347  -1666331.56244  23516977.9614                   23516977.8054
   4968807.59846   3874599.70343  24254878.8054                   24254881.1134
 11  7 29 16 39 45.0000000  0 10G06G13G16G20G23G19G32G03G07G10
  -7699491.13347  -5978343.76645  22085589.6254                   22085589.0824
 -14817238.56248 -11533419.45746  20924710.4924                   20924708.0864
   6532024.47348   5094065.31646  21485099.6414                   21485096.9304
  11975526.09046   9328796.43044  23199562.3364                   23199562.1294
  -8428493.73848  -6556841.37147  20064759.8834                   20064755.6724
  -5489619.96147  -4266773.90645  22652005.6174                   22652003.3524
  16008168.85946  12465830.69143  24144232.6884                   24144235.3054
 -13165591.50848 -10252955.40646  21072851.4454                   21072850.5984
  -2188189.01247  -1701297.63344  23508438.6094                   23508438.8874
   4932665.47346   3846436.98843  24248002.0784                   24248003.7704
 11  7 29 16 40  0.0000000  0 10G06G13G16G20G23G19G32G03G07G10
  -7714709.52047  -5990202.27045  22082694.1334                   22082693.4144
 -14863027.46548 -11569099.11346  20915997.3364                   20915995.3244
   6553534.43048   5110826.30546  21489192.7734                   21489190.1294
  12003781.43846   9350813.52044  23204939.8674                   23204938.9884
  -8448115.86348  -6572131.35247  20061026.0084                   20061021.6604
  -5547033.58247  -4311511.77345  22641079.9304                   22641077.8014
  16040245.86746  12490825.64843  24150336.6724                   24150339.2734
 -13197597.52048 -10277895.16046  21066761.1644                   21066760.1254
  -2233063.88747  -1736265.03544  23499899.5554                   23499899.2934
   4896638.31646   3818363.90643  24241146.4224                   24241146.8364
 11  7 29 16 40 15.0000000  0 10G06G13G16G20G23G19G32G03G07G10
  -7729798.46547  -6001959.89145  22079822.7974                   22079822.2384
 -14908737.29348 -11604717.16046  20907299.1484                   20907296.7814
   6575110.18048   5127638.55546  21493298.3754                   21493295.4964
  12032058.05546   9372847.19544  23210320.5474                   23210320.1564
  -8467615.83248  -6587326.14547  20057315.0164                   20057310.5594
  -5604395.01647  -4356208.97745  22630164.7974                   22630162.2704
  16072314.35946  12515814.00843  24156439.4304                   24156441.5984
 -13229469.01248 -10302730.07046  21060696.3364                   21060695.2034
  -2277940.92246  -1771234.13744  23491359.4774                   23491359.3714
   4860725.83646   3790380.15643  24234312.6174                   24234313.2974
 11  7 29 16 40 30.0000000  0 10G06G13G16G20G23G19G32G03G07G10
  -7744757.62947  -6013616.39145  22076976.0084                   22076975.3014
 -14954367.32848 -11640273.02746  20898616.0314                   20898613.5664
   6596751.77348   5144502.11346  21497416.7194                   21497414.3364
  12060355.71546   9394897.27344  23215705.7034                   23215704.7154
  -8486993.37148  -6602425.52747  20053627.8914                   20053623.6764
  -5661703.53947  -4400864.93445  22619259.3284                   22619257.0474
  16104374.44946  12540795.78143  24162540.2034                   24162542.3594
 -13261205.34048 -10327459.67646  21054657.2814                   21054656.1454
  -2322819.86347  -1806204.72344  23482819.8054                   23482819.3524
   4824928.47346   3762486.12543  24227500.4064                   24227500.8284
 11  7 29 16 40 45.0000000  0 10G06G13G16G20G23G19G32G03G07G10
  -7759587.10547  -6025171.84045  22074154.0944                   22074153.1954
 -14999917.39547 -11675766.57446  20889947.6024                   20889945.4654
   6618458.62548   5161416.52746  21501547.3594                   21501545.2424
  12088673.99647   9416963.41844  23221094.3134                   23221093.5864
  -8506248.28148  -6617429.35947  20049963.7344                   20049959.3134
  -5718958.86347  -4445479.46145  22608363.8914                   22608361.5864
  16136425.78146  12565770.75443  24168639.1724                   24168641.6294
 -13292806.38348 -10352083.85246  21048643.6724                   21048642.2344
  -2367700.79347  -1841176.84844  23474279.3834                   23474279.1604
   4789246.09846   3734681.67643  24220709.9614                   24220710.9964
 11  7 29 16 41  0.0000000  0 10G06G13G16G20G23G19G32G03G07G10
  -7774286.78947  -6036626.14845  22071356.8834                   22071356.0984
 -15045387.23848 -11711197.60946  20881295.2974                   20881293.0434
   6640230.51248   5178381.61346  21505690.5944                   21505688.2194
  12117012.56646   9439045.35544  23226486.6804                   23226486.8834
  -8525380.52348  -6632337.60947  20046322.8834                   20046318.6994
  -5776160.47347  -4490052.12145  22597478.7034                   22597476.5354
  16168468.01246  12590738.63343  24174737.2894                   24174739.2894
 -13324271.78947 -10376602.34446  21042655.8204                   21042654.8794
  -2412583.66847  -1876150.47344  23465738.1884                   23465737.0904
   4753679.00046   3706967.02043  24213942.2814                   24213943.2464
 11  7 29 16 41 15.0000000  0 10G06G13G16G20G23G19G32G03G07G10
  -7788856.44547  -6047979.12145  22068584.3984                   22068583.3834
 -15090776.41448 -11746565.79746  20872658.2664                   20872655.5664
   6662067.19548   5195397.19146  21509845.7814                   21509843.6374
  12145371.05547   9461142.82044  23231883.9224                   23231882.8634
  -8544389.69148  -6647149.96147  20042705.5554                   20042701.5664
  -5833308.04347  -4534582.67245  22586603.8134                   22586601.4264
  16200500.75446  12615699.11343  24180832.4454                   24180835.2704
 -13355601.54748 -10401015.14146  21036694.2664                   21036693.0354
  -2457468.47346  -1911125.61345  23457196.7894                   23457196.2974
   4718227.21946   3679342.32843  24207195.5084                   24207197.0864
 11  7 29 16 41 30.0000000  0 10G06G13G16G20G23G19G32G03G07G10
  -7803295.34047  -6059230.20745  22065836.3134                   22065835.7194
 -15136083.76647 -11781870.21946  20864036.4144                   20864034.1684
   6683969.14548   5212463.62146  21514013.8834                   21514011.0004
  12173749.80546   9483256.07844  23237283.9774                   23237283.2624
  -8563274.91048  -6661865.73047  20039111.8834                   20039107.7154
  -5890400.21547  -4579070.06245  22575739.5704                   22575737.1564
  16232524.52046  12640652.59043  24186926.7814                   24186928.1884
 -13386794.49648 -10425321.32846  21030758.1884                   21030757.3594
  -2502354.50046  -1946101.72744  23448655.5864                   23448654.5944
   4682891.85946   3651808.28543  24200471.6884                   24200472.8634
 11  7 29 16 41 45.0000000  0 10G06G13G16G20G23G19G32G03G07G10
  -7817603.55947  -6070379.47345  22063113.9064                   22063113.5944
 -15181309.19547 -11817110.80546  20855430.0864                   20855427.8914
   6705935.71148   5229580.41446  21518193.7034                   21518191.2894
  12202148.56347   9505384.93044  23242688.1804                   23242687.3984
  -8582036.20748  -6676484.92647  20035541.6334                   20035537.5004
  -5947436.89847  -4623514.21145  22564886.3134                   22564883.4344
  16264538.83246  12665598.69943  24193018.9064                   24193020.8524
 -13417850.68447 -10449520.95346  21024848.2584                   21024847.5314
  -2547241.98446  -1981078.96544  23440113.4454                   23440112.6764
   4647672.80546   3624364.88343  24193769.8204                   24193769.8484
 11  7 29 16 42  0.0000000  0 10G06G13G16G20G23G19G32G03G07G10
  -7831782.29347  -6081427.84445  22060415.7814                   22060415.4614
 -15226453.67647 -11852288.32046  20846839.3054                   20846837.2894
   6727965.32048   5246746.32046  21522385.8444                   21522383.2854
  12230565.65647   9527528.05144  23248095.8914                   23248095.3094
  -8600674.78148  -6691008.49647  20031994.8364                   20031990.3364
  -6004418.75047  -4667915.62145  22554042.6804                   22554040.4494
  16296542.14846  12690536.25043  24199109.0394                   24199111.0594
 -13448771.02747 -10473614.72346  21018964.5234                   21018963.3204
  -2592132.05946  -2016058.19544  23431571.1094                   23431570.5664
   4612568.92246   3597011.20743  24187090.2504                   24187089.1724
 11  7 29 16 42 15.0000000  0 10G06G13G16G20G23G19G32G03G07G10
  -7845829.79347  -6092373.95745  22057742.5314                   22057742.1334
 -15271515.29747 -11887401.26246  20838264.7194                   20838262.3954
   6750059.39548   5263962.46146  21526590.1724                   21526587.7774
  12259002.23447   9549686.37544  23253507.2424                   23253507.0744
  -8619188.87148  -6705435.07047  20028471.8444                   20028467.6374
  -6061343.85547  -4712272.81245  22543209.9694                   22543208.1844
  16328535.85946  12715466.31643  24205197.5164                   24205200.0164
 -13479553.76247 -10497601.26646  21013106.7344                   21013105.5234
  -2637023.27346  -2051038.35544  23423028.3134                   23423028.0434
   4577581.93046   3569748.62942  24180431.7584                   24180431.3634
 11  7 29 16 42 30.0000000  0 10G06G13G16G20G23G19G32G03G07G10
  -7859746.87947  -6103218.45345  22055094.5784                   22055093.6134
 -15316494.53148 -11922450.01646  20829705.3914                   20829702.7544
   6772216.63748   5281227.82446  21530806.6334                   21530804.5474
  12287457.06647   9571858.91044  23258921.9144                   23258920.8364
  -8637579.12548  -6719765.14847  20024972.1564                   20024967.5824
  -6118212.66047  -4756586.14845  22532388.2894                   22532386.2384
  16360518.67246  12740387.91443  24211283.9694                   24211285.2504
 -13510199.52747 -10521481.07846  21007275.0944                   21007274.3404
  -2681916.54346  -2086020.11344  23414485.9844                   23414485.1254
   4542710.93046   3542576.44943  24173795.8284                   24173796.2234
 11  7 29 16 42 45.0000000  0 10G06G13G16G20G23G19G32G03G07G10
  -7873532.79347  -6113960.72745  22052470.8134                   22052469.8094
 -15361390.30147 -11957433.72346  20821161.9774                   20821159.6094
   6794437.64848   5298542.88346  21535035.1724                   21535032.6214
  12315930.55947   9594046.00044  23264340.0784                   23264339.5234
  -8655844.53148  -6733997.94147  20021496.5634                   20021492.1334
  -6175023.82447  -4800854.55945  22521577.2424                   22521575.2234
  16392491.10546  12765301.36743  24217368.5164                   24217370.2234
 -13540707.23447 -10545253.31646  21001469.5944                   21001468.8244
  -2726811.02346  -2121002.79344  23405942.8444                   23405942.3134
   4507956.96946   3515495.47743  24167182.0234                   24167183.5124
 11  7 29 16 43  0.0000000  0 10G06G13G16G20G23G19G32G03G07G10
  -7887188.67647  -6124601.68445  22049872.3364                   22049871.5664
 -15406203.51647 -11992353.10546  20812634.0004                   20812631.9964
   6816720.69548   5315906.27346  21539275.5474                   21539273.3134
  12344421.01247   9616246.30144  23269761.9694                   23269761.1054
  -8673986.23048  -6748134.34447  20018044.2504                   20018039.7584
  -6231778.49247  -4845078.94545  22510777.2734                   22510775.5474
  16424451.42246  12790205.41443  24223449.8524                   24223451.8444
 -13571078.03547 -10568918.86346  20995690.3524                   20995689.0824
  -2771707.91046  -2155987.32845  23397398.5314                   23397398.8204
   4473318.90246   3488504.81343  24160591.0314                   24160591.8054
